[[{"header":{"parameterUnit":"m.s-1","parameterCategory":1,"la1":30.6,"la2":28.766,"lo1":-90.7593,"lo2":-88.6598,"dy":0.0162,"dx":0.0183,"nx":116,"ny":114,"refTime":"2023-03-25T12:00:00:Z","depth":0,"parameterNumber":2,"parameterNumberName":"U-component_of_WINDS"},"data":[0.0,0.0,0.0,0.0,0.0,0.0,0.0,0.0,0.0,0.0,0.0,0.0,0.0,0.0,0.0,0.0,0.0,0.0,0.0,0.0,0.0,0.0,0.0,0.0,0.0,0.0,0.0,0.0,0.0,0.0,0.0,0.0,0.0,0.0,0.0,0.0,0.0,0.0,0.0,0.0,0.0,0.0,0.0,0.0,0.0,0.0,0.0,0.0,0.0,0.0,0.0,0.0,0.0,0.0,0.0,0.0,0.0,0.0,0.0,0.0,0.0,0.0,0.0,0.0,0.0,0.0,0.0,0.0,0.0,0.0,0.0,0.0,0.0,0.0,0.0,0.0,0.0,0.0,0.0,0.0,0.0,0.0,0.0,0.0,0.0,0.0,0.0,0.0,0.0,0.0,0.0,0.0,0.0,0.0,0.0,0.0,0.0,0.0,0.0,0.0,0.0,0.0,0.0,0.0,0.0,0.0,0.0,0.0,0.0,0.0,0.0,0.0,0.0,0.0,0.0,0.0,0.0,0.0,0.0,0.0,0.0,0.0,0.0,0.0,0.0,0.0,0.0,0.0,0.0,0.0,0.0,0.0,0.0,0.0,0.0,0.0,0.0,0.0,0.0,0.0,0.0,0.0,0.0,0.0,0.0,0.0,0.0,0.0,0.0,0.0,0.0,0.0,0.0,0.0,0.0,0.0,0.0,0.0,0.0,0.0,0.0,0.0,0.0,0.0,0.0,0.0,0.0,0.0,0.0,0.0,0.0,0.0,0.0,0.0,0.0,0.0,0.0,0.0,0.0,0.0,0.0,0.0,0.0,0.0,0.0,0.0,0.0,0.0,0.0,0.0,0.0,0.0,0.0,0.0,0.0,0.0,0.0,0.0,0.0,0.0,0.0,0.0,0.0,0.0,0.0,0.0,0.0,0.0,0.0,0.0,0.0,0.0,0.0,0.0,0.0,0.0,0.0,0.0,0.0,0.0,0.0,0.0,0.0,0.0,0.0,0.0,0.0,0.0,0.0,0.0,0.0,0.0,0.0,0.0,0.0,0.0,0.0,0.0,0.0,0.0,0.0,0.0,0.0,0.0,0.0,0.0,0.0,0.0,0.0,0.0,0.0,0.0,0.0,0.0,0.0,0.0,0.0,0.0,0.0,0.0,0.0,0.0,0.0,0.0,0.0,0.0,0.0,0.0,0.0,0.0,0.0,0.0,0.0,0.0,0.0,0.0,0.0,0.0,0.0,0.0,0.0,0.0,0.0,0.0,0.0,0.0,0.0,0.0,0.0,0.0,0.0,0.0,0.0,0.0,0.0,0.0,0.0,0.0,0.0,0.0,0.0,0.0,0.0,0.0,0.0,0.0,0.0,0.0,0.0,0.0,0.0,0.0,0.0,0.0,0.0,0.0,0.0,0.0,0.0,0.0,0.0,0.0,0.0,0.0,0.0,0.0,0.0,0.0,0.0,0.0,0.0,0.0,0.0,0.0,0.0,0.0,0.0,0.0,0.0,0.0,0.0,0.0,0.0,0.0,0.0,0.0,0.0,0.0,0.0,0.0,0.0,0.0,0.0,0.0,0.0,0.0,0.0,0.0,0.0,0.0,0.0,0.0,0.0,0.0,0.0,0.0,0.0,0.0,0.0,0.0,0.0,0.0,0.0,0.0,0.0,0.0,0.0,0.0,0.0,0.0,0.0,0.0,0.0,0.0,0.0,0.0,0.0,0.0,0.0,0.0,0.0,0.0,0.0,0.0,0.0,0.0,0.0,0.0,0.0,0.0,0.0,0.0,0.0,0.0,0.0,0.0,0.0,0.0,0.0,0.0,0.0,0.0,0.0,0.0,0.0,0.0,0.0,0.0,0.0,0.0,0.0,0.0,0.0,0.0,0.0,0.0,0.0,0.0,0.0,0.0,0.0,0.0,0.0,0.0,0.0,0.0,0.0,0.0,0.0,0.0,0.0,0.0,0.0,0.0,0.0,0.0,0.0,0.0,0.0,0.0,0.0,0.0,0.0,0.0,0.0,0.0,0.0,0.0,0.0,0.0,0.0,0.0,0.0,0.0,0.0,0.0,0.0,0.0,0.0,0.0,0.0,0.0,0.0,0.0,0.0,0.0,0.0,0.0,0.0,0.0,0.0,0.0,0.0,0.0,0.0,0.0,0.0,0.0,0.0,0.0,0.0,0.0,0.0,0.0,0.0,0.0,0.0,0.0,0.0,0.0,0.0,0.0,0.0,0.0,0.0,0.0,0.0,0.0,0.0,0.0,0.0,0.0,0.0,0.0,0.0,0.0,0.0,0.0,0.0,0.0,0.0,0.0,0.0,0.0,0.0,0.0,0.0,0.0,0.0,0.0,0.0,0.0,0.0,0.0,0.0,0.0,0.0,0.0,0.0,0.0,0.0,0.0,0.0,0.0,0.0,0.0,0.0,0.0,0.0,0.0,0.0,0.0,0.0,0.0,0.0,0.0,0.0,0.0,0.0,0.0,0.0,0.0,0.0,0.0,0.0,0.0,0.0,0.0,0.0,0.0,0.0,0.0,0.0,0.0,0.0,0.0,0.0,0.0,0.0,0.0,0.0,0.0,0.0,0.0,0.0,0.0,0.0,0.0,0.0,0.0,0.0,0.0,0.0,0.0,0.0,0.0,0.0,0.0,0.0,0.0,0.0,0.0,0.0,0.0,0.0,0.0,0.0,0.0,0.0,0.0,0.0,0.0,0.0,0.0,0.0,0.0,0.0,0.0,0.0,0.0,0.0,0.0,0.0,0.0,0.0,0.0,0.0,0.0,0.0,0.0,0.0,0.0,0.0,0.0,0.0,0.0,0.0,0.0,0.0,0.0,0.0,0.0,0.0,0.0,0.0,0.0,0.0,0.0,0.0,0.0,0.0,0.0,0.0,0.0,0.0,0.0,0.0,0.0,0.0,0.0,0.0,0.0,0.0,0.0,0.0,0.0,0.0,0.0,0.0,0.0,0.0,0.0,0.0,0.0,0.0,0.0,0.0,0.0,0.0,0.0,0.0,0.0,0.0,0.0,0.0,0.0,0.0,0.0,0.0,0.0,0.0,0.0,0.0,0.0,0.0,0.0,0.0,0.0,0.0,0.0,0.0,0.0,0.0,0.0,0.0,0.0,0.0,0.0,0.0,0.0,0.0,0.0,0.0,0.0,0.0,0.0,0.0,0.0,0.0,0.0,0.0,0.0,0.0,0.0,0.0,0.0,0.0,0.0,0.0,0.0,0.0,0.0,0.0,0.0,0.0,0.0,0.0,0.0,0.0,0.0,0.0,0.0,0.0,0.0,0.0,0.0,0.0,0.0,0.0,0.0,0.0,0.0,0.0,0.0,0.0,0.0,0.0,0.0,0.0,0.0,0.0,0.0,0.0,0.0,0.0,0.0,0.0,0.0,0.0,0.0,0.0,0.0,0.0,0.0,0.0,0.0,0.0,0.0,0.0,0.0,0.0,0.0,0.0,0.0,0.0,0.0,0.0,0.0,0.0,0.0,0.0,0.0,0.0,0.0,0.0,0.0,0.0,0.0,0.0,0.0,0.0,0.0,0.0,0.0,0.0,0.0,0.0,0.0,0.0,0.0,0.0,0.0,0.0,0.0,0.0,0.0,0.0,0.0,0.0,0.0,0.0,0.0,0.0,0.0,0.0,0.0,0.0,0.0,0.0,0.0,0.0,0.0,0.0,0.0,0.0,0.0,0.0,0.0,0.0,0.0,0.0,0.0,0.0,0.0,0.0,0.0,0.0,0.0,0.0,0.0,0.0,0.0,0.0,0.0,0.0,0.0,0.0,0.0,0.0,0.0,0.0,0.0,0.0,0.0,0.0,0.0,0.0,0.0,0.0,0.0,0.0,0.0,0.0,0.0,0.0,0.0,0.0,0.0,0.0,0.0,0.0,0.0,0.0,0.0,0.0,0.0,0.0,0.0,0.0,0.0,0.0,0.0,0.0,0.0,0.0,0.0,0.0,0.0,0.0,0.0,0.0,0.0,0.0,0.0,0.0,0.0,0.0,0.0,0.0,0.0,0.0,0.0,0.0,0.0,0.0,0.0,0.0,0.0,0.0,0.0,0.0,0.0,0.0,0.0,0.0,0.0,0.0,0.0,0.0,0.0,0.0,0.0,0.0,0.0,0.0,0.0,0.0,0.0,0.0,0.0,0.0,0.0,0.0,0.0,0.0,0.0,0.0,0.0,0.0,0.0,0.0,0.0,0.0,0.0,0.0,0.0,0.0,0.0,0.0,0.0,0.0,0.0,0.0,0.0,0.0,0.0,0.0,0.0,0.0,0.0,0.0,0.0,0.0,0.0,0.0,0.0,0.0,0.0,0.0,0.0,0.0,0.0,0.0,0.0,0.0,0.0,0.0,0.0,0.0,0.0,0.0,0.0,0.0,0.0,0.0,0.0,0.0,0.0,0.0,0.0,0.0,0.0,0.0,0.0,0.0,0.0,0.0,0.0,0.0,0.0,0.0,0.0,0.0,0.0,0.0,0.0,0.0,0.0,0.0,0.0,0.0,0.0,0.0,0.0,0.0,0.0,0.0,0.0,0.0,0.0,0.0,0.0,0.0,0.0,0.0,0.0,0.0,0.0,0.0,0.0,0.0,0.0,0.0,0.0,0.0,0.0,0.0,0.0,0.0,0.0,0.0,0.0,0.0,0.0,0.0,0.0,0.0,0.0,0.0,0.0,0.0,0.0,0.0,0.0,0.0,0.0,0.0,0.0,0.0,0.0,0.0,0.0,0.0,0.0,0.0,0.0,0.0,0.0,0.0,0.0,0.0,0.0,0.0,0.0,0.0,0.0,0.0,0.0,0.0,0.0,0.0,0.0,0.0,0.0,0.0,0.0,0.0,0.0,0.0,0.0,0.0,0.0,0.0,0.0,0.0,0.0,0.0,0.0,0.0,0.0,0.0,0.0,0.0,0.0,0.0,0.0,0.0,0.0,0.0,0.0,0.0,0.0,0.0,0.0,0.0,0.0,0.0,0.0,0.0,0.0,0.0,0.0,0.0,0.0,0.0,0.0,0.0,0.0,0.0,0.0,0.0,0.0,0.0,0.0,0.0,0.0,0.0,0.0,0.0,0.0,0.0,0.0,0.0,0.0,0.0,0.0,0.0,0.0,0.0,0.0,0.0,0.0,0.0,0.0,0.0,0.0,0.0,0.0,0.0,0.0,0.0,0.0,0.0,0.0,0.0,0.0,0.0,0.0,0.0,0.0,0.0,0.0,0.0,0.0,0.0,0.0,0.0,0.0,0.0,0.0,0.0,0.0,0.0,0.0,0.0,0.0,0.0,0.0,0.0,0.0,0.0,0.0,0.0,0.0,0.0,0.0,0.0,0.0,0.0,0.0,0.0,0.0,0.0,0.0,0.0,0.0,0.0,0.0,0.0,0.0,0.0,0.0,0.0,0.0,0.0,0.0,0.0,0.0,0.0,0.0,0.0,0.0,0.0,0.0,0.0,0.0,0.0,0.0,0.0,0.0,0.0,0.0,0.0,0.0,0.0,0.0,0.0,0.0,0.0,0.0,0.0,0.0,0.0,0.0,0.0,0.0,0.0,0.0,0.0,0.0,0.0,0.0,0.0,0.0,0.0,0.0,0.0,0.0,0.0,0.0,0.0,0.0,0.0,0.0,0.0,0.0,0.0,0.0,0.0,0.0,0.0,0.0,0.0,0.0,0.0,0.0,0.0,0.0,0.0,0.0,0.0,0.0,0.0,0.0,0.0,0.0,0.0,0.0,0.0,0.0,0.0,0.0,0.0,0.0,0.0,0.0,0.0,0.0,0.0,0.0,0.0,0.0,0.0,0.0,0.0,0.0,0.0,0.0,0.0,0.0,0.0,0.0,0.0,0.0,0.0,0.0,0.0,0.0,0.0,0.0,0.0,0.0,0.0,0.0,0.0,0.0,0.0,0.0,0.0,0.0,0.0,0.0,0.0,0.0,0.0,0.0,0.0,0.0,0.0,0.0,0.0,0.0,0.0,0.0,0.0,0.0,0.0,0.0,0.0,0.0,0.0,0.0,0.0,0.0,0.0,0.0,0.0,0.0,0.0,0.0,0.0,0.0,0.0,0.0,0.0,0.0,0.0,0.0,0.0,0.0,-3.152,-3.0014,0.0,0.0,0.0,0.0,0.0,0.0,0.0,0.0,0.0,0.0,0.0,0.0,0.0,0.0,0.0,0.0,0.0,0.0,0.0,0.0,0.0,0.0,0.0,0.0,0.0,0.0,0.0,0.0,0.0,0.0,0.0,0.0,0.0,0.0,0.0,0.0,0.0,0.0,0.0,0.0,0.0,0.0,0.0,0.0,0.0,0.0,0.0,0.0,0.0,0.0,0.0,0.0,0.0,0.0,0.0,0.0,0.0,0.0,0.0,0.0,0.0,0.0,0.0,0.0,0.0,0.0,0.0,0.0,0.0,0.0,0.0,0.0,0.0,0.0,0.0,0.0,0.0,0.0,0.0,0.0,0.0,0.0,0.0,0.0,0.0,0.0,0.0,0.0,0.0,0.0,0.0,0.0,0.0,0.0,0.0,0.0,0.0,0.0,0.0,0.0,0.0,0.0,0.0,0.0,0.0,0.0,0.0,0.0,0.0,0.0,0.0,0.0,0.0,0.0,-3.3194,-3.1581,0.0,0.0,0.0,0.0,0.0,0.0,0.0,0.0,0.0,0.0,0.0,0.0,0.0,0.0,0.0,0.0,0.0,0.0,0.0,0.0,0.0,0.0,0.0,0.0,0.0,0.0,0.0,0.0,0.0,0.0,0.0,0.0,0.0,0.0,0.0,0.0,0.0,0.0,0.0,0.0,0.0,0.0,0.0,-4.1216,0.0,0.0,0.0,0.0,0.0,0.0,0.0,0.0,0.0,0.0,0.0,0.0,0.0,0.0,0.0,0.0,0.0,0.0,0.0,0.0,0.0,0.0,0.0,0.0,0.0,0.0,0.0,0.0,0.0,0.0,0.0,0.0,0.0,0.0,0.0,0.0,0.0,0.0,0.0,0.0,0.0,0.0,0.0,0.0,0.0,0.0,0.0,0.0,0.0,0.0,0.0,0.0,0.0,0.0,0.0,0.0,0.0,0.0,0.0,0.0,0.0,0.0,0.0,0.0,-3.8147,-3.7592,-3.7715,-3.7272,-3.694,-3.6594,-3.4898,-3.3301,-3.1826,-3.0808,0.0,0.0,0.0,0.0,0.0,0.0,0.0,0.0,0.0,0.0,0.0,0.0,0.0,0.0,0.0,0.0,0.0,0.0,0.0,0.0,0.0,-2.153,-2.2555,-2.4,-2.4412,-2.4724,0.0,0.0,0.0,0.0,0.0,0.0,0.0,0.0,0.0,0.0,0.0,-3.8019,-3.9247,-4.0981,-4.1523,-4.101,-4.093,0.0,0.0,0.0,0.0,0.0,0.0,0.0,0.0,0.0,0.0,0.0,0.0,0.0,0.0,0.0,0.0,0.0,0.0,0.0,0.0,0.0,0.0,0.0,0.0,0.0,0.0,0.0,0.0,0.0,0.0,0.0,0.0,0.0,0.0,0.0,0.0,0.0,0.0,0.0,0.0,0.0,0.0,0.0,-2.864,-3.1469,0.0,0.0,0.0,0.0,0.0,0.0,0.0,0.0,0.0,0.0,0.0,0.0,0.0,-3.3999,-3.6163,-3.7595,-3.8597,-3.9169,-3.8614,-3.8484,-3.8691,-3.8358,-3.7721,-3.693,-3.6853,0.0,-3.4559,-3.3278,0.0,0.0,0.0,0.0,0.0,0.0,0.0,0.0,0.0,0.0,0.0,0.0,0.0,0.0,0.0,0.0,0.0,0.0,0.0,0.0,0.0,-2.276,-2.3987,-2.5204,-2.5835,-2.6133,-2.6,0.0,0.0,0.0,0.0,0.0,0.0,0.0,0.0,0.0,-3.6133,-3.8061,-3.8013,-3.9831,-4.017,-3.922,-3.9552,-3.9166,-3.8007,-3.3965,0.0,0.0,0.0,0.0,0.0,0.0,0.0,0.0,0.0,0.0,0.0,0.0,0.0,0.0,0.0,0.0,0.0,0.0,0.0,0.0,0.0,0.0,0.0,0.0,0.0,0.0,0.0,0.0,0.0,0.0,0.0,0.0,0.0,0.0,0.0,0.0,0.0,0.0,0.0,-2.9009,-3.269,-3.4546,-3.4271,-3.3657,0.0,0.0,0.0,0.0,0.0,0.0,0.0,0.0,0.0,-2.6709,-2.9996,-3.3081,-3.5929,-3.7102,-3.8202,-3.9277,-3.9429,-3.9677,-4.0046,-4.0317,-3.99,-3.8989,-3.9147,-3.8393,-3.6972,-3.5192,-3.3759,-3.2659,0.0,0.0,0.0,0.0,-3.478,-3.6466,0.0,0.0,0.0,0.0,0.0,0.0,0.0,0.0,0.0,0.0,0.0,0.0,-2.269,-2.3949,-2.5163,-2.6332,-2.6975,-2.7195,-2.6759,-2.6923,0.0,0.0,0.0,0.0,0.0,0.0,0.0,-3.2837,-3.5488,-3.6642,-3.6463,-3.7885,-3.8088,-3.7283,-3.7755,-3.8098,-3.8045,-3.3367,-2.8887,0.0,0.0,0.0,0.0,0.0,0.0,0.0,0.0,0.0,0.0,0.0,0.0,0.0,0.0,0.0,0.0,0.0,0.0,0.0,0.0,0.0,0.0,0.0,0.0,0.0,0.0,0.0,0.0,0.0,0.0,0.0,0.0,0.0,0.0,0.0,0.0,0.0,0.0,-3.3122,-3.5903,-3.7681,-3.7474,-3.6748,0.0,0.0,0.0,0.0,0.0,0.0,-2.2434,-2.3358,-2.5074,-2.7602,-2.9888,-3.2537,-3.563,-3.6859,-3.8234,-3.9781,-4.064,-4.128,-4.174,-4.2224,-4.2033,-4.1323,-4.1193,-4.0438,-3.9136,-3.7128,-3.5635,-3.4604,-3.4528,-3.3999,-3.3355,-3.4255,-3.5606,-3.7243,0.0,0.0,0.0,0.0,0.0,0.0,0.0,0.0,0.0,0.0,0.0,-2.2574,-2.4391,-2.4811,-2.5711,-2.7464,-2.7515,-2.7464,-2.7464,-2.7409,-2.724,0.0,0.0,0.0,0.0,0.0,0.0,-3.2424,-3.311,-3.3952,-3.4907,-3.5067,-3.5386,-3.5808,-3.5882,-3.6072,-3.6035,-3.2983,-2.8907,-2.4017,0.0,0.0,0.0,0.0,0.0,0.0,0.0,0.0,0.0,0.0,0.0,0.0,0.0,0.0,0.0,0.0,0.0,0.0,0.0,0.0,0.0,0.0,0.0,0.0,0.0,0.0,0.0,0.0,0.0,0.0,0.0,0.0,0.0,0.0,0.0,0.0,0.0,0.0,0.0,-4.1119,-4.0306,0.0,0.0,0.0,0.0,-2.9526,-2.7985,-2.6536,-2.5095,-2.5907,-2.6966,-2.8129,-3.0682,-3.2904,-3.4742,-3.7199,-3.924,-4.0837,-4.2354,-4.3351,-4.3924,-4.3764,-4.365,-4.3493,-4.2673,-4.1889,-4.1028,-3.9395,-3.7313,-3.5165,-3.5283,-3.476,-3.3973,-3.4153,-3.5259,-3.6872,0.0,0.0,0.0,0.0,0.0,0.0,0.0,0.0,0.0,-2.256,-2.3364,-2.4075,-2.4736,-2.6091,-2.7161,-2.7795,-2.8125,-2.7844,-2.6852,-2.6886,-2.6596,0.0,0.0,0.0,0.0,0.0,-3.1044,-3.1582,-3.1929,-3.236,-3.2866,-3.2538,-3.2044,-3.1444,-3.2604,-3.1675,-2.9385,-3.1155,-2.7176,-1.9558,-1.7553,-1.3402,0.0,0.0,0.0,0.0,0.0,0.0,0.0,0.0,0.0,0.0,0.0,0.0,0.0,0.0,0.0,0.0,0.0,0.0,0.0,0.0,0.0,0.0,0.0,0.0,0.0,0.0,0.0,0.0,0.0,0.0,0.0,0.0,0.0,0.0,0.0,0.0,0.0,-4.3025,-4.2626,0.0,-4.11,-3.8277,-3.5358,-3.2601,-3.0807,-2.9235,-2.779,-2.7616,-2.827,-2.9824,-3.1872,-3.4012,-3.6284,-3.8872,-4.0695,-4.1751,-4.3901,-4.4964,-4.5068,-4.5477,-4.5297,-4.4611,-4.3688,-4.2569,-4.1319,-4.0788,-3.9429,-3.7597,-3.6622,-3.6034,-3.568,-3.522,-3.5705,-3.6677,0.0,0.0,0.0,0.0,0.0,0.0,0.0,0.0,0.0,-2.3765,-2.4578,-2.5215,-2.5561,-2.6863,-2.7809,-2.7925,-2.7992,-2.7511,-2.6347,-2.6176,-2.5798,0.0,-2.5875,0.0,0.0,-2.8133,-2.9088,-2.9683,-2.9094,-2.917,-2.9893,-2.8982,-2.8046,-2.7264,-2.9151,-2.7474,-2.3407,-2.6064,-2.301,-1.6292,-1.5966,-1.3243,-0.9147,0.0,0.0,0.0,0.0,0.0,0.0,0.0,0.0,0.0,0.0,0.0,0.0,0.0,0.0,0.0,0.0,0.0,0.0,0.0,0.0,0.0,0.0,0.0,0.0,0.0,0.0,0.0,0.0,0.0,0.0,0.0,0.0,0.0,0.0,-4.1501,-4.3899,-4.5174,-4.4769,-4.4015,-4.2916,-4.0378,-3.7822,-3.5401,-3.3458,-3.1886,-3.0783,-3.0136,-3.0492,-3.2029,-3.3514,-3.5505,-3.8043,-4.0647,-4.2461,-4.3539,-4.5739,-4.6679,-4.6463,-4.6646,-4.6338,-4.5598,-4.4652,-4.3316,-4.1815,-4.1855,-4.0903,-3.9275,-3.7986,-3.7127,-3.657,-3.5979,-3.5906,-3.6061,0.0,0.0,0.0,0.0,0.0,0.0,0.0,-2.3281,-2.4115,-2.4883,-2.5289,-2.5882,-2.6809,-2.7088,-2.7423,-2.7936,-2.7131,-2.6437,-2.5991,-2.535,-2.4936,0.0,0.0,0.0,-2.364,-2.5,-2.6109,-2.6774,-2.4582,-2.4342,-2.5953,-2.436,-2.3527,-2.3433,-2.5535,-2.3558,-1.8624,-1.7847,-1.6407,-1.4567,-1.3413,-1.1887,-1.0057,0.0,0.0,0.0,0.0,0.0,0.0,0.0,0.0,0.0,0.0,0.0,0.0,0.0,0.0,0.0,0.0,0.0,0.0,0.0,0.0,0.0,0.0,0.0,0.0,0.0,0.0,0.0,0.0,0.0,0.0,0.0,0.0,0.0,-4.1184,-4.3511,-4.5749,-4.7558,-4.6762,-4.569,-4.4751,-4.1988,-3.9549,-3.7808,-3.5866,-3.4548,-3.401,-3.3473,-3.3654,-3.4691,-3.5625,-3.7344,-3.9923,-4.2431,-4.4513,-4.6202,-4.7781,-4.841,-4.8172,-4.7259,-4.6704,-4.6424,-4.5494,-4.4135,-4.2574,-4.2552,-4.1542,-3.9884,-3.9201,-3.7967,-3.6495,-3.6317,-3.5751,-3.4996,0.0,0.0,0.0,0.0,0.0,0.0,0.0,-2.3824,-2.4459,-2.5789,-2.6091,-2.6589,-2.7557,-2.7883,-2.7946,-2.7859,-2.6997,-2.6163,-2.5481,-2.5232,-2.5247,0.0,0.0,0.0,-2.5472,-2.5118,-2.4741,-2.4367,-2.3696,-2.2817,-2.1781,-2.1657,-2.0117,-1.7476,-1.8715,-1.784,-1.5284,-1.2482,-1.1463,-1.177,-1.1914,-1.0977,-0.9517,0.0,0.0,0.0,0.0,0.0,0.0,0.0,0.0,0.0,0.0,0.0,0.0,0.0,0.0,0.0,0.0,0.0,0.0,0.0,0.0,0.0,0.0,0.0,0.0,0.0,0.0,0.0,0.0,0.0,0.0,0.0,-3.8305,-4.0997,-4.267,-4.5403,-4.7347,-4.77,-4.7826,-4.7241,-4.557,-4.348,-4.1393,-3.943,-3.7549,-3.629,-3.5806,-3.5188,-3.5601,-3.7297,-3.8268,-4.0272,-4.3479,-4.4816,-4.6305,-4.793,-4.8909,-4.8963,-4.8191,-4.7873,-4.7011,-4.5726,-4.4785,-4.3405,-4.1799,-4.1759,-4.0667,-3.8986,-3.8155,-3.7528,-3.6919,-3.5628,-3.4565,-3.3672,0.0,0.0,0.0,0.0,0.0,0.0,0.0,-2.4672,-2.5092,-2.6176,-2.6644,-2.7183,-2.7855,-2.8229,-2.8237,-2.7781,-2.6629,-2.5689,-2.5138,-2.4759,0.0,0.0,0.0,-2.5609,-2.507,-2.438,-2.3496,-2.245,-2.1577,-2.0324,-1.8749,-1.8246,-1.6689,-1.4369,-1.4078,-1.3326,-1.2145,-0.8851,-0.8161,-0.9277,-0.9517,-0.9449,-0.9236,-0.9837,-0.973,-0.9386,-1.0518,-1.1285,-1.186,-1.2542,0.0,0.0,0.0,0.0,0.0,0.0,0.0,0.0,0.0,0.0,0.0,0.0,0.0,0.0,0.0,0.0,0.0,0.0,0.0,0.0,0.0,0.0,0.0,0.0,-3.9138,-4.1963,-4.3548,-4.6426,-4.847,-4.8579,-4.8295,-4.7461,-4.5858,-4.3962,-4.2124,-4.0372,-3.878,-3.7927,-3.8079,-3.7486,-3.8179,-4.0468,-4.1081,-4.2867,-4.5958,-4.683,-4.7851,-4.9077,-4.9497,-4.9169,-4.8193,-4.7775,-4.6644,-4.4956,-4.4421,-4.3196,-4.1589,-4.1514,-4.0405,-3.8725,0.0,0.0,0.0,0.0,-3.362,-3.2377,0.0,0.0,0.0,0.0,0.0,0.0,0.0,-2.5599,-2.6039,-2.6391,-2.7188,-2.7792,-2.8026,-2.842,-2.8374,-2.7764,-2.6271,-2.5301,-2.5134,0.0,0.0,-2.4697,-2.533,-2.5022,-2.3578,-2.3122,-2.2205,-2.0773,-1.893,-1.7489,-1.639,-1.4666,-1.3482,-1.2695,-1.0879,-0.9763,-0.9083,-0.6535,-0.6066,-0.6988,-0.6705,-0.7559,-0.9041,-0.943,-1.0456,-1.1698,-1.1728,-1.2149,-1.2669,-1.2656,0.0,0.0,0.0,0.0,0.0,0.0,0.0,0.0,0.0,0.0,0.0,0.0,0.0,0.0,0.0,0.0,0.0,0.0,0.0,0.0,0.0,0.0,0.0,0.0,-3.9746,-4.2638,-4.3849,-4.6562,-4.8654,-4.9278,-4.8211,-4.6894,-4.5608,-4.3781,-4.2145,-4.0835,-3.9646,-3.9414,-4.043,-3.9981,0.0,0.0,0.0,-4.5131,-4.7757,-4.849,-4.9187,-4.9846,-4.9853,-4.9258,-4.8158,-4.7407,-4.6061,-4.4333,-4.422,-4.3242,-4.1711,-4.1529,-4.0386,-3.8709,-3.8414,-3.7194,-3.546,-3.4358,-3.287,-3.1393,0.0,0.0,0.0,0.0,0.0,0.0,0.0,-2.6561,-2.7073,-2.8349,-2.8407,-2.8511,-2.9021,-2.8812,-2.8492,-2.8348,-2.7155,-2.6274,0.0,0.0,-2.6178,-2.7175,-2.538,-2.4211,-2.3836,-2.2098,-2.0358,-1.8693,-1.7601,-1.5838,-1.3495,-1.2825,-1.122,-0.8931,-0.7944,-0.6895,-0.5794,-0.4924,-0.4591,-0.4659,-0.4711,-0.6155,-0.8388,-0.9206,-0.9898,-1.0542,-1.1239,-1.1702,-1.2078,-1.2715,-1.3095,-1.3435,-1.4033,0.0,0.0,0.0,0.0,0.0,0.0,0.0,0.0,0.0,0.0,0.0,0.0,0.0,0.0,0.0,0.0,0.0,0.0,0.0,0.0,-3.726,-3.9878,-4.2047,-4.3431,-4.5028,-4.6197,-4.6522,-4.7058,-4.656,-4.4461,-4.3594,-4.258,-4.1135,-4.0385,-4.0473,-4.1528,-4.1531,-4.2765,-4.5518,-4.5606,-4.6872,-4.9492,-4.9614,-5.0022,-5.0748,-5.0677,0.0,-4.8197,-4.8043,-4.667,-4.4418,-4.3732,-4.2815,-4.1797,-4.1027,-3.954,-3.768,-3.6732,-3.5558,-3.4297,-3.3257,-3.2429,-3.1686,0.0,0.0,0.0,0.0,0.0,0.0,0.0,-2.7572,-2.7962,-2.8504,-2.8676,-2.8975,-2.9555,-2.9149,-2.8862,-2.8999,-2.8157,-2.7398,0.0,-2.6745,-2.674,-2.6899,-2.5061,-2.4019,-2.3893,-2.1668,-1.9722,-1.8117,-1.6316,-1.4231,-1.1875,-1.0519,-0.8841,-0.6894,-0.5761,-0.4577,-0.3432,-0.31,-0.2939,-0.2913,-0.3225,-0.4275,-0.582,-0.7474,-0.8462,-0.91,-1.0199,-1.0753,-1.1041,-1.1615,-1.2124,-1.2641,-1.3144,-1.3674,-1.4271,0.0,0.0,0.0,0.0,0.0,0.0,0.0,0.0,0.0,0.0,0.0,0.0,0.0,0.0,-2.8273,-3.0015,0.0,-3.4676,-3.7069,-3.9473,-4.1388,-4.2412,-4.3425,-4.4301,-4.5034,-4.5587,-4.5163,-4.3313,-4.2659,-4.1884,-4.0845,-4.0584,-4.1104,-4.2531,-4.2664,-4.3957,-4.6649,-4.6784,-4.7832,-4.9976,-4.9929,-5.025,-5.0956,-5.0913,-5.0207,-4.8883,-4.8458,-4.7121,-4.5095,-4.4269,-4.3139,-4.1764,-3.9915,-3.8492,-3.7298,-3.5781,-3.4736,-3.3943,-3.3168,-3.243,-3.163,0.0,0.0,0.0,0.0,0.0,0.0,0.0,0.0,-2.9168,-2.887,-2.9185,-2.9559,-3.0083,-2.9675,-2.9523,-2.9767,-2.9152,0.0,0.0,-2.7367,-2.6936,-2.6166,-2.5029,-2.4195,-2.3706,-2.1574,-1.9583,-1.7749,-1.5305,-1.2935,-1.0693,-0.8535,-0.6823,-0.5462,-0.3915,-0.2594,-0.1504,-0.1078,-0.0947,-0.105,-0.1466,-0.2014,-0.2775,-0.4872,-0.6413,-0.761,-0.8931,-0.9529,-0.9728,-1.0238,-1.0853,-1.1515,-1.2075,-1.2625,-1.3292,-1.4322,-1.4788,0.0,0.0,0.0,0.0,0.0,0.0,0.0,0.0,0.0,-2.5465,-2.6403,-2.747,-2.8778,-3.048,-3.2704,-3.487,-3.6654,-3.8938,-4.0613,-4.0906,-4.174,-4.2526,-4.3118,-4.3731,-4.361,-4.2364,-4.1781,-4.1212,-4.0526,-4.081,-4.1672,-4.3255,-4.3559,-4.4826,-4.7332,-4.745,-4.8215,-4.9724,-4.9838,-5.0144,-5.0674,-5.0819,-5.0359,-4.9319,-4.8604,-4.738,-4.5728,-4.4901,-4.3511,-4.1647,-3.9243,-3.8003,-3.7427,-3.5553,-3.454,-3.4115,-3.3481,-3.2594,-3.1668,0.0,0.0,0.0,0.0,0.0,0.0,0.0,0.0,0.0,-3.1612,-3.1108,-3.0889,-3.1461,-3.1057,-3.0811,-3.0856,0.0,0.0,-2.7354,-2.7727,-2.7705,-2.6978,-2.6102,-2.4771,-2.2972,-2.1709,-1.9588,-1.6509,-1.4829,-1.2473,-0.9463,-0.7726,-0.5808,-0.3809,-0.2195,-0.0881,0.0191,0.1169,0.1658,0.1723,0.1491,0.074,-0.0379,-0.1477,-0.37,-0.6369,-0.7599,-0.803,-0.8242,-0.9418,-0.9943,-1.0253,-1.1071,-1.1684,-1.2227,-1.309,0.0,-1.5277,-1.626,-1.8001,-1.9788,-2.0805,-2.1799,-2.274,0.0,0.0,-2.5465,-2.6421,-2.8005,-2.9762,-3.1504,-3.3695,-3.565,-3.6879,-3.8574,-3.9488,-3.876,-3.998,-4.0422,-3.9063,-4.1312,-4.2642,-4.1777,-4.1782,-4.1532,-4.0818,-4.1558,-4.2477,-4.3506,-4.426,-4.5487,-4.7338,-4.7402,-4.7865,-4.884,-4.9498,-4.9821,-4.9842,-5.0549,-5.0033,-4.8436,-4.834,-4.7356,-4.5658,-4.4723,-4.3313,-4.1545,-4.0385,-3.9337,-3.8272,-3.6269,-3.5206,-3.4696,-3.3662,-3.2822,-3.2195,0.0,0.0,0.0,0.0,0.0,0.0,0.0,0.0,0.0,0.0,-3.181,-3.1738,-3.1922,-3.1591,-3.1198,0.0,0.0,0.0,-2.7781,-2.7783,-2.7573,-2.7132,-2.5882,-2.4788,-2.3849,-2.2294,-2.0034,-1.6987,-1.5256,-1.2715,-0.9368,-0.7304,-0.5208,-0.3101,-0.1062,0.0556,0.1818,0.313,0.3761,0.3906,0.4134,0.3441,0.227,0.1924,-0.0,-0.2866,-0.5635,-0.6796,0.0,0.0,-0.8845,-0.9373,-1.0152,-1.0841,-1.1545,-1.2378,-1.3478,0.0,-1.6372,-1.7902,-1.9434,-2.0654,-2.1799,-2.2931,-2.4132,-2.4945,-2.584,-2.7097,-2.8558,-3.0136,-3.1808,-3.3537,-3.5232,-3.68,-3.8096,-3.8762,-3.8358,-3.9325,-3.9605,-3.8349,-3.9797,-4.0766,-4.0461,-4.0974,-4.1206,-4.0941,-4.1746,-4.2646,-4.3541,-4.4406,-4.5419,-4.666,-4.6655,-4.7047,-4.7873,-4.8623,-4.9204,-4.9656,-5.0424,-5.0426,-4.9712,-4.8603,-4.7163,-4.5491,-4.4573,-4.3714,-4.2794,-4.0862,-3.9726,-3.8931,-3.6446,-3.5232,-3.4767,-3.3569,-3.2766,-3.2179,0.0,0.0,0.0,0.0,0.0,0.0,0.0,0.0,0.0,0.0,0.0,-3.244,-3.2162,-3.1639,-3.1148,0.0,0.0,0.0,0.0,-2.8033,-2.7617,-2.7194,-2.6143,-2.5306,-2.4701,-2.3079,-2.0842,-1.7996,-1.5771,-1.2968,-0.9667,-0.715,-0.4758,-0.2472,-0.0017,0.1883,0.3394,0.5134,0.5978,0.6231,0.6859,0.6395,0.5271,0.4808,0.3126,0.0588,-0.3334,-0.5269,0.0,0.0,-0.8039,-0.882,-0.9519,-1.0343,-1.1151,-1.1982,-1.3308,-1.4861,-1.6675,-1.796,-1.9183,-2.0677,-2.1985,-2.3223,-2.4532,-2.5368,-2.6253,-2.7503,-2.9076,-3.0618,-3.1977,-3.3455,-3.4948,-3.6367,-3.7331,-3.7826,-3.7552,-3.8252,-3.8479,-3.7555,-3.8411,-3.9105,-3.918,-4.0012,-4.0572,-4.0638,-4.1673,-4.2672,-4.3555,-4.4647,-4.5516,-4.6128,-4.6293,-4.663,-4.7175,-4.8183,-4.8848,-4.9208,-4.995,-5.0105,-4.9603,-4.7972,-4.655,-4.5322,-4.4648,-4.4124,-4.3615,-4.1472,-4.0283,-3.9546,-3.6782,-3.5495,-3.502,-3.3741,-3.2864,-3.2144,0.0,0.0,0.0,0.0,0.0,0.0,0.0,0.0,0.0,0.0,0.0,0.0,0.0,0.0,0.0,0.0,0.0,0.0,0.0,-2.8663,-2.7998,-2.7423,-2.7486,-2.6698,-2.5013,-2.4094,-2.2196,-1.9251,-1.6128,-1.3115,-1.0207,-0.7273,-0.4419,-0.1616,0.1059,0.3177,0.4891,0.728,0.8519,0.8973,0.9821,0.9664,0.875,0.683,0.5195,0.3347,-0.0583,0.0,0.0,0.0,-0.7592,-0.8528,-0.9342,-1.0251,0.0,-1.1839,-1.3764,0.0,0.0,0.0,-1.9658,-2.0881,-2.227,-2.3472,-2.4177,-2.5433,-2.6652,-2.7303,-2.9467,-3.1477,-3.2166,-3.3868,-3.5254,-3.5502,-3.6164,-3.6389,-3.5678,-3.6287,-3.6488,-3.5679,-3.7045,-3.8061,-3.8147,-3.9051,-3.9671,-3.9727,-4.1322,-4.2682,-4.3556,-4.5163,-4.606,-4.6017,-4.6704,-4.701,-4.6896,-4.8542,-4.8969,-4.8163,-4.8971,-4.8452,-4.6781,-4.5776,-4.5271,-4.5192,-4.5042,-4.4407,-4.3453,-4.2442,-4.1365,-4.0114,-3.7488,-3.6221,-3.5726,-3.444,-3.3259,-3.2144,0.0,0.0,0.0,0.0,0.0,0.0,0.0,0.0,0.0,0.0,0.0,0.0,0.0,0.0,0.0,0.0,0.0,0.0,0.0,-2.9125,-2.8613,-2.8355,-2.7986,-2.7273,-2.6157,-2.5185,-2.3307,-2.0473,-1.8358,-1.5448,-1.1822,-0.8644,-0.5609,-0.2681,0.0529,0.3376,0.5888,0.8296,0.9537,1.0053,1.2256,1.2842,1.2184,1.0049,0.772,0.5082,0.0,0.0,0.0,0.0,0.0,0.0,-0.9415,0.0,0.0,-1.4103,0.0,0.0,0.0,0.0,-2.0181,-2.1334,-2.2311,-2.3343,-2.46,-2.5614,-2.6636,-2.7816,-2.9457,-3.0816,-3.141,-3.302,-3.4296,-3.4419,-3.5534,-3.6112,-3.5266,-3.591,-3.6332,-3.5994,-3.7049,-3.7839,-3.7892,-3.9362,-4.0346,-4.0354,-4.2064,-4.3201,-4.344,-4.5062,-4.5929,-4.5873,-4.5984,-4.5995,-4.5913,-4.7511,-4.818,-4.791,-4.9242,-4.8961,-4.7228,-4.6872,-4.6079,-4.4919,-4.4821,-4.4523,-4.3979,-4.2454,-4.1483,-4.0737,-3.8015,-3.6462,-3.5571,-3.4311,-3.3176,-3.2127,0.0,0.0,0.0,0.0,0.0,0.0,0.0,0.0,0.0,0.0,0.0,0.0,0.0,0.0,0.0,0.0,0.0,0.0,0.0,0.0,-2.8912,-2.89,-2.8329,-2.7671,-2.6914,-2.5942,-2.4254,-2.189,-1.994,-1.7195,-1.3715,-1.02,-0.6881,-0.3702,-0.0115,0.3186,0.6203,0.8349,1.0322,1.226,1.4892,1.5478,1.4516,1.2289,0.9321,0.0,0.0,0.0,0.0,0.0,0.0,0.0,0.0,0.0,0.0,0.0,0.0,0.0,0.0,-2.0054,-2.0818,-2.167,-2.2715,-2.3733,-2.4852,-2.5951,-2.6978,-2.8002,-2.9337,-3.0516,-3.1223,-3.2543,-3.3544,-3.3672,-3.4756,-3.5305,-3.451,-3.5097,-3.5609,-3.5627,-3.6749,-3.7583,-3.7728,-3.9441,-4.0591,-4.0665,-4.208,-4.3169,-4.3738,-4.5034,-4.5728,-4.5661,-4.5799,-4.5841,-4.5783,-4.7425,-4.8242,-4.8242,-4.8953,-4.849,-4.7036,-4.7011,-4.6177,-4.4764,-4.464,-4.4327,-4.3735,-4.2169,-4.1188,-4.0459,-3.805,-3.6467,-3.5415,-3.4497,-3.3319,-3.2109,0.0,0.0,0.0,0.0,0.0,0.0,0.0,0.0,0.0,0.0,0.0,0.0,0.0,0.0,0.0,0.0,0.0,0.0,0.0,0.0,0.0,-2.9095,-2.8612,-2.8,-2.7255,-2.6439,-2.5211,-2.3517,-2.1033,-1.8501,-1.5987,-1.2043,-0.8314,-0.4786,-0.1022,0.2526,0.5779,0.7502,1.0922,1.5349,1.7517,1.7352,1.5539,1.342,0.0,0.0,0.0,0.0,0.0,0.0,0.0,0.0,0.0,0.0,0.0,0.0,0.0,-1.9223,-1.9925,-2.0756,-2.1609,-2.2081,-2.3387,-2.4563,-2.4869,-2.6327,-2.7652,-2.7922,-2.921,-3.0594,0.0,0.0,-3.3,-3.3227,-3.3811,-3.4027,-3.3414,-3.3986,-3.4502,0.0,0.0,0.0,-3.7681,-3.9336,-4.0471,-4.068,-4.1489,-4.2666,-4.4295,-4.5081,-4.5455,-4.54,-4.6124,-4.6498,-4.6488,-4.817,-4.9029,-4.9044,-4.8153,-4.7238,-4.6316,-4.6202,-4.5632,-4.4742,-4.4487,-4.381,-4.2805,-4.1656,-4.0561,-3.9422,-3.7697,-3.6345,-3.5341,-3.4942,-3.367,-3.2039,0.0,0.0,0.0,0.0,0.0,0.0,0.0,0.0,0.0,0.0,0.0,0.0,0.0,0.0,0.0,0.0,0.0,0.0,0.0,0.0,0.0,0.0,0.0,0.0,0.0,0.0,0.0,-2.6518,-2.4633,-2.2305,-1.95,-1.5906,-1.2081,-0.8113,-0.4293,-0.0203,0.4017,0.6403,1.0729,1.6132,0.0,1.6519,1.366,0.0,0.0,0.0,0.0,0.0,0.0,0.0,0.0,0.0,0.0,-1.6037,-1.7625,0.0,0.0,-2.0912,-2.2205,-2.2465,-2.2543,-2.326,-2.3982,-2.4708,-2.5529,-2.6573,-2.7701,-2.8795,-2.9554,-3.0326,0.0,0.0,0.0,-3.2728,-3.3115,0.0,-3.3777,-3.4538,0.0,-3.6081,0.0,-3.83,-3.9212,-4.0463,-4.1456,-4.2105,-4.2518,-4.3148,-4.4131,-4.4921,-4.5342,-4.5322,-4.6084,-4.65,-4.65,-4.8174,-4.9267,-4.9828,-4.9524,-4.889,-4.7961,-4.7238,-4.6382,-4.5416,-4.4549,-4.3534,-4.2451,-4.1368,-4.0263,-3.9171,-3.797,-3.6609,-3.5273,-3.4925,-3.367,-3.2038,0.0,0.0,0.0,0.0,0.0,0.0,0.0,0.0,0.0,0.0,0.0,0.0,0.0,0.0,0.0,0.0,0.0,0.0,0.0,0.0,0.0,0.0,0.0,0.0,0.0,0.0,0.0,0.0,0.0,0.0,-2.1842,-1.8462,-1.4661,-1.0541,-0.6873,-0.272,0.1718,0.4435,0.0,0.0,0.0,0.0,0.0,0.0,0.0,0.0,0.0,0.0,0.0,0.0,0.0,-1.5526,-1.6782,-1.8165,-1.9603,-2.1292,0.0,-2.2782,-2.3764,-2.3954,-2.3984,-2.4656,-2.5177,-2.5834,-2.6879,-2.7793,-2.8658,-2.9503,-2.9958,-3.0514,-3.132,-3.1547,-3.18,0.0,0.0,0.0,-3.3412,-3.4452,-3.5428,0.0,-3.7229,0.0,-3.9116,-4.049,-4.1679,-4.2517,-4.31,-4.3771,-4.4496,-4.4972,-4.5392,-4.5818,-4.6296,-4.6908,-4.7676,-4.8586,-4.9415,-5.0182,-5.0057,-4.9299,-4.7956,-4.7307,-4.6279,-4.4942,-4.4203,-4.3079,-4.1746,-4.104,-3.9928,-3.8527,-3.763,-3.6398,-3.5118,-3.4535,-3.3336,-3.1949,0.0,0.0,0.0,0.0,0.0,0.0,0.0,0.0,0.0,0.0,0.0,0.0,0.0,0.0,0.0,0.0,0.0,0.0,0.0,0.0,0.0,0.0,0.0,0.0,0.0,0.0,0.0,0.0,0.0,0.0,0.0,0.0,0.0,0.0,0.0,0.0,0.0,0.0,0.0,0.0,0.0,0.0,0.0,0.0,0.0,0.0,0.0,0.0,0.0,0.0,-1.6869,-1.7101,-1.8314,-1.9893,-2.1537,-2.2874,-2.396,-2.4737,-2.4984,-2.531,-2.5695,-2.6204,-2.6763,-2.7474,-2.8561,-2.9472,-3.0109,-3.039,-3.0792,-3.1285,-3.1898,-3.2076,-3.2254,-3.2596,0.0,-3.356,-3.3051,-3.4283,-3.522,-3.5302,-3.6841,-3.8048,-3.8375,-4.0113,-4.1567,-4.2437,-4.3574,-4.4481,-4.5042,-4.5198,-4.5707,-4.6679,-4.6779,-4.7643,-4.9372,-4.9307,-4.9545,-5.0107,-4.9911,-4.8886,-4.7155,-4.6776,-4.5754,-4.4197,-4.3767,-4.2577,-4.1009,-4.0739,-3.9534,-3.7792,-3.6949,-3.5988,-3.4872,-3.3864,-3.2792,-3.1598,0.0,0.0,0.0,0.0,0.0,0.0,0.0,0.0,0.0,0.0,-3.2265,-3.2426,0.0,0.0,0.0,0.0,0.0,0.0,0.0,0.0,0.0,0.0,0.0,0.0,0.0,0.0,-2.9861,-3.017,-2.9065,0.0,0.0,0.0,0.0,0.0,0.0,0.0,0.0,0.0,0.0,0.0,0.0,0.0,0.0,0.0,0.0,0.0,0.0,0.0,0.0,0.0,-1.8639,-1.9109,-2.0072,-2.1787,-2.3607,-2.4391,-2.5394,-2.6315,-2.6854,-2.7008,-2.7201,-2.7904,-2.8414,-2.9017,-3.0142,-3.0646,0.0,0.0,-3.2967,-3.3335,-3.4111,-3.3826,-3.3797,-3.4771,-3.4117,-3.3712,-3.4345,-3.5239,-3.5853,0.0,-3.7422,-3.8604,-3.8914,-4.0648,-4.2119,-4.2991,-4.4511,-4.5285,-4.4957,-4.5622,-4.6593,-4.7874,-4.7912,-4.8702,-5.0336,-5.0229,-4.9824,-4.9148,-4.8998,-4.821,-4.6821,-4.6076,-4.5395,-4.4776,-4.3771,-4.2318,-4.0598,-4.042,-3.9283,-3.7596,-3.6702,-3.583,-3.4888,-3.323,-3.1917,-3.0872,0.0,0.0,0.0,0.0,0.0,0.0,0.0,-3.0723,-3.1134,-3.0786,-3.1355,-3.1586,-3.1339,-3.0984,-3.0437,0.0,0.0,0.0,0.0,0.0,0.0,0.0,0.0,0.0,0.0,-2.9071,-2.9653,-2.9708,0.0,-2.6389,-2.3778,-2.1135,-1.7884,-1.4205,-1.1813,-0.9136,0.0,0.0,0.0,0.0,0.1562,0.0,0.0,0.0,0.0,0.0,0.0,0.0,0.0,0.0,-2.1368,-2.2052,-2.2227,-2.3372,-2.4867,-2.5752,-2.6638,-2.7432,-2.7813,-2.8094,-2.8616,-2.9727,-3.0224,-3.0808,-3.2199,0.0,0.0,0.0,-3.3925,-3.4195,-3.4544,-3.4427,0.0,-3.5236,-3.4792,-3.4555,-3.5175,-3.5901,-3.6377,-3.6458,-3.7571,-3.846,-3.8766,-4.0492,-4.1967,-4.2911,-4.4969,-4.6157,-4.6112,-4.6725,-4.7451,-4.8232,-4.8214,-4.8527,-4.924,-4.9075,-4.87,-4.8131,-4.7878,-4.7126,-4.5923,-4.4984,-4.4165,-4.3369,-4.2302,-4.107,-3.9752,-3.9625,-3.8508,-3.6827,-3.5954,-3.4836,-3.3528,-3.2229,-3.1028,-3.0007,0.0,0.0,0.0,0.0,0.0,0.0,0.0,-2.9738,-3.0226,-2.981,-3.0073,-3.0431,-3.0499,-3.0226,-2.9939,0.0,0.0,0.0,0.0,0.0,0.0,0.0,0.0,0.0,0.0,0.0,0.0,-2.8466,-2.6693,0.0,0.0,0.0,0.0,0.0,-1.222,-1.032,-0.8259,-0.6347,0.0,0.0,0.0,-0.2396,0.0,0.0,0.0,0.0,0.0,0.0,0.0,0.0,-2.3899,-2.5115,-2.4901,-2.5328,-2.6173,-2.7019,-2.7883,-2.8599,-2.8698,-2.9258,-3.0125,-3.1436,-3.207,-3.274,-3.4125,-3.4714,0.0,-3.4846,-3.5201,-3.537,-3.5136,-3.5413,-3.5661,0.0,-3.5563,-3.5631,-3.5756,-3.6245,-3.6606,0.0,-3.7462,0.0,-3.8396,-4.0147,-4.1656,-4.2631,-4.5294,-4.6993,-4.7183,-4.7438,-4.7722,-4.7962,-4.7908,-4.7895,-4.7952,-4.7742,-4.7338,-4.6751,-4.6412,-4.5592,-4.4262,-4.3443,-4.2548,-4.1595,-4.0528,-3.9572,-3.8671,-3.8382,-3.7343,-3.5882,-3.4995,-3.3723,-3.2282,-3.1217,-3.0177,-2.9178,0.0,0.0,0.0,0.0,0.0,0.0,0.0,-2.8735,-2.8831,-2.85,-2.8742,-2.8858,-2.8572,-2.8941,-2.9201,0.0,0.0,0.0,0.0,0.0,0.0,0.0,0.0,0.0,0.0,0.0,0.0,-2.6731,-2.4532,0.0,0.0,0.0,0.0,0.0,0.0,-1.083,-0.8989,-0.7451,0.0,0.0,0.0,0.0,0.0,0.0,0.0,0.0,0.0,0.0,0.0,0.0,0.0,-2.7586,-2.8116,-2.8217,-2.8161,-2.8411,0.0,0.0,-3.0195,-3.0986,-3.1985,-3.2748,-3.3752,-3.4708,-3.5475,0.0,-3.6851,-3.7203,-3.7957,-3.832,-3.748,-3.7957,-3.8143,-3.7027,0.0,-3.6594,-3.6221,-3.6167,-3.622,-3.6399,0.0,0.0,-3.8101,-3.9874,-4.1405,-4.2378,-4.5802,-4.7665,-4.7216,-4.6839,-4.672,-4.6931,-4.6877,-4.7163,-4.7824,-4.7552,-4.6497,-4.4665,-4.4386,-4.3212,-4.1299,-4.1076,-4.0798,-4.0382,-3.926,-3.8287,-3.739,-3.6531,-3.5643,-3.4761,-3.3897,-3.3073,-3.2212,-3.0538,-2.9393,-2.8578,0.0,0.0,0.0,0.0,0.0,0.0,-2.689,-2.7453,-2.7708,-2.7126,-2.7239,-2.7408,-2.7522,-2.7273,-2.7463,-2.8303,0.0,0.0,0.0,0.0,0.0,0.0,0.0,0.0,0.0,0.0,-2.519,-2.4332,-2.2231,0.0,0.0,0.0,0.0,0.0,0.0,-1.1614,-1.0309,-0.939,0.0,0.0,0.0,0.0,0.0,0.0,0.0,0.0,0.0,0.0,-2.438,0.0,0.0,0.0,-3.0873,-3.1872,0.0,0.0,-3.1072,-3.185,-3.1997,-3.2868,-3.4042,-3.5157,-3.6297,-3.7281,-3.7901,0.0,-3.8362,-3.8339,-3.8625,-3.879,-3.8391,-3.8226,-3.7999,-3.7673,0.0,0.0,-3.6664,-3.6591,-3.6591,-3.6801,-3.7271,-3.79,-3.8686,-4.0117,-4.1842,-4.3859,-4.5937,-4.6844,-4.6271,-4.6803,-4.6975,-4.6685,-4.6068,-4.5846,-4.605,-4.5275,-4.4336,-4.3308,-4.2501,-4.1592,-4.0562,-3.9914,-3.9462,-3.9162,-3.8135,-3.7129,-3.6176,-3.5819,-3.4903,-3.3713,-3.3399,-3.2616,-3.1531,-3.0835,-2.9837,-2.8784,0.0,0.0,0.0,0.0,0.0,-2.5915,-2.5602,-2.6073,-2.6319,-2.5812,-2.5768,-2.5855,-2.6073,-2.5678,-2.5719,-2.6495,-2.6662,0.0,0.0,0.0,0.0,0.0,0.0,0.0,0.0,0.0,-2.3306,-2.2128,-2.0269,-1.8543,0.0,0.0,-1.4367,-1.377,0.0,0.0,0.0,0.0,0.0,0.0,0.0,0.0,0.0,0.0,0.0,0.0,0.0,0.0,0.0,0.0,0.0,0.0,0.0,0.0,0.0,0.0,-3.3372,-3.4253,-3.4127,-3.4944,-3.6096,-3.7061,-3.816,-3.9171,0.0,0.0,-4.0024,-3.9894,-3.9857,-3.9787,-3.9472,-3.897,-3.8425,0.0,0.0,-3.7005,-3.6841,-3.669,-3.669,-3.6913,0.0,-3.7899,-3.8996,-4.0466,-4.2316,-4.4554,-4.556,-4.5783,-4.5163,-4.6214,-4.6588,-4.6008,-4.5308,-4.4749,-4.4297,-4.3436,-4.2563,-4.1686,-4.0811,-4.0073,-3.9481,-3.8704,-3.8191,-3.7844,-3.6745,-3.5797,-3.504,-3.4627,-3.3911,-3.3147,-3.3241,-3.2703,-3.188,-3.1897,-3.0961,-2.9739,0.0,0.0,0.0,0.0,0.0,0.0,-2.4861,-2.468,-2.4498,-2.4498,-2.4358,-2.4108,-2.3981,-2.4101,-2.4108,-2.3971,-2.533,0.0,0.0,0.0,0.0,0.0,0.0,0.0,0.0,0.0,-2.1518,-2.0342,-1.8696,-1.7366,-1.6298,-1.5117,-1.445,-1.4194,0.0,0.0,0.0,0.0,0.0,0.0,0.0,0.0,0.0,0.0,0.0,0.0,0.0,0.0,0.0,0.0,0.0,0.0,0.0,0.0,0.0,0.0,-3.6119,-3.7296,-3.6643,-3.7317,-3.8139,-3.8105,-3.8952,-3.9966,0.0,0.0,-4.1956,-4.2294,-4.2358,-4.2037,-4.1039,-4.0853,-4.0112,-3.7853,-3.7988,0.0,-3.6508,-3.6251,-3.6293,0.0,-3.6935,-3.764,-3.8778,-4.0975,-4.2702,-4.3734,-4.4576,-4.4716,-4.4061,-4.4861,-4.5081,-4.453,-4.4568,-4.4055,-4.2938,-4.2662,-4.1535,-3.9619,-3.9263,-3.8546,-3.741,-3.7143,-3.6851,-3.6545,-3.4914,-3.4194,-3.4012,-3.2533,-3.2453,-3.3223,-3.3405,-3.3565,-3.367,-3.3739,-3.2847,-3.1546,0.0,0.0,0.0,0.0,0.0,0.0,0.0,-2.3448,-2.356,-2.356,-2.3484,-2.3434,-2.3381,-2.3318,-2.3158,-2.2998,-2.395,0.0,0.0,0.0,0.0,0.0,0.0,0.0,0.0,-2.0526,-1.9846,-1.8687,-1.7726,-1.6716,-1.5746,-1.5528,-1.5305,-1.5118,-1.539,-1.5401,0.0,0.0,0.0,0.0,0.0,0.0,-1.9024,0.0,0.0,0.0,0.0,0.0,0.0,0.0,0.0,0.0,0.0,0.0,0.0,0.0,0.0,0.0,-4.0393,-4.1244,-4.2204,-4.262,-4.3253,-4.374,-4.3899,0.0,-4.3328,-4.3058,-4.2549,-4.1971,-4.1454,-4.0563,-3.9731,-3.9219,-3.8336,0.0,0.0,0.0,0.0,-3.7717,-3.9348,-4.0619,-4.1105,-4.2212,-4.3083,-4.3408,-4.3699,-4.3805,-4.3667,-4.3387,-4.333,-4.3465,-4.3834,-4.3311,-4.1816,-4.1503,-4.0641,-3.9245,-3.8366,-3.7642,-3.7126,-3.6811,-3.6568,-3.635,-3.5717,-3.4926,-3.4042,-3.4177,-3.392,-3.3565,-3.4305,-3.4658,-3.4727,-3.471,-3.3732,-3.2471,0.0,0.0,0.0,0.0,0.0,0.0,0.0,-2.2236,-2.2342,-2.257,-2.2562,-2.2457,-2.237,-2.2371,-2.2169,-2.1749,-2.232,0.0,0.0,0.0,0.0,0.0,0.0,0.0,-1.9983,-1.9603,-1.8827,-1.7725,-1.713,-1.6441,-1.5553,-1.5598,-1.5721,-1.5852,-1.6189,-1.6435,0.0,0.0,0.0,0.0,0.0,0.0,-2.0735,0.0,0.0,0.0,0.0,0.0,0.0,0.0,0.0,0.0,0.0,0.0,0.0,0.0,-4.3474,0.0,0.0,-4.3866,-4.4694,-4.5057,-4.5418,0.0,0.0,0.0,0.0,-4.4177,-4.3388,-4.2618,-4.2125,-4.1049,-4.0072,-3.9679,-3.8545,0.0,0.0,0.0,0.0,-3.8907,-4.0652,-4.1833,-4.2047,-4.2632,-4.3032,-4.3087,-4.2995,-4.2868,-4.2632,-4.2123,-4.1734,-4.1456,-4.2198,-4.1897,-4.0412,-4.0161,-3.9517,-3.8528,-3.768,-3.7167,-3.6913,-3.6609,-3.6402,-3.6156,-3.5839,-3.5253,0.0,-3.5,-3.5008,-3.4799,-3.5453,-3.5863,-3.6096,-3.5936,-3.5031,-3.3847,0.0,0.0,0.0,0.0,0.0,0.0,0.0,-2.0996,-2.0976,-2.1496,-2.1443,-2.1281,-2.1021,-2.1368,-2.1277,-2.0464,0.0,0.0,0.0,0.0,0.0,0.0,0.0,0.0,-1.9679,-1.9225,-1.8517,-1.7409,-1.7156,-1.6618,-1.5909,-1.5873,-1.6104,-1.655,-1.675,-1.7041,-1.7507,-1.8229,-1.8666,-1.9028,-2.0014,-2.1068,0.0,0.0,0.0,0.0,0.0,0.0,0.0,0.0,0.0,0.0,0.0,0.0,0.0,0.0,0.0,0.0,0.0,0.0,-4.5971,-4.5872,-4.5979,-4.6114,0.0,0.0,0.0,0.0,0.0,-4.3734,-4.2843,-4.1972,-4.0898,-3.937,-3.8564,0.0,0.0,-3.7629,0.0,-4.0127,-4.0957,-4.1538,-4.1814,-4.2228,-4.2492,-4.2454,-4.2297,-4.1837,-4.1106,-4.0881,-4.0203,-3.8903,-3.9805,-3.9859,-3.8833,-3.8793,-3.8362,-3.754,-3.7223,-3.6974,-3.6776,-3.6568,-3.6293,-3.5941,-3.5452,-3.5353,-3.5488,-3.5276,-3.5705,-3.6554,-3.6658,-3.6986,-3.738,-3.7008,-3.6229,-3.5227,0.0,0.0,0.0,0.0,0.0,0.0,0.0,0.0,0.0,0.0,-2.0219,-2.0158,-2.007,-2.0245,-2.0079,0.0,0.0,0.0,0.0,0.0,0.0,0.0,0.0,0.0,-1.9123,-1.8692,-1.8195,-1.7625,-1.8379,-1.8591,-1.8344,-1.9323,-1.9435,-1.8937,-1.9491,-1.9481,-1.9174,-1.9742,-2.0075,-2.0265,-2.1479,-2.2473,0.0,0.0,0.0,0.0,-2.918,-3.1209,0.0,0.0,0.0,0.0,0.0,0.0,0.0,0.0,-4.6269,0.0,-4.724,0.0,-4.8337,-4.8736,-4.8176,-4.7489,0.0,0.0,0.0,0.0,0.0,0.0,0.0,0.0,0.0,-3.9534,-3.8442,-3.7629,-3.7864,-3.889,0.0,-4.1158,-4.1448,-4.1501,-4.1443,-4.076,-4.0295,-4.0273,-4.0035,-3.9823,-3.9746,-3.8518,-3.795,-3.8298,-3.7496,-3.738,-3.7917,-3.8413,-3.8173,-3.7223,-3.7087,-3.6851,-3.6568,-3.6377,-3.6122,-3.5844,-3.5831,-3.5697,-3.5619,-3.6481,-3.6487,-3.5966,-3.6476,-3.62,-3.5474,-3.5034,-3.422,-3.3235,0.0,0.0,0.0,0.0,0.0,0.0,0.0,0.0,0.0,0.0,0.0,0.0,0.0,0.0,0.0,0.0,0.0,0.0,0.0,0.0,0.0,0.0,0.0,-1.9813,-1.9292,-1.9062,-1.8777,-1.8382,-1.9052,-1.946,-1.9512,-2.0125,-2.0205,-1.9871,-2.0159,-2.0211,-2.0232,-2.0481,-2.0959,-2.1653,-2.2603,0.0,0.0,0.0,0.0,0.0,-3.0037,-3.1928,0.0,-3.5995,-3.7717,-3.9434,0.0,0.0,0.0,0.0,-4.655,-4.7253,-4.8016,-4.861,-4.9124,-4.959,-4.8908,-4.8058,-4.7772,0.0,0.0,0.0,0.0,0.0,0.0,0.0,0.0,0.0,-3.8488,0.0,0.0,0.0,-4.0881,-4.1312,-4.1289,-4.0992,-4.0339,-3.957,-3.9091,-3.8903,-3.8729,-3.8503,-3.8183,-3.7446,-3.7154,-3.7509,-3.6837,-3.6761,-3.7374,-3.7724,-3.7648,-3.7203,-3.7009,-3.6731,-3.6402,-3.6148,-3.5701,-3.5203,-3.5377,-3.5393,-3.5285,-3.615,-3.6127,-3.5642,-3.5854,-3.5315,-3.4419,-3.3819,-3.3192,-3.253,0.0,0.0,0.0,0.0,0.0,0.0,0.0,0.0,0.0,0.0,0.0,0.0,0.0,0.0,0.0,0.0,0.0,0.0,0.0,0.0,0.0,0.0,-2.0365,-2.0118,-1.9968,-1.9939,-1.9786,-1.9564,-1.995,-2.0274,-2.0638,-2.0532,-2.0582,-2.0703,-2.0256,-2.0438,-2.1009,-2.1056,-2.1731,-2.2945,-2.353,0.0,0.0,0.0,0.0,0.0,0.0,0.0,0.0,-3.6387,-3.8204,-4.0118,-4.196,0.0,0.0,0.0,0.0,0.0,-4.8016,-4.8564,-4.9046,-4.9274,-4.8753,-4.8001,-4.7199,0.0,0.0,0.0,0.0,0.0,0.0,-4.1124,0.0,0.0,0.0,-3.885,-3.9878,-4.076,-4.121,-4.1056,-4.0707,-4.0028,-3.8926,-3.8382,-3.7968,-3.7678,-3.7694,-3.7393,-3.6627,-3.6877,-3.6938,-3.6794,-3.6869,-3.6893,-3.6893,-3.7038,-3.7126,-3.7182,-3.6768,-3.6336,-3.6002,-3.5581,-3.4999,-3.4276,-3.4534,-3.4651,-3.4763,-3.5187,-3.5285,-3.5175,-3.4781,-3.4176,-3.3419,-3.2672,-3.2332,-3.2105,0.0,0.0,0.0,0.0,0.0,0.0,0.0,0.0,0.0,0.0,0.0,0.0,0.0,0.0,0.0,0.0,0.0,0.0,0.0,0.0,0.0,-2.0566,-2.0365,-2.0396,-2.0864,-2.0709,-2.0818,-2.121,-2.2595,-2.3379,-2.3548,-2.4517,-2.4445,-2.3527,-2.2297,-2.1707,-2.1709,-2.2603,-2.3019,-2.3207,-2.4486,0.0,0.0,0.0,0.0,0.0,0.0,0.0,0.0,-3.788,-3.901,-4.003,-4.2551,0.0,0.0,0.0,0.0,0.0,-4.8016,-4.85,-4.8804,-4.8584,-4.7967,-4.7141,-4.6334,0.0,0.0,0.0,0.0,0.0,0.0,-3.9882,-3.8246,0.0,-3.8492,-3.9167,-4.0831,-4.1139,-4.1074,-4.0713,-3.9719,-3.8573,-3.7497,-3.6508,-3.5673,-3.5135,-3.565,-3.5773,-3.5241,-3.5483,-3.5977,-3.6759,-3.6303,-3.5969,-3.591,-3.6696,-3.7009,-3.6766,-3.5867,-3.517,-3.4658,-3.3989,-3.3463,-3.3172,-3.3651,-3.4054,-3.4396,-3.4853,-3.457,-3.3759,-3.3239,-3.2256,-3.1072,-3.0478,-3.0266,-3.0293,0.0,0.0,0.0,0.0,0.0,0.0,0.0,0.0,0.0,0.0,0.0,0.0,0.0,0.0,0.0,0.0,0.0,0.0,0.0,0.0,-2.002,-2.0712,-2.0755,-2.0913,-2.1408,-2.1506,-2.1878,-2.2558,-2.3443,-2.4149,-2.4648,-2.4805,-2.4484,-2.3544,-2.258,-2.2266,-2.2463,-2.2889,-2.3813,-2.509,0.0,0.0,0.0,0.0,0.0,0.0,0.0,0.0,0.0,0.0,-3.9532,-4.0721,-4.2879,0.0,0.0,0.0,0.0,0.0,-4.782,-4.8179,-4.8316,-4.781,-4.731,-4.6741,0.0,0.0,0.0,0.0,0.0,0.0,0.0,0.0,-3.9525,-3.9239,-3.9157,-3.9455,-4.0378,-4.0704,-4.0412,-3.9133,-3.8243,-3.7501,-3.6876,-3.6371,-3.5942,-3.5723,-3.6174,-3.6385,-3.6148,-3.6454,-3.6835,-3.7306,-3.6876,-3.6394,-3.5762,-3.557,-3.5339,-3.5036,-3.4721,-3.4132,-3.3334,-3.259,-3.2083,-3.1708,-3.1777,-3.1849,-3.2004,-3.2262,-3.2177,-3.1846,-3.1319,-3.0694,-3.0021,-2.975,-2.9826,-3.0087,0.0,0.0,0.0,0.0,0.0,0.0,0.0,0.0,0.0,0.0,0.0,0.0,0.0,0.0,0.0,0.0,0.0,0.0,0.0,-1.9152,-1.9872,-2.0712,-2.1041,-2.1363,-2.1784,-2.2158,-2.275,-2.3381,-2.3735,-2.4164,-2.4721,-2.4176,-2.3673,-2.3056,-2.2559,-2.2687,-2.3263,-2.3136,-2.4375,-2.6426,0.0,0.0,0.0,0.0,0.0,0.0,0.0,0.0,0.0,0.0,0.0,0.0,0.0,0.0,0.0,-4.6175,-4.6791,-4.727,-4.7421,-4.777,-4.7882,-4.6952,-4.6826,0.0,0.0,0.0,0.0,0.0,0.0,0.0,0.0,-4.139,0.0,-3.9901,-3.9663,-3.9638,-3.9736,-4.007,-3.9691,-3.8018,-3.7442,-3.7143,-3.6962,-3.6962,-3.6924,-3.6888,-3.7295,-3.7489,-3.73,-3.7559,-3.7704,-3.7619,-3.7111,-3.629,-3.5104,-3.4118,-3.3601,-3.349,-3.3362,-3.2751,-3.1785,-3.1139,-3.0642,-3.0218,-3.0068,-2.9972,-2.9919,-2.9939,-2.9988,-3.0033,-2.9441,-2.9231,-2.9198,-2.9259,-2.9724,-3.0316,0.0,0.0,0.0,0.0,0.0,0.0,0.0,0.0,0.0,0.0,0.0,0.0,0.0,0.0,0.0,0.0,0.0,0.0,0.0,-1.8993,-1.9627,-2.0342,-2.0722,-2.1343,-2.2147,-2.2666,-2.3087,-2.3387,-2.3979,-2.4111,-2.3872,-2.3664,-2.3393,-2.3056,-2.284,-2.3256,-2.4028,-2.395,-2.4711,-2.6165,-2.8163,0.0,0.0,0.0,0.0,0.0,0.0,0.0,0.0,0.0,0.0,0.0,0.0,0.0,-4.5247,-4.5719,-4.6262,-4.6722,-4.6876,-4.737,-4.7358,-4.5942,-4.6516,0.0,-4.5698,-4.5618,0.0,-4.5009,0.0,0.0,0.0,-4.088,-3.9502,-3.919,-3.9412,-3.9598,-3.962,-3.947,-3.9178,-3.8624,-3.8277,-3.8065,-3.8006,-3.8006,-3.7837,-3.7456,-3.8209,-3.8356,-3.7611,-3.7721,-3.7577,-3.709,-3.5881,-3.4529,-3.2999,-3.2544,-3.2626,-3.3219,-3.1821,-3.0648,-2.9802,-2.9417,-2.9102,-2.8858,-2.9297,-2.9523,-2.9641,-2.9506,-2.921,-2.8749,-2.7907,-2.7753,-2.8081,-2.8522,-2.9414,-3.0468,0.0,0.0,0.0,0.0,0.0,0.0,0.0,0.0,0.0,0.0,0.0,0.0,0.0,0.0,0.0,0.0,0.0,0.0,0.0,-1.8754,-1.9469,-2.0264,-2.0722,-2.1181,-2.1835,-2.2306,-2.2501,-2.2472,-2.28,-2.2949,-2.304,-2.3159,-2.3278,-2.3294,-2.3315,-2.3711,-2.436,-2.502,-2.5867,-2.6999,-2.908,-3.058,0.0,0.0,0.0,0.0,0.0,0.0,0.0,0.0,-4.0845,-4.1972,-4.2646,-4.3769,-4.4871,-4.4997,-4.5271,-4.5591,-4.5677,-4.628,-4.6651,-4.544,-4.6328,0.0,0.0,-4.5507,-4.5657,-4.5956,-4.5598,0.0,0.0,0.0,-4.0053,-3.9552,-3.9458,-3.9253,-3.8778,-3.8567,-3.8342,-3.801,-3.7765,-3.7963,-3.8828,-3.8961,-3.8809,-3.8232,-3.8538,-3.8303,-3.7274,-3.7028,-3.6632,-3.5956,-3.4937,-3.3515,-3.1618,-3.0896,-3.0406,-3.0094,-2.9688,-2.9243,-2.8778,-2.8143,-2.801,-2.8267,-2.8082,-2.8334,-2.873,-2.7793,-2.7684,-2.8122,-2.7806,-2.7985,-2.8419,-2.92,-2.9969,-3.0609,0.0,0.0,0.0,0.0,0.0,0.0,0.0,0.0,0.0,0.0,0.0,0.0,0.0,0.0,0.0,0.0,0.0,0.0,-1.787,-1.8514,-1.9311,-2.0108,-2.0644,-2.103,-2.146,-2.1767,-2.1935,-2.1938,-2.2031,-2.2152,-2.2378,-2.2756,-2.3189,-2.3583,-2.3876,-2.4464,-2.544,-2.6174,-2.7043,-2.8089,-3.034,-3.2024,0.0,0.0,0.0,0.0,0.0,0.0,0.0,0.0,-4.0427,-4.1535,-4.2117,-4.3118,-4.4096,-4.4169,-4.4448,-4.474,-4.4589,-4.5198,-4.5636,-4.4918,0.0,0.0,-4.5739,-4.5678,-4.5873,-4.6343,-4.57,-4.4659,-4.3236,-4.1454,-3.9997,-3.9428,-3.8999,-3.8524,-3.7796,-3.7633,-3.7579,-3.7602,-3.7482,-3.7868,-3.8985,-3.9123,-3.8946,-3.8431,-3.8345,-3.7889,-3.6975,-3.6031,-3.5186,-3.4462,-3.3347,-3.1919,-3.0058,-2.9451,-2.8641,-2.7709,-2.7811,-2.7873,-2.7982,-2.7421,-2.7391,-2.7724,-2.7341,-2.7514,-2.793,-2.6564,-2.6314,-2.6832,-2.7216,-2.7742,-2.844,-2.9339,-3.0103,-3.0609,0.0,0.0,0.0,0.0,0.0,0.0,0.0,0.0,0.0,0.0,0.0,0.0,0.0,0.0,0.0,0.0,0.0,0.0,-1.761,-1.8336,-1.9063,-1.9863,-2.0557,-2.0974,-2.1135,-2.1386,-2.1731,-2.2089,-2.195,-2.1898,-2.1893,-2.2409,-2.3109,-2.4024,-2.4484,-2.5708,-2.7422,-2.7533,-2.8126,-2.9195,-3.2111,-3.35,-3.3853,0.0,0.0,0.0,0.0,0.0,0.0,0.0,-3.9966,-4.1445,-4.1581,-4.2274,-4.3062,-4.3482,-4.3836,-4.4028,-4.3778,-4.4086,-4.4461,0.0,0.0,0.0,-4.5733,-4.6182,-4.6357,-4.5891,-4.4418,-4.3113,-4.2894,-4.0829,-3.9058,-3.8659,-3.7974,-3.7301,-3.6765,-3.6702,-3.6922,-3.7525,-3.7611,-3.7819,-3.8339,-3.8283,-3.8111,-3.7967,-3.7604,-3.7201,-3.6753,-3.4787,-3.33,-3.2517,-3.0981,-2.9557,-2.8211,-2.834,-2.7777,-2.6587,-2.6326,-2.6567,-2.7297,-2.7349,-2.7316,-2.7181,-2.7117,-2.7249,-2.7389,-2.6057,-2.5137,-2.4708,-2.5805,-2.6824,-2.7786,-2.8665,-2.965,-3.0426,0.0,0.0,0.0,0.0,0.0,0.0,0.0,0.0,0.0,0.0,0.0,0.0,0.0,0.0,0.0,0.0,0.0,0.0,-1.7465,-1.8353,-1.9152,-1.9636,-2.0576,-2.1364,-2.1826,-2.223,-2.2115,-2.1452,-2.129,-2.1777,-2.2846,-2.3224,-2.4071,-2.5338,-2.5554,-2.6511,-2.7908,-2.8518,-2.9284,-3.0312,-3.2768,-3.3985,-3.4454,0.0,0.0,0.0,0.0,0.0,0.0,0.0,0.0,0.0,-3.9743,-4.0875,-4.2151,-4.1696,-4.2125,-4.2646,-4.2443,-4.3067,0.0,-4.3388,0.0,0.0,0.0,-4.491,0.0,0.0,-4.3546,-4.2279,-4.0797,-4.0002,-3.8991,-3.7266,-3.7132,-3.705,-3.6506,-3.6502,-3.6797,-3.7309,-3.7202,-3.703,-3.6878,-3.6737,-3.6064,-3.4636,-3.4267,-3.3599,-3.2501,-3.1426,-3.0487,-2.9822,-2.8956,-2.8011,-2.6931,-2.7187,-2.6828,-2.5908,-2.6006,-2.6318,-2.6751,-2.6753,-2.6792,-2.6825,-2.6573,-2.6576,-2.6661,-2.583,-2.524,-2.4902,-2.5895,-2.6654,-2.7349,-2.8608,-2.9181,-2.9426,0.0,0.0,0.0,0.0,0.0,0.0,0.0,0.0,0.0,0.0,-1.0308,0.0,0.0,0.0,0.0,0.0,0.0,0.0,0.0,-1.8184,-1.8993,-1.9715,-2.0654,-2.1497,-2.2147,-2.2911,-2.3001,-2.2363,-2.1896,-2.2246,-2.352,-2.3952,-2.4921,-2.6402,-2.6663,-2.752,-2.8864,-2.9568,-3.0326,-3.1228,-3.2758,-3.3751,-3.4448,0.0,0.0,0.0,0.0,0.0,0.0,0.0,0.0,0.0,0.0,0.0,-4.0786,-4.0708,-4.0898,-4.1117,-4.1267,-4.186,0.0,-4.2276,-4.3162,-4.3864,-4.2758,0.0,0.0,0.0,-4.2092,-4.0913,-3.9371,-3.8639,-3.7833,-3.6451,-3.6342,-3.6382,-3.62,-3.6156,-3.6165,-3.6076,-3.5982,-3.5482,-3.4473,-3.4399,-3.3745,-3.2059,-3.1697,-3.1119,-3.0112,-2.9167,-2.8451,-2.7981,-2.7412,-2.6604,-2.559,-2.6092,-2.5844,-2.4782,-2.5392,-2.5632,-2.5672,-2.6125,-2.6183,-2.5949,-2.5707,-2.5522,-2.5453,-2.5435,-2.5155,-2.4878,-2.5911,-2.6597,-2.7038,-2.8135,-2.8598,-2.8747,0.0,0.0,0.0,0.0,0.0,0.0,0.0,0.0,0.0,0.0,-0.9689,-1.0547,0.0,0.0,0.0,0.0,0.0,0.0,0.0,-1.7853,-1.8816,-1.9863,-2.0809,-2.1621,-2.239,-2.3425,-2.4039,-2.4342,-2.3409,-2.3386,-2.4259,-2.4836,-2.5877,-2.7297,-2.7669,-2.8664,-3.0033,-3.0433,-3.1097,-3.185,-3.238,-3.3028,-3.3729,-3.4705,0.0,0.0,0.0,0.0,0.0,0.0,0.0,0.0,0.0,-3.9226,-3.9288,-4.0203,-4.0061,-3.9682,-4.0247,0.0,0.0,-4.1072,-4.17,0.0,-4.1335,-4.1305,-4.14,-4.121,-4.0132,-3.9024,-3.823,-3.6864,-3.5808,-3.581,-3.5445,-3.5268,-3.5684,-3.5545,-3.5081,-3.4114,-3.403,-3.3388,-3.1534,-3.1555,-3.1192,-2.9959,-2.9614,-2.9325,-2.8921,-2.7801,-2.7015,-2.6638,-2.624,-2.5406,-2.4164,-2.5175,-2.4948,-2.3531,-2.4477,-2.4701,-2.4256,-2.5379,-2.551,-2.4816,-2.4586,-2.4313,-2.4028,-2.4851,-2.4941,-2.4733,-2.5839,-2.6437,-2.6737,-2.7284,-2.7779,-2.8092,0.0,0.0,0.0,0.0,0.0,0.0,0.0,0.0,0.0,0.0,0.0,0.0,0.0,0.0,0.0,0.0,0.0,0.0,0.0,-1.8103,-1.9063,-1.9608,-2.1098,-2.2285,-2.308,-2.3854,-2.4625,-2.5315,-2.5069,-2.5373,-2.6151,-2.713,-2.7621,-2.7736,-2.8532,-2.943,-3.0336,-3.0405,-3.1097,-3.2177,-3.2738,-3.2752,-3.2554,-3.3639,-3.3971,0.0,0.0,0.0,0.0,0.0,0.0,0.0,-3.7367,-3.7935,-3.8362,-3.8616,-3.9179,-3.9556,-3.9511,-3.9928,0.0,0.0,-4.0482,-4.0181,-3.9638,-3.8729,-3.8237,-3.9092,-3.7902,-3.6474,-3.5613,-3.4526,-3.3662,-3.3533,-3.3252,-3.3205,-3.3664,-3.3472,-3.3077,-3.2531,-3.2015,-3.1173,-2.9682,-2.9404,-2.8824,-2.7527,-2.7272,-2.7021,-2.6617,-2.6119,-2.555,-2.4901,-2.5007,-2.4444,-2.3138,-2.4028,-2.3964,-2.2958,-2.3601,-2.3585,-2.2953,-2.4524,-2.4854,-2.4238,-2.393,-2.3809,-2.3855,-2.4177,-2.4508,-2.4895,-2.5227,-2.5502,-2.5715,-2.6278,-2.6398,-2.635,0.0,0.0,0.0,0.0,0.0,0.0,0.0,0.0,0.0,0.0,0.0,0.0,0.0,0.0,0.0,0.0,0.0,0.0,0.0,0.0,-1.9304,-2.0603,-2.2247,-2.3305,-2.3831,-2.4769,-2.5492,-2.6194,-2.6594,-2.6788,-2.6721,-2.77,-2.8156,-2.8278,-2.9,-2.9686,-3.0267,-3.062,-3.0953,-3.1269,-3.2078,-3.2043,-3.1629,-3.2484,-3.2688,-3.2643,-3.3403,0.0,0.0,0.0,0.0,0.0,0.0,0.0,-3.7582,-3.8127,-3.8414,-3.8525,-3.9009,0.0,0.0,-3.954,0.0,-3.7902,-3.7492,-3.6535,-3.5799,-3.5938,-3.5508,-3.4759,-3.371,-3.2806,-3.2206,-3.2179,-3.1966,-3.1992,-3.2438,-3.221,-3.1738,-3.0927,-3.0526,-2.973,-2.8195,-2.7986,-2.754,-2.6408,-2.6204,-2.5988,-2.5688,-2.5136,-2.4682,-2.4405,-2.3886,-2.3239,-2.2402,-2.2671,-2.2333,-2.1382,-2.2002,-2.2214,-2.2059,-2.2945,-2.3345,-2.3311,-2.3088,-2.3225,-2.3739,-2.3925,-2.4261,-2.4751,-2.495,-2.5045,-2.5108,-2.5392,-2.5576,-2.5668,0.0,0.0,0.0,0.0,0.0,0.0,0.0,0.0,0.0,0.0,0.0,0.0,0.0,0.0,0.0,0.0,0.0,0.0,0.0,0.0,0.0,-2.1829,-2.3244,-2.4126,-2.441,-2.5451,-2.6268,-2.6834,-2.7758,-2.7729,-2.6844,-2.7708,-2.8296,-2.8637,-2.9161,-2.9673,-3.0129,-3.074,-3.0708,-3.0354,-3.1209,-3.1272,-3.0999,-3.1418,-3.1444,-3.1333,-3.2024,-3.2577,-3.3105,-3.4084,0.0,0.0,0.0,0.0,-3.685,-3.7991,-3.7839,-3.7521,0.0,0.0,-3.8219,-3.8075,-3.6993,0.0,-3.5459,-3.4758,-3.3817,-3.279,-3.3132,-3.3273,-3.2106,-3.1279,-3.0812,-3.0968,-3.0775,-3.083,-3.1214,-3.1055,-3.0509,-2.9546,-2.9379,-2.8708,-2.717,-2.7118,-2.6776,-2.5826,-2.5619,-2.5467,-2.5313,-2.4422,-2.397,-2.4019,-2.2831,-2.1918,-2.1331,-2.1273,-2.0655,-1.9564,-2.0178,-2.064,-2.098,-2.1133,-2.1683,-2.2492,-2.2422,-2.2817,-2.3566,-2.3839,-2.4151,-2.4441,-2.4766,-2.4862,-2.4742,-2.4742,-2.4979,-2.5292,0.0,0.0,0.0,0.0,0.0,0.0,0.0,0.0,0.0,0.0,-0.9038,0.0,0.0,0.0,0.0,0.0,0.0,0.0,0.0,0.0,0.0,-2.2107,-2.2936,-2.3646,-2.441,-2.5154,-2.5983,-2.679,-2.7758,-2.7909,-2.7311,-2.8695,-2.8879,-2.8226,-2.8786,-2.9469,-3.0102,-3.0044,-3.0445,-3.1154,-3.1097,-3.0911,-3.0773,-3.0799,-3.1008,-3.1216,-3.0907,-3.1695,-3.2817,-3.3556,-3.4059,0.0,0.0,0.0,-3.6744,-3.7303,-3.7615,-3.7792,0.0,0.0,-3.6884,0.0,-3.5675,-3.4988,0.0,0.0,-3.2269,-3.1112,-3.1041,-3.1088,-3.0571,-2.9507,-2.8764,-2.8846,-2.8662,-2.8662,-2.9061,-2.8902,-2.8793,-2.8813,-2.8517,-2.7983,-2.7099,-2.6821,-2.6272,-2.5215,-2.5005,-2.4778,-2.4465,-2.3794,-2.3001,-2.2103,-2.166,-2.068,-1.9143,-1.9745,-1.9523,-1.861,-1.8617,-1.8792,-1.9008,-1.9706,-2.089,-2.2426,-2.2684,-2.2951,-2.3216,-2.3653,-2.3952,-2.4162,-2.4441,-2.4539,-2.4539,-2.44,-2.4405,-2.4441,0.0,0.0,0.0,0.0,0.0,0.0,0.0,0.0,0.0,0.0,0.0,-0.9962,0.0,0.0,0.0,0.0,0.0,0.0,0.0,0.0,0.0,-2.2402,-2.3247,-2.4175,-2.4984,-2.5612,-2.6296,-2.7025,-2.7567,-2.7854,-2.7875,-2.8338,-2.8543,-2.8559,-2.8892,-2.9415,-3.0115,-3.0016,-3.0092,-3.0293,-3.048,-3.0533,-3.0533,-3.0394,-3.0611,-3.0881,-3.0624,-3.1177,-3.2251,-3.2856,-3.3821,-3.4982,-3.599,0.0,0.0,0.0,-3.6789,0.0,-3.6603,-3.6137,-3.5604,0.0,-3.4095,-3.3167,-3.2782,-3.171,-3.0438,-2.9412,-2.882,-2.8621,-2.9035,-2.8158,-2.7507,-2.7923,-2.7545,-2.7414,-2.7978,-2.8228,-2.8336,-2.836,-2.8123,-2.7783,-2.7355,-2.65,-2.5778,-2.5289,-2.4736,-2.416,-2.3475,-2.2789,-2.2006,-2.1122,-2.0345,-1.9518,-1.8519,-1.8519,-1.8236,-1.765,-1.7473,-1.7748,-1.8449,-1.9405,-2.0362,-2.1334,-2.2241,-2.2814,-2.3127,-2.3494,-2.3754,-2.3952,-2.4276,-2.4317,-2.4234,-2.4219,-2.4135,-2.4009,0.0,0.0,0.0,0.0,0.0,0.0,0.0,0.0,0.0,0.0,0.0,0.0,0.0,0.0,0.0,0.0,0.0,0.0,0.0,0.0,0.0,0.0,-2.3536,-2.4482,-2.5443,-2.5863,-2.6445,-2.7115,-2.7348,-2.7584,-2.7959,-2.7767,-2.7982,-2.8477,-2.8638,-2.9118,-2.9767,-2.9836,-2.9749,-2.9512,-2.9999,-3.0292,-3.0368,-3.0381,-3.0533,-3.0773,-3.0609,-3.1061,-3.1808,-3.2398,-3.3688,-3.5143,-3.5804,-3.5869,0.0,0.0,0.0,0.0,0.0,0.0,-3.4328,-3.3616,-3.2525,-3.1476,0.0,0.0,-2.8798,-2.8,-2.7087,-2.6662,-2.7486,-2.6947,-2.6573,-2.6967,-2.6732,-2.6669,-2.7372,-2.7869,-2.811,-2.791,-2.7997,-2.7844,-2.7304,-2.6404,-2.5674,-2.5203,-2.4411,-2.3551,-2.2685,-2.1771,-2.0913,-2.0148,-1.8983,-1.8197,-1.7856,-1.7444,-1.7071,-1.68,-1.6804,-1.7286,-1.8232,-1.9331,-2.0041,-2.0414,-2.1832,-2.2678,-2.3038,-2.3363,-2.3581,-2.3782,-2.4094,-2.4094,-2.3925,-2.3952,-2.3867,-2.3696,0.0,0.0,0.0,0.0,0.0,0.0,0.0,0.0,0.0,0.0,0.0,0.0,-1.0569,-1.1871,-1.3138,-1.425,-1.5151,-1.6706,-1.9143,-2.017,-2.1244,0.0,0.0,0.0,-2.5189,-2.5717,-2.6229,-2.6891,-2.7115,-2.7079,-2.686,-2.7434,-2.7566,-2.7348,-2.7683,-2.8258,-2.8964,-2.9203,-2.9313,-2.9574,-3.0138,-3.0368,-3.0444,-3.0836,-3.0986,-3.0986,-3.0986,-3.1289,-3.1876,-3.2502,-3.341,-3.4432,-3.5184,-3.5128,-3.4811,0.0,0.0,0.0,0.0,-3.3583,0.0,-3.1997,-3.1199,0.0,0.0,-2.8332,-2.7443,-2.6879,-2.619,-2.5649,-2.574,-2.5756,-2.5712,-2.5562,-2.5934,-2.6472,-2.6937,-2.7515,-2.7733,-2.7281,-2.8022,-2.8052,-2.6715,-2.6559,-2.5959,-2.4561,-2.3854,-2.3032,-2.2151,-2.083,-1.9694,-1.8944,-1.7643,-1.6837,-1.6507,-1.6418,-1.6257,-1.6068,-1.6704,-1.7303,-1.7956,-1.9083,-1.9839,-2.0285,-2.1877,-2.2632,-2.2754,-2.3275,-2.3538,-2.3653,-2.3925,-2.394,-2.3797,-2.3681,-2.3551,-2.3406,0.0,0.0,0.0,0.0,0.0,0.0,0.0,0.0,0.0,0.0,0.0,0.0,0.0,-1.2267,-1.3316,-1.4321,-1.6124,-1.7865,-1.9426,-2.031,-2.1289,-2.2414,-2.2834,-2.3547,-2.469,-2.5211,-2.5717,-2.6229,-2.6633,-2.6932,-2.7032,-2.7174,-2.7276,-2.7299,-2.746,-2.8095,-2.9093,-2.8833,-2.9154,-2.9872,-3.0152,-3.0457,-3.0748,-3.0672,-3.0823,-3.1123,-3.0911,-3.1124,-3.1694,-3.2213,-3.2881,-3.3528,-3.3807,-3.4085,-3.4295,-3.4206,-3.3515,0.0,0.0,0.0,0.0,-3.1343,-3.0224,-2.9114,-2.8856,-2.7834,-2.6905,-2.6552,-2.6183,-2.5945,-2.5965,-2.546,-2.5284,-2.6013,-2.6254,-2.6511,-2.7075,-2.7854,-2.7968,-2.6947,-2.7624,-2.7736,-2.6577,-2.6129,-2.562,-2.4707,-2.3357,-2.2092,-2.0985,-1.9964,-1.89,-1.8029,-1.7204,-1.638,-1.5511,-1.5722,-1.5883,-1.5897,-1.6411,-1.7231,-1.8319,-1.9229,-2.0072,-2.0843,-2.2124,-2.2493,-2.2308,-2.3069,-2.3451,-2.3538,-2.3696,-2.3711,-2.3581,-2.3246,-2.3068,-2.292,0.0,0.0,0.0,0.0,0.0,0.0,0.0,0.0,0.0,-0.8899,0.0,0.0,0.0,0.0,-1.3886,-1.522,-1.7056,-1.8559,-1.9561,-2.0363,-2.1253,-2.2225,-2.251,-2.3133,-2.41,-2.4775,-2.5295,-2.5812,-2.6229,-2.6625,-2.6921,-2.6918,-2.6988,-2.7162,-2.7195,-2.7819,-2.8736,-2.8533,-2.9007,-2.9809,-3.0075,-3.0457,-3.0911,-3.0748,-3.0973,-3.136,-3.0986,-3.1146,-3.1485,-3.1821,-3.2226,-3.2672,-3.2646,-3.2948,-3.3093,-3.2228,-3.1642,-3.1189,-3.1047,0.0,0.0,0.0,-2.9093,-2.8241,-2.7946,-2.7316,-2.6747,-2.6396,-2.6208,-2.6173,-2.6217,-2.5701,-2.5463,-2.6472,-2.6622,-2.6757,-2.7131,-2.7722,-2.763,-2.6243,-2.685,-2.6987,-2.5896,-2.5419,-2.4982,-2.4369,-2.289,-2.1543,-2.0243,-1.9276,-1.8188,-1.6944,-1.672,-1.6033,-1.4825,-1.5363,-1.5684,-1.5712,-1.6423,-1.7433,-1.8785,-1.9557,-2.0418,-2.1344,-2.2329,-2.2597,-2.2425,-2.3098,-2.3363,-2.3451,-2.3523,-2.3407,-2.3142,-2.2844,-2.2603,-2.2388,0.0,0.0,0.0,0.0,0.0,0.0,0.0,0.0,-0.836,-0.8894,0.0,0.0,0.0,0.0,0.0,-1.6968,-1.7796,-1.8671,-1.9515,-2.0134,-2.0883,-2.174,-2.2273,-2.282,-2.3513,-2.4454,-2.5137,-2.5486,-2.6023,-2.6266,-2.6394,-2.6644,-2.6679,-2.6633,-2.6998,-2.7446,-2.7804,-2.8388,-2.8864,-2.9276,-3.0062,-3.0533,-3.0698,-3.111,-3.1421,-3.1535,-3.1334,-3.1246,-3.125,-3.1421,-3.1616,-3.1798,-3.1749,-3.1536,-3.116,-2.9704,-2.9845,-3.0281,0.0,0.0,0.0,0.0,-2.7814,-2.7711,-2.6494,-2.6611,-2.6834,-2.6275,-2.6228,-2.6257,-2.6414,-2.628,-2.6286,-2.6702,-2.7037,-2.7129,-2.7102,-2.7182,-2.6694,-2.5248,-2.5689,-2.5726,-2.4611,-2.4432,-2.4093,-2.3315,-2.2474,-2.1333,-2.0011,-1.8919,-1.747,-1.5725,-1.6,-1.5629,-1.4427,-1.533,-1.5706,-1.5537,-1.668,-1.7886,-1.9256,-2.0041,-2.0825,-2.1698,-2.2476,-2.2902,-2.3127,-2.3363,-2.3407,-2.3319,-2.3422,-2.3098,-2.2601,-2.2526,-2.2203,-2.1793,0.0,0.0,0.0,0.0,0.0,0.0,-0.7935,-0.8251,-0.8752,0.0,0.0,0.0,-1.2588,-1.4261,-1.5726,-1.6968,-1.7401,-1.8178,-1.9472,-1.9867,-2.0662,-2.1989,-2.2456,-2.3174,-2.4225,-2.4831,-2.5522,-2.632,-2.6594,-2.6779,-2.678,-2.7042,-2.7,-2.6703,-2.7079,-2.7541,-2.7922,-2.8237,-2.8774,-2.9362,-2.9589,-2.9973,-3.0482,-3.0144,-3.0397,-3.0872,-3.0564,-3.0199,-2.9866,-2.992,-2.9732,-2.9529,-2.9455,-2.9241,-2.902,-2.8566,-2.8506,-2.848,-2.8558,0.0,0.0,0.0,0.0,0.0,-2.6021,-2.6007,-2.6012,-2.6005,-2.6258,-2.6633,-2.6956,-2.7065,-2.7092,-2.6961,-2.6651,-2.6489,-2.6675,-2.6426,-2.5884,-2.4734,-2.4896,-2.473,-2.3916,-2.3526,-2.2954,-2.219,-2.1259,-2.0217,-1.9108,-1.8218,-1.7075,-1.5725,-1.6,-1.5783,-1.484,-1.5405,-1.5928,-1.6353,-1.6956,-1.8227,-2.0085,-2.0215,-2.1095,-2.2553,-2.2801,-2.2904,-2.2994,-2.3157,-2.3246,-2.3275,-2.3038,-2.2723,-2.2417,-2.1983,-2.1698,-2.1574,0.0,0.0,0.0,0.0,0.0,0.0,-0.8178,-0.8665,-0.9241,0.0,0.0,0.0,-1.3526,-1.476,-1.5993,-1.7041,-1.7581,-1.8272,-1.9307,-1.9973,-2.079,-2.19,-2.2353,-2.2997,-2.387,-2.4486,-2.5057,-2.5679,-2.6419,-2.6715,-2.6755,-2.7245,-2.7347,-2.7233,-2.7544,-2.7826,-2.8108,-2.8186,-2.868,-2.9275,-2.9341,-2.9664,-3.0114,-2.977,-2.9922,-3.0393,-2.9864,-2.9208,-2.8661,-2.8648,-2.8263,-2.7797,-2.7854,-2.7717,-2.7501,-2.7172,-2.7287,-2.7517,-2.7279,-2.6759,-2.6239,-2.6311,0.0,0.0,-2.5625,-2.5792,-2.5956,-2.6017,-2.6302,-2.6645,-2.685,-2.6879,-2.6642,-2.6088,-2.5432,-2.5106,-2.5618,-2.5336,-2.4597,-2.3305,-2.3376,-2.3213,-2.2447,-2.2199,-2.1776,-2.1084,-2.037,-1.9554,-1.8629,-1.7942,-1.7051,-1.5917,-1.5974,-1.5693,-1.4839,-1.5467,-1.6067,-1.6638,-1.7161,-1.8437,-2.0301,-2.0301,-2.1268,-2.2889,-2.2814,-2.2859,-2.2994,-2.2783,-2.2783,-2.2814,-2.2526,-2.217,-2.1793,-2.1444,-2.1377,-2.1496,0.0,0.0,0.0,0.0,0.0,0.0,-0.8565,-0.9185,-0.9812,0.0,-1.1129,-1.2203,-1.4408,-1.5057,-1.5771,-1.6968,-1.7869,-1.8562,-1.9162,-2.0228,-2.1087,-2.1642,-2.2087,-2.2637,-2.3125,-2.3834,-2.4298,-2.4609,-2.5709,-2.6401,-2.6594,-2.7315,-2.7715,-2.7954,-2.798,-2.8152,-2.8262,-2.8122,-2.8371,-2.8876,-2.9098,-2.9381,-2.9611,-2.9501,-2.9616,-2.9845,-2.9114,-2.8338,-2.7631,-2.7348,-2.689,-2.6474,-2.6804,-2.6705,-2.637,-2.5819,-2.6318,-2.6959,-2.6101,-2.5837,-2.5694,-2.5087,-2.5324,0.0,-2.5207,-2.5685,-2.6177,-2.5984,-2.6082,-2.6208,-2.6208,-2.5906,-2.5387,-2.4638,-2.3816,-2.3479,-2.4249,-2.3975,-2.3178,-2.1655,-2.172,-2.1581,-2.0678,-2.073,-2.0587,-2.0012,-1.9668,-1.9118,-1.8357,-1.7997,-1.7261,-1.6152,-1.5973,-1.5533,-1.4783,-1.5577,-1.6265,-1.6777,-1.754,-1.8783,-2.0456,-2.0628,-2.1513,-2.2889,-2.2678,-2.2737,-2.2949,-2.2427,-2.2147,-2.2137,-2.2019,-2.1574,-2.0947,-2.1023,-2.1191,-2.1485,0.0,0.0,0.0,0.0,0.0,0.0,0.0,-0.9403,-0.9975,-1.0286,-1.1609,-1.3017,-1.4487,-1.517,-1.6006,-1.7113,-1.7269,-1.7921,-1.9375,-1.9471,-2.0,-2.106,-2.182,-2.2424,-2.3124,-2.385,-2.4555,-2.5358,-2.5799,-2.6176,-2.6583,-2.6768,-2.7197,-2.7954,-2.7375,-2.7694,-2.8445,-2.7696,-2.7439,-2.7537,-2.7693,-2.8192,-2.8652,-2.7895,-2.8114,-2.8743,-2.8248,-2.756,-2.6689,-2.5726,-2.5148,-2.4926,-2.5358,-2.5561,-2.5615,-2.5681,-2.5645,-2.5644,-2.5905,-2.555,-2.5003,-2.4753,-2.4872,0.0,-2.4284,-2.4548,-2.4823,-2.4646,-2.4743,-2.4933,-2.5004,-2.4862,-2.4624,-2.41,-2.3315,-2.2697,-2.2708,-2.2306,-2.1967,-2.1882,-2.1229,-2.0772,-2.0737,-2.0049,-1.9315,-1.87,-1.8416,-1.8099,-1.7631,-1.7717,-1.7226,-1.6079,-1.6048,-1.5958,-1.5741,-1.6243,-1.7171,-1.8506,-1.8946,-2.0061,-2.1815,-2.1858,-2.2251,-2.2889,-2.2618,-2.248,-2.2352,-2.2144,-2.1978,-2.1896,-2.1862,-2.1356,-2.0725,-2.1171,-2.1246,-2.1289,0.0,0.0,0.0,0.0,0.0,0.0,0.0,-0.9693,-1.0293,-1.0887,-1.2133,-1.3457,-1.4702,-1.5217,-1.585,-1.6846,-1.7286,-1.7804,-1.8337,-1.8972,-1.9615,-2.034,-2.1167,-2.1903,-2.2556,-2.3022,-2.3752,-2.4593,-2.5163,-2.5586,-2.5892,-2.6486,-2.6997,-2.7267,-2.7127,-2.7338,-2.7741,-2.7229,-2.6909,-2.6846,-2.7015,-2.7238,-2.7412,-2.68,-2.6919,-2.7233,-2.6623,-2.5878,-2.505,-2.4562,-2.4186,-2.3888,-2.4186,-2.442,-2.4505,-2.4431,-2.4503,-2.469,-2.4788,-2.448,-2.4105,-2.4212,-2.4127,0.0,0.0,-2.3897,-2.3813,-2.3486,-2.3644,-2.379,-2.3452,-2.3401,-2.3272,-2.2747,-2.2336,-2.1869,-2.1366,-2.1199,-2.0998,-2.0644,-2.0421,-2.0302,-2.0178,-1.9587,-1.9081,-1.8656,-1.877,-1.8547,-1.8074,-1.8066,-1.7552,-1.6329,-1.6264,-1.6344,-1.6669,-1.7272,-1.8292,-1.9727,-1.9993,-2.0782,-2.2104,-2.1917,-2.2161,-2.2723,-2.2388,-2.2217,-2.2152,-2.182,-2.1745,-2.1862,-2.1852,-2.1407,-2.0785,-2.1277,-2.1419,-2.1555,-0.6767,-0.7135,0.0,0.0,0.0,0.0,0.0,0.0,-1.0588,-1.1706,-1.2599,-1.3541,-1.4668,-1.5157,-1.5723,-1.6541,-1.7302,-1.7655,-1.7387,-1.844,-1.9188,-1.9431,-2.0145,-2.0873,-2.1496,-2.1943,-2.252,-2.3232,-2.4105,-2.4717,-2.5068,-2.6059,-2.653,-2.6497,-2.6764,-2.6763,-2.6633,-2.6614,-2.6312,-2.5927,-2.6175,-2.6291,-2.6282,-2.5972,-2.5907,-2.5842,-2.5043,-2.4224,-2.3557,-2.3514,-2.3312,-2.3066,-2.3067,-2.327,-2.3433,-2.3001,-2.3351,-2.3863,-2.3401,-2.3301,-2.329,-2.3464,-2.3363,-2.3334,0.0,0.0,0.0,-2.2489,-2.267,-2.2681,-2.1886,-2.1993,-2.1975,-2.1375,-2.1336,-2.1189,-2.0586,-2.0627,-2.0483,-1.9717,-2.0082,-2.0254,-1.9982,-1.9916,-1.9845,-1.954,-1.9979,-1.9834,-1.8959,-1.8709,-1.8021,-1.6849,-1.6665,-1.6921,-1.7534,-1.8377,-1.9428,-2.0656,-2.0897,-2.1426,-2.2221,-2.1959,-2.2098,-2.2509,-2.2184,-2.2044,-2.2044,-2.1642,-2.169,-2.2073,-2.1975,-2.1601,-2.1138,-2.1563,-2.1877,-2.2203,-0.6884,-0.7207,-0.7557,0.0,0.0,0.0,0.0,0.0,-1.0663,-1.2077,-1.2673,-1.3287,-1.4317,-1.503,-1.5774,-1.6385,-1.6713,-1.7166,-1.7652,-1.7737,-1.7859,-1.8088,-1.8701,-1.9156,-1.9415,-2.0543,-2.1526,-2.2236,-2.2998,-2.365,-2.4278,-2.4674,-2.5217,-2.6044,-2.5637,-2.5581,-2.5746,-2.5404,-2.4694,-2.3776,-2.4194,-2.5043,-2.5965,-2.5112,-2.5062,-2.5326,-2.4271,-2.3755,-2.3351,-2.2494,-2.2212,-2.2125,-2.1881,-2.2204,-2.2594,-2.2181,-2.2537,-2.2925,-2.2441,-2.243,-2.2522,-2.2045,-2.2568,-2.3127,-2.2903,0.0,-2.2542,-2.1766,0.0,-2.1308,-2.0769,0.0,0.0,-2.1028,-2.0888,-2.0869,-2.0767,-2.0943,-2.111,-2.0984,-2.1044,-2.1104,-2.111,-2.1816,-2.2031,-2.137,-2.2134,-2.1768,-1.9689,-1.9334,-1.8674,-1.7599,-1.758,-1.7843,-1.8453,-1.9183,-2.0232,-2.1556,-2.2015,-2.2495,-2.2981,-2.3069,-2.2801,-2.2231,-2.2184,-2.1996,-2.1643,-2.1643,-2.2048,-2.2578,-2.2335,-2.2213,-2.2269,-2.2471,-2.2948,-2.351,-0.676,-0.7368,-0.7868,0.0,0.0,0.0,0.0,0.0,-1.1335,-1.2003,-1.29,-1.3777,-1.4773,-1.5144,-1.5535,-1.5971,-1.619,-1.6194,-1.5858,-1.6308,-1.6514,-1.6492,-1.7546,-1.8287,-1.8637,-1.9816,-2.0817,-2.1704,-2.2255,-2.2794,-2.3416,-2.3841,-2.4288,-2.4528,-2.4492,-2.4451,-2.4399,-2.4275,-2.3849,-2.3382,-2.2938,-2.3155,-2.3676,-2.318,-2.3012,-2.3058,-2.2745,-2.2595,-2.2371,-2.1975,-2.1664,-2.1392,-2.1105,-2.1252,-2.1486,-2.1152,-2.133,-2.1677,-2.1516,-2.1452,-2.1544,-2.1452,-2.1743,-2.2045,-2.2092,-2.1891,-2.1471,-2.076,0.0,0.0,0.0,0.0,0.0,0.0,-2.0718,-2.0903,-2.0999,-2.1691,-2.1953,-2.1466,-2.1873,-2.2422,-2.3032,-2.4041,-2.4438,-2.3919,-2.4064,-2.3431,-2.1624,-2.1113,-2.0177,-1.8734,-1.8771,-1.9175,-1.9878,-2.0627,-2.1573,-2.2732,-2.2862,-2.2908,-2.2844,-2.2723,-2.2402,-2.1949,-2.1902,-2.187,-2.188,-2.2008,-2.251,-2.3256,-2.331,-2.34,-2.358,-2.3914,-2.4028,-2.4047,-0.6801,-0.7467,-0.8102,-0.8016,0.0,0.0,0.0,-1.0318,-1.1459,-1.1825,-1.299,-1.4011,-1.4909,-1.508,-1.5258,-1.5447,-1.5643,-1.531,-1.4458,-1.5079,-1.5359,-1.5022,-1.6285,-1.7115,-1.764,-1.8807,-1.985,-2.0829,-2.1489,-2.1998,-2.2539,-2.3144,-2.3319,-2.3212,-2.3442,-2.3266,-2.2754,-2.2876,-2.2595,-2.2109,-2.1518,-2.1104,-2.0937,-2.1167,-2.1157,-2.0906,-2.1087,-2.105,-2.0927,-2.0955,-2.0688,-2.0307,-2.0062,-2.0222,-2.0379,-1.9856,-2.0139,-2.0511,-2.0318,-2.0312,-2.0449,-2.0845,-2.0789,-2.0824,-2.1199,-2.0737,-2.0072,-1.955,-1.9173,0.0,0.0,0.0,-1.9251,-1.9596,0.0,-2.0497,-2.0876,-2.1913,-2.2515,-2.2152,-2.3267,-2.443,-2.5355,-2.6441,-2.6984,-2.6499,-2.6406,-2.5801,-2.4336,-2.3506,-2.2349,-2.0953,-2.0535,-2.0722,-2.1446,-2.1897,-2.2529,-2.3275,-2.3216,-2.2994,-2.2618,-2.2356,-2.2175,-2.209,-2.1911,-2.207,-2.2423,-2.2512,-2.3055,-2.3918,-2.4341,-2.4706,-2.498,-2.5059,-2.5038,-2.4928,-0.6986,-0.7616,-0.8178,-0.8327,-0.8403,-0.8562,-0.8871,-0.9691,-1.0576,-1.1488,-1.2697,-1.376,-1.4369,-1.4864,-1.5158,-1.4968,-1.4925,-1.4659,-1.4035,-1.4424,-1.4381,-1.3797,-1.4725,-1.5397,-1.5648,-1.7239,-1.8564,-1.9436,-2.0534,-2.1275,-2.1731,-2.2264,-2.2441,-2.2413,-2.2494,-2.1928,-2.097,-2.1163,-2.0335,-1.8989,-1.9535,-1.8961,-1.7909,-1.9471,-1.9785,-1.9433,-1.9452,-1.933,-1.9044,-1.8954,-1.8847,-1.8722,-1.8526,-1.8934,-1.9377,-1.8398,-1.8957,-1.9691,-1.8593,-1.8796,-1.9431,-1.9734,-1.973,-1.9687,-2.0162,-1.9367,-1.8536,-1.8222,-1.7464,-1.6691,-1.6463,-1.6775,-1.736,-1.8044,-1.8561,0.0,0.0,-2.145,-2.2551,-2.339,-2.555,-2.7195,-2.7875,-2.9102,-2.952,-2.8986,-2.9664,-2.9315,-2.7841,-2.6443,-2.536,-2.4651,-2.3187,-2.2591,-2.3008,-2.2771,-2.2694,-2.274,-2.2844,-2.2723,-2.2417,-2.2417,-2.2555,-2.2874,-2.2605,-2.2746,-2.316,-2.316,-2.3632,-2.434,-2.5286,-2.6078,-2.6595,-2.5548,-2.5855,-2.661,-0.732,-0.7721,-0.8103,-0.8156,-0.8327,-0.8685,-0.9435,-1.0018,-1.0876,-1.229,-1.2976,-1.355,-1.4353,-1.4346,-1.4266,-1.4201,-1.3953,-1.3498,-1.2891,-1.3084,-1.31,-1.2946,-1.3841,-1.4596,-1.5102,-1.6309,-1.7409,-1.8376,-1.9453,-1.9955,0.0,0.0,0.0,0.0,-2.1163,-2.0924,-2.0299,-2.0409,-1.9713,-1.8533,-1.7882,-1.6971,-1.6137,-1.7532,-1.8122,-1.8222,-1.8349,-1.8452,-1.8536,-1.8444,-1.8308,-1.8247,-1.8359,-1.8495,-1.8523,-1.8056,-1.8233,-1.8424,-1.7632,-1.7617,-1.7904,-1.8294,-1.8497,-1.8718,-1.9419,-1.8826,-1.8199,-1.8104,-1.7218,-1.643,-1.6353,-1.6598,-1.703,-1.7786,-1.838,-1.9167,0.0,-2.2301,-2.4329,-2.5654,-2.6824,-2.8165,-2.9843,-3.0812,-3.1371,-3.1524,-3.112,-3.0507,-2.9677,-2.7713,-2.6362,-2.589,-2.4718,-2.3868,-2.3357,-2.3468,-2.3204,-2.2694,-2.2754,-2.2632,-2.2417,-2.2324,-2.2569,-2.3,-2.2768,-2.3183,-2.409,-2.4224,-2.4662,-2.5324,-2.5371,-2.615,-2.71,-2.6512,-2.6512,-2.6666,-0.7496,-0.7778,-0.8066,-0.8191,-0.8449,-0.8871,-0.9532,-1.0174,-1.1056,-1.2257,-1.2649,-1.3042,-1.3739,-1.3667,-1.3561,-1.3462,-1.3185,-1.2721,-1.2003,-1.2125,-1.2134,-1.2,-1.2748,-1.3444,-1.3944,-1.494,-1.5988,-1.7062,-1.8018,-1.8578,0.0,0.0,0.0,0.0,-2.0025,-1.9883,-1.955,-1.9202,-1.8547,-1.7511,-1.6341,-1.5419,-1.4911,-1.5713,-1.6307,-1.6783,-1.6839,-1.7014,-1.722,-1.7313,-1.7349,-1.7313,-1.7501,-1.7533,-1.7513,-1.711,-1.7179,-1.7272,-1.6688,-1.6609,-1.685,-1.7189,-1.7207,-1.7348,-1.7962,-1.7433,-1.6893,-1.6891,-1.6205,-1.5559,-1.5429,-1.5749,-1.6305,-1.7175,-1.7982,-1.9127,0.0,-2.3014,-2.5067,-2.7022,-2.7887,-2.897,-3.0531,-3.1601,-3.2442,-3.2881,-3.2498,-3.2122,-3.1803,-2.9614,-2.8157,-2.7659,-2.62,-2.5092,-2.4481,-2.4221,-2.3783,-2.3207,-2.3238,-2.3192,-2.3022,-2.3112,-2.3507,-2.414,-2.3794,-2.4395,-2.557,-2.5519,-2.5881,-2.6458,-2.6136,-2.6567,-2.7292,-2.6761,-2.6877,-2.7188,-0.7536,-0.7739,-0.8003,-0.8335,-0.8822,-0.9192,-0.9254,-1.0107,-1.093,-1.1456,-1.1785,-1.2164,-1.2677,-1.2902,-1.2948,-1.275,-1.2558,-1.2162,-1.1384,-1.1408,-1.13,-1.0922,-1.1582,-1.1982,-1.2221,-1.3246,-1.4345,-1.5583,-1.6344,-1.7194,0.0,0.0,0.0,0.0,-1.9092,-1.8846,-1.8632,-1.7853,-1.6991,-1.6,-1.5059,-1.4496,-1.4189,-1.4296,-1.4696,-1.5154,-1.5016,-1.5097,-1.5308,-1.5654,-1.5833,-1.5967,-1.5997,-1.6182,-1.6244,-1.5599,-1.5902,-1.6317,-1.5748,-1.5885,-1.6189,-1.6335,-1.5918,-1.5564,-1.5913,-1.5316,-1.469,-1.4704,-1.4482,-1.4229,-1.3886,-1.4418,-1.5186,-1.6187,-1.7269,-1.9226,-2.2707,-2.358,-2.4882,-2.7265,-2.8704,-2.9691,-3.0194,-3.1601,-3.2623,-3.3236,-3.3784,-3.4059,-3.4152,-3.2006,-3.0554,-3.0059,-2.7725,-2.6382,-2.6208,-2.5112,-2.4443,-2.4273,-2.4353,-2.4338,-2.429,-2.4769,-2.5399,-2.6094,-2.5705,-2.6323,-2.7556,-2.7041,-2.7234,-2.7783,-2.7536,-2.7335,-2.7181,-2.65,-2.7056,-2.8096,-0.8068,-0.8354,-0.8539,-0.8364,-0.8413,-0.8842,-0.9801,-0.9858,-1.0232,-1.1627,-1.157,-1.1394,-1.1454,-1.1543,-1.1286,-1.0707,-1.0514,-1.0277,-1.0092,-0.9976,-1.011,-1.0431,-1.0685,-1.102,-1.1421,-1.2158,-1.2773,-1.3502,-1.4949,-1.5827,-1.6192,0.0,0.0,0.0,0.0,-1.8692,-1.8265,-1.8193,-1.7367,-1.6116,-1.5089,-1.4839,-1.5027,-1.4862,-1.4631,-1.4506,-1.4531,-1.4727,-1.4977,-1.5125,-1.5352,-1.5656,-1.6142,-1.612,-1.5877,-1.5526,-1.5332,-1.5077,-1.4336,-1.4292,-1.4606,-1.4889,-1.4822,-1.4844,-1.5376,-1.4932,-1.4494,-1.4453,-1.405,-1.3738,-1.377,-1.4178,-1.4801,-1.6008,-1.8009,-2.0161,-2.2349,-2.3664,-2.4736,-2.5722,-2.7366,-2.9206,-3.1471,-3.1066,-3.171,-3.4361,-3.3224,-3.3007,-3.4354,-3.2307,-3.0882,-3.0706,-2.8791,-2.7437,-2.6636,-2.6451,-2.6396,-2.6458,-2.5955,-2.6107,-2.6764,-2.6031,-2.6438,-2.7622,-2.7225,-2.7906,-2.9312,-2.9017,-2.9154,-2.9433,-2.8293,-2.7806,-2.7705,-2.7041,-2.7433,-2.8292,-0.8144,-0.8555,-0.8806,-0.8539,-0.8539,-0.898,-0.9974,-1.0109,-1.0545,-1.1686,-1.1279,-1.0937,-1.1067,-1.0554,-1.0119,-0.9811,-0.9469,-0.9198,-0.9099,-0.8921,-0.9079,-0.9468,-0.9508,-0.968,-1.0074,-1.0461,-1.112,-1.1881,-1.3458,-1.451,-1.5068,0.0,0.0,0.0,0.0,-1.8303,-1.81,-1.7942,-1.7241,-1.6216,-1.5804,-1.5411,0.0,-1.5124,-1.4724,-1.4147,-1.4164,-1.4269,-1.4439,-1.466,-1.4925,-1.5243,-1.5541,-1.5426,-1.5132,-1.4605,-1.4246,-1.3896,-1.3214,-1.3093,-1.3241,-1.3425,-1.338,-1.3356,-1.376,-1.3656,-1.3395,-1.3261,-1.3225,-1.3097,-1.3011,-1.3636,-1.4835,-1.6509,-1.8629,-2.0714,-2.2418,-2.3999,-2.5229,-2.5712,-2.6936,-2.8625,-3.0823,-3.0614,-3.146,-3.4157,-3.3296,-3.3382,-3.4787,-3.2853,-3.1621,-3.1485,-3.0002,-2.8982,-2.848,-2.8543,-2.8654,-2.8823,-2.8383,-2.846,-2.8946,-2.8436,-2.8602,-2.9311,-2.8946,-2.9286,-3.0075,-2.9591,-2.9574,-2.9674,-2.8549,-2.832,-2.8534,-2.7795,-2.8316,-2.931,-0.8042,-0.8501,-0.8856,-0.8751,-0.881,-0.9104,-0.9718,-1.0248,-1.0804,-1.1263,-1.0612,-1.0252,-1.0615,-0.9612,-0.8974,-0.9162,-0.8752,-0.8431,-0.8182,-0.8069,-0.8076,-0.8208,-0.8249,-0.8399,-0.8551,-0.8824,-0.9508,-1.0622,-1.1893,-1.3131,0.0,0.0,0.0,0.0,0.0,-1.7841,-1.8055,-1.7372,-1.6883,-1.6505,-1.67,-1.6128,-1.5114,-1.542,-1.4898,-1.4037,-1.388,-1.3834,-1.3912,-1.4133,-1.4493,-1.4812,-1.4532,-1.4365,-1.4165,-1.3304,-1.2937,-1.2683,-1.2219,-1.2083,-1.2091,-1.2129,-1.1896,-1.17,-1.1761,-1.1848,-1.1855,-1.1718,-1.2116,-1.2388,-1.2011,-1.3187,-1.5004,-1.7194,-1.8946,-2.0629,-2.2311,-2.4098,-2.5422,-2.6054,-2.6629,0.0,-2.8885,-2.9724,-3.1043,-3.3083,-3.3533,-3.4148,-3.5302,-3.3642,-3.2664,-3.2581,-3.1421,-3.0904,-3.0994,-3.1118,-3.1235,-3.1372,-3.1261,-3.1137,-3.0969,-3.0958,-3.0917,-3.0861,-3.0479,-3.0304,-3.0195,-2.9613,-2.9271,-2.9184,-2.8587,-2.8808,-2.9339,-2.8578,-2.9358,-3.0585,-0.82,-0.8562,-0.8802,-0.8608,-0.8313,-0.8294,-0.8703,-0.8655,-0.8813,-0.9338,-0.8606,-0.7992,-0.7927,-0.7716,-0.7397,-0.7021,-0.7038,-0.6996,-0.681,-0.6928,-0.7155,-0.7443,-0.7571,-0.7638,-0.771,-0.8051,-0.872,-0.9653,-1.0578,-1.1857,0.0,0.0,0.0,0.0,0.0,-1.799,-1.8185,-1.7497,-1.7269,-1.7317,-1.6929,-1.6592,-1.6235,-1.6202,-1.5405,-1.4205,-1.3963,-1.3841,-1.3791,-1.3455,-1.3715,-1.4099,-1.3643,-1.3474,-1.3256,-1.2463,-1.1859,-1.1438,-1.099,-1.0895,-1.0963,-1.1373,-1.1128,-1.0805,-1.0766,-1.0918,-1.1009,-1.1009,-1.1163,-1.1404,-1.1873,-1.3302,-1.4967,-1.6668,-1.7888,-1.9184,-2.0743,-2.1975,-2.307,-2.3864,-2.4389,-2.5197,-2.6449,-2.7194,-2.9161,-3.2721,-3.254,-3.3186,-3.5277,-3.4711,-3.4343,-3.4087,-3.3543,-3.3167,-3.301,-3.3794,-3.433,-3.4514,-3.3777,-3.333,-3.3036,-3.1418,-3.0847,-3.1076,-3.0149,-3.0026,-3.0505,-3.0155,-2.9735,-2.9346,-2.9373,-2.9503,-2.9632,-2.8948,-2.9583,-3.0613,-0.8228,-0.8447,-0.8543,-0.8047,-0.8005,-0.7907,-0.7532,-0.7188,-0.7401,-0.8414,-0.7912,-0.7389,-0.7183,-0.6608,-0.61,-0.575,-0.5773,-0.5767,-0.5663,-0.588,-0.6108,-0.6415,-0.6349,-0.6388,-0.6388,-0.6543,-0.7045,-0.7983,-0.9355,-1.0869,0.0,0.0,0.0,-1.6894,0.0,-1.768,-1.7988,-1.7436,-1.7308,-1.7496,-1.7222,-1.6695,-1.5891,-1.5722,-1.4831,-1.3559,-1.3192,-1.3064,-1.3042,-1.2761,-1.2791,-1.2861,-1.2736,-1.251,-1.2139,-1.1554,-1.1015,-1.0506,-1.0166,-1.0151,-1.0277,-1.0493,-1.0425,-1.0203,-1.0021,-1.0158,-1.0364,-1.0364,-1.0529,-1.0975,-1.1848,-1.3135,-1.4462,-1.5521,-1.6894,-1.8296,-1.9462,-2.0862,-2.1931,-2.2709,-2.3107,-2.4035,-2.5696,-2.6351,-2.803,-3.1342,-3.2017,-3.324,-3.5531,-3.5644,-3.5724,-3.6049,-3.5666,-3.5422,-3.5423,-3.563,-3.5763,-3.584,-3.4396,-3.3587,-3.316,-3.147,-3.0761,-3.0876,-3.0145,-2.9771,-2.971,-2.9251,-2.8966,-2.8824,-2.9053,-2.9465,-2.9909,-2.9218,-2.9611,-3.038,-0.8075,-0.8169,-0.8048,-0.7489,-0.7576,-0.7362,-0.6474,-0.6006,-0.6183,-0.7471,-0.7143,-0.6763,-0.6673,-0.5711,-0.5054,-0.5086,-0.4895,-0.4836,-0.4844,-0.5048,-0.5256,-0.5328,-0.5215,-0.5171,-0.5125,-0.5078,-0.5526,-0.6561,-0.8159,-0.971,-1.1325,0.0,0.0,-1.6277,-1.6906,-1.7235,-1.7372,-1.6976,-1.6829,-1.6879,-1.6833,-1.6143,-1.509,-1.4821,-1.3942,-1.279,-1.2278,-1.1989,-1.1879,-1.1707,-1.1723,-1.183,-1.1727,-1.1407,-1.1072,-1.0656,-1.0167,-0.9651,-0.9347,-0.9391,-0.9552,-0.9722,-0.9748,-0.9693,-0.9499,-0.9693,-0.9919,-0.9919,-1.0204,-1.075,-1.1768,-1.2702,-1.3598,-1.4547,-1.589,-1.7261,-1.8311,-1.96,-2.0766,-2.1608,-2.2025,-2.3047,-2.5033,-2.5947,-2.7442,-2.9929,-3.1609,-3.3458,-3.576,-3.6243,-3.678,-3.7525,-3.747,-3.7297,-3.7175,-3.6684,-3.6334,-3.6016,-3.4213,-3.3063,-3.2449,-3.109,-3.0297,-2.9971,-2.9626,-2.9182,-2.8718,-2.8217,-2.8137,-2.8332,-2.8653,-2.9313,-2.999,-2.9419,-2.9609,-2.999,-0.7833,-0.7605,-0.737,-0.718,-0.6641,-0.6156,-0.5814,-0.5249,-0.5031,-0.5686,-0.5008,-0.4692,-0.5173,-0.4707,-0.4578,-0.4955,-0.4738,-0.4559,-0.4635,-0.4569,-0.4495,-0.4621,-0.4736,-0.4703,-0.4662,-0.4675,-0.5087,-0.6099,-0.6998,-0.8404,-1.0384,-1.2078,-1.3943,-1.6052,-1.6978,-1.6879,-1.6091,-1.5762,-1.5484,-1.5093,-1.476,-1.4499,-1.4295,-1.3902,-1.3204,-1.2385,-1.164,-1.0886,-1.0148,-0.9727,-1.0494,-1.1475,-1.0651,-1.0293,-1.0149,-0.9819,-0.9347,-0.8771,-0.819,-0.8287,-0.867,-0.9212,-0.9061,-0.8866,-0.9181,-0.9381,-0.9518,-0.9518,-1.0127,-1.0829,-1.1456,-1.1899,-1.2682,-1.4292,-1.475,-1.5517,-1.6954,-1.7613,-1.841,-1.9638,-2.05,-2.1549,-2.2997,-2.5289,-2.739,-2.9281,-3.1093,-3.3264,-3.5846,-3.6258,-3.6849,-3.7749,-3.834,-3.8169,-3.7089,-3.6831,-3.6108,-3.4918,-3.3615,-3.2353,-3.1158,-3.0021,-2.8989,-2.8026,-2.7891,-2.7876,-2.7931,-2.8118,-2.8365,-2.8685,-2.8982,-2.9277,-2.9553,-2.9624,-2.9595,-2.9457,-0.71,-0.6912,-0.661,-0.6146,-0.5893,-0.5469,-0.4703,-0.4494,-0.4314,-0.4088,-0.4054,-0.4045,-0.4038,-0.3931,-0.384,-0.3776,-0.3848,-0.3758,-0.3497,-0.354,-0.3645,-0.3612,-0.3447,-0.3416,-0.3666,-0.3511,-0.3792,-0.4527,-0.5565,-0.707,-0.9061,-1.121,-1.3279,-1.5129,-1.533,-1.5149,-1.4653,-1.4298,-1.4007,-1.3836,-1.3685,-1.3532,-1.3375,-1.3077,-1.2398,-1.1547,-1.0864,-1.0205,-0.9538,-0.8863,-0.9174,-0.9776,-0.9436,-0.9206,-0.9078,-0.8779,-0.8508,-0.8196,-0.7777,-0.8003,-0.8391,-0.8734,-0.8827,-0.894,-0.9216,-0.9333,-0.9456,-0.9627,-1.0198,-1.0749,-1.1035,-1.1622,-1.2311,-1.2986,-1.3571,-1.4403,-1.5732,-1.6187,-1.6853,-1.8327,-1.9358,-2.0621,-2.2332,-2.4892,-2.7096,-2.8431,-3.1312,-3.4033,-3.63,-3.727,-3.7991,-3.871,-3.8418,-3.7824,-3.6904,-3.5441,-3.414,-3.3142,-3.1397,-2.9987,-2.8924,-2.7771,-2.7086,-2.6862,-2.6961,-2.7414,-2.8088,-2.8301,-2.8527,-2.8858,-2.9198,-2.9486,-2.9694,-2.9738,-2.9567,-2.914,-0.6476,-0.642,-0.6128,-0.5276,-0.5157,-0.4838,-0.3767,-0.3764,-0.3684,-0.2975,-0.3332,-0.3577,-0.3299,-0.3246,-0.3193,-0.2914,-0.3033,-0.3056,-0.2849,-0.2876,-0.2834,-0.2784,-0.2474,-0.2427,-0.2654,-0.2569,-0.2744,-0.3182,-0.4336,-0.5923,-0.7803,-1.0436,-1.2394,-1.3631,-1.3265,-1.3024,-1.283,-1.2453,-1.23,-1.2351,-1.2369,-1.2422,-1.2428,-1.2097,-1.1532,-1.0751,-1.0066,-0.9473,-0.8954,-0.8184,-0.8089,-0.8307,-0.848,-0.8384,-0.8172,-0.8047,-0.7871,-0.761,-0.7354,-0.7701,-0.8178,-0.8312,-0.8675,-0.9042,-0.9414,-0.9537,-0.9642,-0.9869,-1.0212,-1.052,-1.0673,-1.1318,-1.1899,-1.2272,-1.2759,-1.3543,-1.4763,-1.5042,-1.5666,-1.7154,-1.8482,-1.994,-2.1845,-2.4546,-2.6623,-2.7868,-3.144,-3.4186,-3.5839,-3.7182,-3.8021,-3.8289,-3.7742,-3.6797,-3.5522,-3.3575,-3.2097,-3.1174,-2.9083,-2.778,-2.713,-2.6094,-2.5854,-2.6263,-2.6572,-2.7303,-2.8317,-2.8622,-2.8732,-2.879,-2.915,-2.9302,-2.9237,-2.9323,-2.9081,-2.8641,-0.6031,-0.6204,-0.6095,-0.4727,-0.4525,-0.4193,-0.3255,-0.3167,-0.3031,-0.2501,-0.2684,-0.2905,-0.2905,-0.2687,-0.2631,-0.285,-0.2462,-0.2501,-0.3179,-0.2609,-0.2251,-0.2191,-0.2189,-0.2113,-0.182,-0.1963,-0.2129,-0.24,-0.3466,-0.4932,-0.675,-0.9503,-1.1128,-1.1735,-1.112,-1.0703,-1.0415,-1.0151,-1.0188,-1.0419,-1.053,-1.093,-1.1434,-1.0945,-1.0565,-1.0185,-0.9193,-0.8574,-0.8108,-0.7517,-0.7269,-0.7328,-0.7996,-0.7853,-0.7473,-0.7793,-0.7503,-0.7031,-0.6756,-0.7187,-0.7777,-0.8025,-0.8457,-0.9026,-0.9822,-0.9959,-0.9962,-1.0249,-1.0053,-0.9972,-1.0504,-1.0748,-1.123,-1.2296,-1.2529,-1.2943,-1.4087,-1.4223,-1.4747,-1.6023,-1.7712,-1.9519,-2.1352,-2.3902,-2.6163,-2.781,-3.111,-3.3303,-3.3926,-3.5492,-3.6284,-3.5956,-3.6163,-3.5096,-3.2452,-3.1392,-3.0213,-2.9017,-2.6985,-2.6094,-2.6208,-2.5448,-2.5589,-2.6426,-2.6814,-2.7576,-2.8559,-2.9059,-2.892,-2.8414,-2.8773,-2.8493,-2.7948,-2.8171,-2.8139,-2.7928,-0.5634,-0.5455,-0.5242,-0.4672,-0.4059,-0.3585,-0.3481,-0.2901,-0.2399,-0.23,-0.2559,-0.2656,-0.2305,-0.2531,-0.2707,-0.2703,-0.2541,-0.2218,-0.1643,-0.1606,-0.1456,-0.1,-0.1011,-0.1158,-0.1323,-0.1692,-0.2025,-0.2147,-0.3906,-0.5769,-0.7563,-0.8586,-0.9364,-0.9907,-0.9531,-0.9302,-0.915,-0.9059,-0.9162,-0.937,-0.9489,-0.9827,-1.0253,-0.9988,-0.9678,-0.9341,-0.8702,-0.8104,-0.7587,-0.7085,-0.6744,-0.6541,-0.6811,-0.702,-0.7081,-0.6689,-0.6701,-0.6756,-0.6544,-0.6864,-0.7402,-0.7717,-0.8245,-0.8808,-0.9324,-0.9643,-0.9882,-1.0028,-1.0117,-1.016,-1.0367,-1.0534,-1.0949,-1.1813,-1.1921,-1.2401,-1.3696,-1.3899,-1.448,-1.6284,-1.7822,-1.9427,-2.1255,-2.3678,-2.5551,-2.6486,-2.9852,-3.2616,-3.4415,-3.6111,-3.6845,-3.6396,-3.5037,-3.3327,-3.1442,-2.9212,-2.7623,-2.6819,-2.5596,-2.5055,-2.5154,-2.4772,-2.5369,-2.6831,-2.7225,-2.8077,-2.9182,-2.9499,-2.9274,-2.8757,-2.9009,-2.8706,-2.8201,-2.8373,-2.808,-2.762,-0.5322,-0.5157,-0.4866,-0.4193,-0.3233,-0.2637,-0.3001,-0.243,-0.1915,-0.1801,-0.2191,-0.227,-0.1888,-0.2012,-0.2067,-0.2017,-0.2048,-0.1715,-0.0924,-0.082,-0.0654,-0.0243,-0.0307,-0.0619,-0.1185,-0.1532,-0.1828,-0.2025,-0.4002,-0.5675,-0.7094,-0.747,-0.7924,-0.8392,-0.7965,-0.7909,-0.8081,-0.8061,-0.8293,-0.874,-0.883,-0.9074,-0.9298,-0.8982,-0.8715,-0.8422,-0.7816,-0.731,-0.6891,-0.6534,-0.6162,-0.5854,-0.587,-0.6066,-0.6255,-0.618,-0.6218,-0.6273,-0.6273,-0.6544,-0.6993,-0.7618,-0.8043,-0.8438,-0.8871,-0.9234,-0.9478,-0.9536,-0.96,-0.9734,-1.003,-1.017,-1.0622,-1.1537,-1.1773,-1.2245,-1.3369,-1.3717,-1.4568,-1.6488,-1.78,-1.9354,-2.1303,-2.305,-2.4374,-2.5016,-2.8245,-3.0898,-3.2482,-3.4913,-3.5923,-3.5081,-3.3436,-3.1516,-2.9388,-2.7603,-2.6197,-2.5149,-2.4546,-2.4485,-2.4849,-2.4682,-2.5576,-2.7257,-2.7671,-2.8434,-2.9291,-2.9534,-2.909,-2.8289,-2.8566,-2.8196,-2.7603,-2.7788,-2.7559,-2.7175,-0.5057,-0.5093,-0.4805,-0.3484,-0.219,-0.1435,-0.1885,-0.1749,-0.1485,-0.1092,-0.1589,-0.1883,-0.1502,-0.1183,-0.0932,-0.0894,-0.1035,-0.1001,-0.0782,-0.023,0.0059,0.0059,-0.006,-0.0483,-0.1293,-0.1345,-0.1611,-0.2063,-0.3653,-0.484,-0.5642,-0.6332,-0.6879,-0.7151,-0.6559,-0.6616,-0.7137,-0.7079,-0.7585,-0.8393,-0.8418,-0.8504,-0.856,-0.785,-0.7606,-0.7483,-0.6742,-0.6325,-0.6154,-0.5923,-0.5545,-0.5231,-0.5115,-0.5062,-0.5179,-0.6055,-0.5946,-0.5618,-0.5891,-0.6123,-0.6614,-0.7583,-0.7785,-0.7954,-0.846,-0.8678,-0.8776,-0.8792,-0.8652,-0.8777,-0.9542,-0.9856,-1.0362,-1.1462,-1.1908,-1.2444,-1.3194,-1.3803,-1.4928,-1.6749,-1.783,-1.9313,-2.1487,-2.2207,-2.2907,-2.3725,-2.6447,-2.8271,-2.8784,-3.2194,-3.3514,-3.2327,-3.1588,-2.969,-2.6592,-2.6505,-2.5649,-2.4091,-2.3918,-2.4352,-2.5232,-2.5183,-2.6086,-2.7687,-2.8176,-2.8549,-2.8902,-2.9213,-2.8506,-2.7284,-2.7612,-2.7194,-2.6487,-2.6657,-2.6759,-2.6826,-0.4801,-0.4426,-0.4205,-0.4077,-0.1977,-0.0359,-0.0494,-0.0135,-0.0,-0.0211,-0.1253,-0.1592,-0.052,-0.0524,-0.0436,0.0049,-0.0099,0.0102,0.0806,0.0489,0.0442,0.0851,0.0279,-0.0111,-0.034,-0.0701,-0.1513,-0.2789,-0.3534,-0.431,-0.508,-0.5394,-0.569,-0.6062,-0.6053,-0.6263,-0.6586,-0.6807,-0.7015,-0.7276,-0.7321,-0.7184,-0.6867,-0.681,-0.6735,-0.6551,-0.6079,-0.5914,-0.5802,-0.5362,-0.4927,-0.4558,-0.4692,-0.4483,-0.4408,-0.5179,-0.5344,-0.5234,-0.5277,-0.5605,-0.6072,-0.6667,-0.7341,-0.7912,-0.8244,-0.826,-0.8294,-0.8737,-0.8827,-0.9032,-0.9554,-0.9862,-1.0434,-1.1676,-1.2005,-1.26,-1.3909,-1.4819,-1.5998,-1.7765,-1.8975,-2.0292,-2.1786,-2.2227,-2.2911,-2.4202,-2.5317,-2.687,-2.9013,-2.961,-3.0383,-3.1366,-3.051,-2.8911,-2.6461,-2.5383,-2.4547,-2.3956,-2.3487,-2.4489,-2.6669,-2.5854,-2.6491,-2.8208,-2.8107,-2.8289,-2.8605,-2.8837,-2.8471,-2.7737,-2.7929,-2.7572,-2.6956,-2.7053,-2.7511,-2.7989,-0.4678,-0.414,-0.3398,-0.2201,-0.0538,0.0583,0.036,0.0539,0.051,0.005,-0.0255,-0.0148,0.0543,0.046,0.0559,0.1066,0.0778,0.0715,0.1115,0.1081,0.1038,0.0986,0.0645,0.0159,-0.0314,-0.0741,-0.1503,-0.2623,-0.3091,-0.3706,-0.4372,-0.4626,-0.4958,-0.536,-0.5413,-0.5639,-0.5943,-0.608,-0.6215,-0.6416,-0.6392,-0.6209,-0.591,-0.5793,-0.5701,-0.5663,-0.5247,-0.5088,-0.5069,-0.4715,-0.435,-0.4089,-0.4104,-0.3905,-0.3688,-0.4239,-0.4515,-0.4643,-0.4822,-0.5019,-0.53,-0.5986,-0.6798,-0.7471,-0.7707,-0.7734,-0.7947,-0.853,-0.8788,-0.9062,-0.9652,-0.9996,-1.0614,-1.1976,-1.278,-1.3715,-1.5053,-1.63,-1.7628,-1.9069,-1.9846,-2.0751,-2.1901,-2.1898,-2.2247,-2.3418,-2.4187,-2.5387,-2.7163,-2.7434,-2.8306,-3.0064,-2.9174,-2.7605,-2.5289,-2.4028,-2.3603,-2.4002,-2.3644,-2.4641,-2.6811,-2.5979,-2.6574,-2.8197,-2.7964,-2.7994,-2.8253,-2.8433,-2.8203,-2.7688,-2.7786,-2.7624,-2.739,-2.7861,-2.8307,-2.8718,-0.4411,-0.3944,-0.2635,0.0403,0.1257,0.13,0.0674,0.0827,0.0832,0.0405,0.0823,0.1285,0.1481,0.1533,0.1716,0.2107,0.1631,0.1204,0.1047,0.151,0.1573,0.1058,0.1051,0.056,-0.0382,-0.0773,-0.1321,-0.1999,-0.2452,-0.2994,-0.3527,-0.3917,-0.4349,-0.4759,-0.4699,-0.4934,-0.5265,-0.526,-0.5423,-0.5636,-0.5598,-0.546,-0.5229,-0.4819,-0.4706,-0.4768,-0.4314,-0.416,-0.4134,-0.3991,-0.3773,-0.3545,-0.3539,-0.3294,-0.3079,-0.337,-0.3658,-0.3964,-0.4247,-0.4367,-0.4577,-0.5475,-0.6294,-0.6868,-0.7104,-0.7353,-0.7792,-0.8408,-0.8722,-0.9145,-0.9901,-1.0212,-1.0882,-1.2364,-1.3768,-1.5071,-1.6213,-1.7889,-1.9316,-2.0242,-2.0577,-2.1045,-2.1758,-2.1393,-2.1375,-2.202,-2.2981,-2.3884,-2.4695,-2.5405,-2.6563,-2.8175,-2.7511,-2.6044,-2.3789,-2.2904,-2.3054,-2.4217,-2.404,-2.4894,-2.6567,-2.5926,-2.6488,-2.7886,-2.7707,-2.769,-2.7828,-2.815,-2.7984,-2.7513,-2.7679,-2.7822,-2.7982,-2.8764,-2.926,-2.9556,-0.34,-0.3385,-0.2408,0.1298,0.202,0.1615,0.0314,0.1407,0.2239,0.1919,0.0896,0.0665,0.1858,0.2183,0.2437,0.2734,0.2341,0.2125,0.213,0.1902,0.1734,0.173,0.163,0.1399,0.1,0.0309,-0.033,-0.1016,-0.1468,-0.2077,-0.2763,-0.3024,-0.3471,-0.4062,-0.4209,-0.4373,-0.4565,-0.4952,-0.505,-0.4882,-0.4919,-0.4635,-0.4194,-0.4006,-0.3929,-0.3865,-0.3383,-0.3299,-0.3335,-0.3274,-0.2868,-0.2556,-0.3014,-0.291,-0.2647,-0.2838,-0.3152,-0.3384,-0.3282,-0.3716,-0.4402,-0.5013,-0.5855,-0.6506,-0.6734,-0.7384,-0.8103,-0.8626,-0.9094,-0.9588,-1.0168,-1.0604,-1.1333,-1.2805,-1.3958,-1.5296,-1.6983,-1.8976,-2.035,-2.0618,-2.1354,-2.1614,-2.1062,-2.0815,-2.0749,-2.097,-2.1362,-2.2185,-2.3502,-2.3347,-2.377,-2.508,-2.5171,-2.4587,-2.3252,-2.2944,-2.3435,-2.4687,-2.4371,-2.5332,-2.7326,-2.6368,-2.6508,-2.7491,-2.7267,-2.7242,-2.7373,-2.8363,-2.8451,-2.7982,-2.8741,-2.9105,-2.9229,-2.9382,-3.0345,-3.1556,-0.2658,-0.2144,-0.1076,0.172,0.2201,0.1615,-0.0135,0.1669,0.3402,0.4002,0.2832,0.2351,0.3398,0.3269,0.3288,0.3788,0.3622,0.3478,0.3478,0.2815,0.2397,0.2447,0.2259,0.1893,0.138,0.0604,-0.0,-0.036,-0.0778,-0.1168,-0.158,-0.1833,-0.2223,-0.2706,-0.2964,-0.3196,-0.3451,-0.3784,-0.3864,-0.3768,-0.3932,-0.3734,-0.3304,-0.3336,-0.3322,-0.3209,-0.2741,-0.2563,-0.2605,-0.2551,-0.2375,-0.224,-0.2354,-0.2296,-0.2312,-0.2623,-0.3075,-0.3461,-0.3584,-0.4075,-0.468,-0.5338,-0.5881,-0.649,-0.7304,-0.7785,-0.8398,-0.9426,-0.9808,-1.0161,-1.0681,-1.1059,-1.1597,-1.2374,-1.4301,-1.6186,-1.7604,-2.0098,-2.1801,-2.1935,-2.2051,-2.1843,-2.1248,-2.0639,-2.0431,-2.0866,-2.1148,-2.1761,-2.285,-2.2538,-2.2588,-2.3133,-2.3612,-2.3787,-2.3545,-2.3345,-2.3657,-2.4407,-2.4729,-2.5504,-2.6661,-2.6432,-2.6689,-2.7301,-2.7353,-2.7461,-2.7642,-2.8293,-2.8429,-2.8254,-2.8712,-2.8919,-2.9008,-2.9521,-3.0505,-3.1574,-0.2307,-0.0995,0.038,0.1753,0.202,0.1569,0.0314,0.2408,0.4368,0.5106,0.467,0.4369,0.4609,0.4244,0.4208,0.4709,0.4539,0.4427,0.4552,0.3634,0.3072,0.3006,0.2697,0.2288,0.1687,0.1042,0.06,0.0334,0.0318,0.0112,-0.0196,-0.041,-0.08,-0.1274,-0.1572,-0.1961,-0.2387,-0.2474,-0.2621,-0.2811,-0.2854,-0.2664,-0.2387,-0.2614,-0.2635,-0.2534,-0.2132,-0.1978,-0.2,-0.1943,-0.1961,-0.2017,-0.1852,-0.1906,-0.2088,-0.2528,-0.3228,-0.3965,-0.4288,-0.462,-0.5027,-0.569,-0.621,-0.6798,-0.7907,-0.8431,-0.9005,-1.0168,-1.0555,-1.0744,-1.1059,-1.1373,-1.1729,-1.2311,-1.4613,-1.6753,-1.8078,-2.0698,-2.251,-2.2605,-2.2304,-2.1864,-2.1223,-2.0527,-2.0271,-2.0694,-2.0966,-2.1433,-2.2115,-2.2016,-2.1988,-2.2188,-2.2658,-2.3155,-2.3737,-2.3732,-2.3894,-2.4313,-2.5114,-2.5684,-2.612,-2.6538,-2.6908,-2.7258,-2.76,-2.7836,-2.8045,-2.8488,-2.8594,-2.8521,-2.8985,-2.9156,-2.9272,-3.0173,-3.1052,-3.1889,-0.2466,-0.0392,0.1323,0.1431,0.1478,0.1746,0.2506,0.4272,0.5106,0.3913,0.5193,0.5718,0.4548,0.4947,0.5214,0.5164,0.4526,0.435,0.4927,0.3894,0.33,0.3357,0.2942,0.2645,0.2506,0.2389,0.199,0.1313,0.2204,0.2206,0.1332,0.1272,0.0814,0.0044,-0.0401,-0.1021,-0.1679,-0.1418,-0.178,-0.2482,-0.1804,-0.1487,-0.1446,-0.171,-0.1755,-0.1668,-0.1524,-0.1524,-0.1623,-0.1401,-0.1459,-0.1684,-0.1741,-0.1906,-0.2096,-0.2651,-0.3702,-0.4737,-0.5005,-0.5011,-0.5153,-0.5756,-0.6732,-0.7707,-0.8102,-0.9204,-1.0238,-1.0681,-1.0933,-1.1122,-1.124,-1.1303,-1.1806,-1.332,-1.4628,-1.6289,-1.8501,-2.0252,-2.1398,-2.1497,-2.1875,-2.1576,-2.0215,-2.025,-2.0178,-1.9726,-2.0152,-2.0601,-2.0941,-2.1162,-2.1622,-2.2445,-2.2334,-2.2598,-2.3246,-2.3782,-2.4313,-2.4863,-2.5481,-2.5977,-2.6383,-2.6923,-2.7227,-2.7409,-2.7933,-2.8201,-2.8336,-2.9417,-2.9391,-2.8839,-3.0458,-3.1093,-3.1185,-3.2093,-3.2985,-3.3806,-0.1721,-0.0453,0.0824,0.17,0.1664,0.2121,0.3951,0.4231,0.4354,0.4552,0.5065,0.5356,0.5231,0.5257,0.5365,0.5631,0.4341,0.3824,0.4455,0.3651,0.3225,0.3327,0.2959,0.2706,0.254,0.2313,0.1957,0.1449,0.1957,0.1924,0.1389,0.1339,0.1096,0.0621,0.0255,-0.0129,-0.0558,-0.0558,-0.0864,-0.1223,-0.1025,-0.1066,-0.1276,-0.1538,-0.1563,-0.142,-0.1526,-0.1636,-0.1685,-0.1347,-0.1459,-0.1685,-0.1629,-0.1793,-0.2209,-0.3378,-0.4734,-0.5881,-0.6137,-0.6141,-0.621,-0.7003,-0.7777,-0.8544,-0.9332,-0.9913,-1.0428,-1.087,-1.1059,-1.1059,-1.0989,-1.1178,-1.157,-1.2258,-1.3956,-1.5821,-1.7478,-1.9727,-2.1146,-2.1016,-2.1316,-2.0997,-1.9622,-1.9843,-2.0009,-1.986,-2.042,-2.0934,-2.1251,-2.1246,-2.1503,-2.2162,-2.2338,-2.2876,-2.3752,-2.4395,-2.4942,-2.5335,-2.5964,-2.6505,-2.7051,-2.7307,-2.7672,-2.8083,-2.8264,-2.8492,-2.8798,-2.9741,-2.9936,-2.9819,-3.1035,-3.1458,-3.147,-3.1906,-3.2563,-3.3334,-0.1142,0.033,0.1612,0.1746,0.2267,0.3008,0.3959,0.389,0.3955,0.4587,0.4652,0.4843,0.5323,0.5169,0.5127,0.5202,0.4008,0.3319,0.346,0.3253,0.3218,0.3347,0.2957,0.2723,0.2651,0.2139,0.1814,0.1684,0.1812,0.1756,0.1533,0.1532,0.1461,0.1246,0.1035,0.0718,0.0342,0.0299,0.0132,-0.0183,-0.0275,-0.0461,-0.07,-0.1152,-0.1342,-0.1443,-0.1638,-0.1745,-0.1796,-0.1346,-0.1515,-0.1852,-0.1628,-0.203,-0.2811,-0.4165,-0.552,-0.6664,-0.7111,-0.7386,-0.7652,-0.8042,-0.8619,-0.9256,-0.997,-1.0364,-1.0681,-1.0996,-1.1059,-1.0996,-1.0933,-1.1059,-1.1339,-1.1944,-1.3619,-1.5374,-1.6759,-1.8946,-2.0406,-2.0413,-2.063,-2.0334,-1.9177,-1.9423,-1.9655,-1.9634,-2.0167,-2.0725,-2.1259,-2.1187,-2.1427,-2.2061,-2.2717,-2.3496,-2.4335,-2.4948,-2.5481,-2.5855,-2.6488,-2.7017,-2.7457,-2.776,-2.8119,-2.8543,-2.8551,-2.8919,-2.9471,-3.0088,-3.0503,-3.0863,-3.1728,-3.2038,-3.2009,-3.2386,-3.2878,-3.3403,-0.0907,0.2202,0.4173,0.1574,0.3243,0.4362,0.2508,0.3447,0.4183,0.3594,0.4033,0.4461,0.459,0.4731,0.4518,0.3779,0.3511,0.2964,0.1983,0.2713,0.3285,0.3491,0.2932,0.2723,0.2982,0.2102,0.1778,0.2117,0.2056,0.2037,0.2115,0.2109,0.2052,0.2017,0.1935,0.1549,0.094,0.1254,0.1101,0.0619,0.0525,0.0488,0.0403,-0.0403,-0.1084,-0.1599,-0.1653,-0.1851,-0.1903,-0.1458,-0.1681,-0.2128,-0.174,-0.2634,-0.3951,-0.4847,-0.5986,-0.7061,-0.7787,-0.8624,-0.9139,-0.8619,-0.9134,-0.9773,-0.9773,-1.0478,-1.1059,-1.1059,-1.0933,-1.0926,-1.124,-1.1052,-1.127,-1.267,-1.3752,-1.4984,-1.656,-1.7972,-1.8986,-1.9445,-1.969,-1.9546,-1.8861,-1.8972,-1.9021,-1.8805,-1.9101,-1.9677,-2.0557,-2.0905,-2.1435,-2.2156,-2.3427,-2.4346,-2.4906,-2.5366,-2.5872,-2.6418,-2.7066,-2.7457,-2.7642,-2.8237,-2.8543,-2.8644,-2.8887,-2.9531,-3.042,-3.0572,-3.108,-3.1901,-3.2784,-3.3078,-3.3125,-3.3971,-3.434,-3.4427,0.1037,0.2218,0.3007,0.2626,0.2867,0.3057,0.2981,0.3109,0.3373,0.3796,0.3889,0.394,0.4043,0.4074,0.4169,0.432,0.3305,0.2498,0.2194,0.2959,0.3554,0.3837,0.3374,0.321,0.3411,0.2789,0.2567,0.2798,0.2925,0.2936,0.2857,0.2636,0.2609,0.2766,0.2251,0.1945,0.1748,0.1614,0.1238,0.0714,0.0667,0.0292,-0.0252,-0.0454,-0.0929,-0.1438,-0.1706,-0.1961,-0.2127,-0.2128,-0.2464,-0.2852,-0.2961,-0.3429,-0.4167,-0.5362,-0.616,-0.6941,-0.7984,-0.8497,-0.8821,-0.911,-0.9588,-0.9977,-1.0104,-1.0231,-1.0364,-1.0491,-1.0512,-1.0609,-1.1197,-1.1233,-1.1608,-1.2796,-1.3818,-1.4999,-1.6317,-1.7579,-1.8482,-1.8846,-1.908,-1.8975,-1.8249,-1.8711,-1.9026,-1.8877,-1.9838,-2.0599,-2.1,-2.103,-2.1272,-2.1838,-2.3128,-2.41,-2.4666,-2.5832,-2.6674,-2.7115,-2.7457,-2.7829,-2.8237,-2.8448,-2.9034,-2.9871,-2.9941,-3.0561,-3.1555,-3.2132,-3.2527,-3.287,-3.3691,-3.4008,-3.4023,-3.4334,-3.445,-3.4566,0.2042,0.2311,0.2344,0.2289,0.2472,0.2593,0.2496,0.2704,0.2982,0.3304,0.3166,0.3107,0.3257,0.3212,0.3261,0.3477,0.2603,0.2128,0.2366,0.3196,0.3858,0.4307,0.4011,0.3811,0.3834,0.3351,0.329,0.3686,0.3429,0.329,0.3216,0.2961,0.2882,0.2899,0.2477,0.2203,0.2064,0.1884,0.1529,0.1022,0.0925,0.0452,-0.0211,-0.0474,-0.0907,-0.1414,-0.1794,-0.2093,-0.2352,-0.2465,-0.2742,-0.3186,-0.3624,-0.4179,-0.4883,-0.6137,-0.6721,-0.7267,-0.8422,-0.8687,-0.8759,-0.9248,-0.96,-0.9813,-1.0007,-1.016,-1.0268,-1.0214,-1.0472,-1.0838,-1.1271,-1.1526,-1.2033,-1.3144,-1.4253,-1.5354,-1.6319,-1.7495,-1.8296,-1.841,-1.8591,-1.8494,-1.807,-1.8358,-1.8632,-1.8753,-1.9854,-2.0581,-2.085,-2.1306,-2.1758,-2.2198,-2.3801,-2.4876,-2.5391,-2.6692,-2.7439,-2.7619,-2.7926,-2.8407,-2.9098,-2.9296,-2.9973,-3.0995,-3.1043,-3.1656,-3.2585,-3.3029,-3.3443,-3.3843,-3.4308,-3.4517,-3.4561,-3.4539,-3.4561,-3.4692,0.2308,0.2444,0.2109,0.1176,0.2118,0.2591,0.1419,0.2232,0.2832,0.2368,0.2183,0.2188,0.2508,0.2338,0.2083,0.1864,0.1714,0.1853,0.2432,0.3365,0.4161,0.4744,0.4686,0.4526,0.4343,0.3931,0.4011,0.4625,0.3751,0.336,0.3418,0.3232,0.2998,0.2682,0.2604,0.2373,0.202,0.2109,0.1834,0.1413,0.1262,0.0843,0.0224,-0.0449,-0.101,-0.1572,-0.1903,-0.224,-0.2577,-0.2633,-0.2963,-0.3405,-0.4009,-0.4831,-0.585,-0.6926,-0.7453,-0.7864,-0.885,-0.8912,-0.8731,-0.9067,-0.9216,-0.9369,-0.9528,-1.0184,-1.0608,-1.0127,-1.0773,-1.1386,-1.1527,-1.19,-1.2553,-1.3744,-1.4933,-1.5898,-1.6599,-1.7661,-1.8341,-1.8244,-1.8242,-1.8242,-1.8242,-1.7975,-1.8094,-1.865,-1.9492,-2.0093,-2.0366,-2.1729,-2.2666,-2.3066,-2.5065,-2.6289,-2.6637,-2.7781,-2.8309,-2.8172,-2.8564,-2.9173,-3.0058,-3.0502,-3.1163,-3.1918,-3.2141,-3.2727,-3.3535,-3.3535,-3.3989,-3.4687,-3.4645,-3.4687,-3.4788,-3.4666,-3.4701,-3.4932,0.225,0.2081,0.1845,0.178,0.2073,0.212,0.1585,0.1933,0.2276,0.245,0.2078,0.2086,0.2888,0.2326,0.1978,0.2263,0.1954,0.1928,0.2331,0.3325,0.4072,0.446,0.471,0.5011,0.5376,0.4966,0.4782,0.4826,0.4468,0.4295,0.431,0.3852,0.3544,0.3341,0.2767,0.2352,0.2064,0.1658,0.1551,0.1616,0.1514,0.0896,-0.0,-0.0842,-0.1347,-0.1628,-0.1903,-0.235,-0.2963,-0.3796,-0.4346,-0.478,-0.5391,-0.5714,-0.6036,-0.7122,-0.7443,-0.7592,-0.8227,-0.8124,-0.7899,-0.8444,-0.854,-0.8743,-0.9428,-0.9807,-1.0094,-1.0268,-1.0783,-1.1502,-1.2363,-1.269,-1.3293,-1.4806,-1.5649,-1.6448,-1.7261,-1.7882,-1.8367,-1.8659,-1.8542,-1.8439,-1.8439,-1.8693,-1.9043,-1.9522,-2.0261,-2.0813,-2.1132,-2.2344,-2.3257,-2.3702,-2.5572,-2.6729,-2.7072,-2.8757,-2.9584,-2.9489,-2.9685,-2.9995,-3.0409,-3.1232,-3.1771,-3.2102,-3.2859,-3.3691,-3.4504,-3.4504,-3.4617,-3.4768,-3.4768,-3.4768,-3.4788,-3.4768,-3.5122,-3.5851,0.2751,0.2124,0.158,0.1777,0.1772,0.1691,0.1442,0.1747,0.2047,0.2245,0.1876,0.1807,0.2374,0.1814,0.1551,0.1884,0.2046,0.2156,0.2208,0.3094,0.3827,0.4299,0.4514,0.4902,0.5491,0.5226,0.5106,0.5081,0.489,0.4704,0.4503,0.4136,0.3672,0.3085,0.3042,0.2551,0.1748,0.1569,0.1504,0.1463,0.1059,0.0417,-0.0438,-0.1312,-0.1841,-0.2081,-0.2397,-0.3011,-0.3713,-0.4436,-0.4897,-0.5277,-0.5778,-0.5991,-0.6253,-0.7176,-0.7419,-0.7495,-0.8062,-0.7842,-0.7681,-0.8474,-0.8637,-0.8764,-0.9498,-0.9904,-1.0261,-1.0628,-1.1436,-1.2191,-1.2629,-1.3283,-1.4186,-1.5418,-1.623,-1.6995,-1.768,-1.8161,-1.8542,-1.8784,-1.8721,-1.8721,-1.8959,-1.9131,-1.9565,-2.0299,-2.1023,-2.1713,-2.2387,-2.3579,-2.4576,-2.5314,-2.6836,-2.7954,-2.8615,-2.9719,-3.0711,-3.1515,-3.1145,-3.1277,-3.1904,-3.246,-3.2993,-3.3449,-3.3979,-3.4472,-3.4888,-3.4849,-3.4849,-3.4849,-3.4809,-3.4829,-3.4887,-3.5243,-3.6085,-3.7209,0.3094,0.2118,0.1234,0.1451,0.1428,0.1328,0.1186,0.1605,0.1907,0.1956,0.17,0.1573,0.1676,0.1265,0.1099,0.1352,0.2001,0.2311,0.2085,0.2747,0.3417,0.4014,0.4059,0.4412,0.5176,0.5004,0.5036,0.5214,0.5023,0.4736,0.4329,0.4197,0.3555,0.2512,0.3074,0.2576,0.1344,0.1479,0.1357,0.0999,0.035,-0.0357,-0.1055,-0.1897,-0.2387,-0.2693,-0.3046,-0.3734,-0.4502,-0.4907,-0.5226,-0.5445,-0.5941,-0.6213,-0.6426,-0.7192,-0.7419,-0.758,-0.8008,-0.7949,-0.7943,-0.8844,-0.8995,-0.9155,-0.9897,-1.0368,-1.0733,-1.11,-1.2174,-1.3027,-1.2978,-1.3982,-1.5107,-1.5908,-1.6811,-1.753,-1.8042,-1.8503,-1.8812,-1.8874,-1.8959,-1.9163,-1.9486,-1.961,-2.0115,-2.1133,-2.179,-2.2587,-2.3618,-2.4847,-2.5985,-2.7002,-2.8166,-2.9253,-3.0277,-3.0652,-3.1703,-3.3346,-3.2718,-3.2777,-3.3463,-3.3715,-3.415,-3.4718,-3.4925,-3.502,-3.5001,-3.4965,-3.4946,-3.4927,-3.4849,-3.4964,-3.523,-3.6094,-3.7276,-3.8437,0.2358,0.1472,0.077,0.1048,0.1223,0.1247,0.1068,0.1336,0.1619,0.1721,0.1689,0.1642,0.1609,0.1247,0.1074,0.129,0.1734,0.1991,0.2013,0.2338,0.28,0.3399,0.3274,0.3649,0.466,0.4381,0.4451,0.487,0.4666,0.4409,0.4134,0.3874,0.3331,0.2506,0.2352,0.1812,0.094,0.0853,0.0599,0.0144,-0.0384,-0.1128,-0.208,-0.2642,-0.299,-0.3206,-0.3525,-0.4084,-0.4754,-0.5437,-0.5719,-0.5882,-0.6668,-0.6815,-0.6799,-0.7274,-0.7586,-0.7824,-0.7931,-0.8302,-0.8725,-0.9204,-0.9406,-0.9777,-1.0861,-1.1104,-1.1296,-1.1912,-1.266,-1.3431,-1.4266,-1.4903,-1.5696,-1.6883,-1.7625,-1.8149,-1.84,-1.8889,-1.9191,-1.9064,-1.9609,-1.9894,-1.9608,-2.0557,-2.145,-2.2005,-2.2439,-2.3172,-2.4292,-2.5428,-2.6506,-2.7551,-2.8525,-2.9558,-3.0628,-3.1481,-3.2486,-3.3658,-3.4282,-3.4245,-3.3696,-3.4471,-3.4507,-3.3991,-3.4751,-3.5092,-3.5075,-3.5094,-3.5075,-3.5075,-3.5001,-3.5439,-3.6293,-3.7646,-3.8297,-3.8577,0.2105,0.1352,0.0776,0.0833,0.0794,0.0811,0.1022,0.1142,0.124,0.1265,0.1198,0.1061,0.0834,0.062,0.0581,0.0782,0.1263,0.1674,0.1914,0.2194,0.2522,0.2878,0.2901,0.3265,0.407,0.3968,0.3973,0.4123,0.4242,0.414,0.3858,0.3599,0.2978,0.2117,0.2263,0.1635,0.0449,-0.0179,-0.0413,-0.0333,-0.0904,-0.178,-0.2735,-0.3026,-0.3444,-0.3903,-0.4588,-0.5121,-0.5624,-0.6009,-0.6273,-0.6436,-0.6707,-0.6789,-0.6934,-0.7645,-0.8133,-0.8381,-0.8309,-0.8567,-0.8928,-0.9555,-0.9917,-1.0372,-1.1569,-1.1935,-1.209,-1.2569,-1.332,-1.3947,-1.4103,-1.5122,-1.6059,-1.6499,-1.737,-1.8189,-1.8606,-1.895,-1.9178,-1.9116,-1.9383,-1.9701,-2.0067,-2.096,-2.1807,-2.2546,-2.3385,-2.4313,-2.5351,-2.6472,-2.7541,-2.8504,-2.9553,-3.0354,-3.0847,-3.2335,-3.3313,-3.3832,-3.4721,-3.4916,-3.4507,-3.4923,-3.492,-3.4594,-3.4994,-3.5164,-3.5143,-3.511,-3.5127,-3.52,-3.557,-3.6502,-3.7695,-3.8329,-3.881,-3.9274]},{"header":{"parameterUnit":"m.s-1","parameterCategory":1,"la1":30.6,"la2":28.766,"lo1":-90.7593,"lo2":-88.6598,"dy":0.0162,"dx":0.0183,"nx":116,"ny":114,"refTime":"2023-03-25T12:00:00:Z","depth":0,"parameterNumber":3,"parameterNumberName":"V-component_of_WINDS"},"data":[0.0,0.0,0.0,0.0,0.0,0.0,0.0,0.0,0.0,0.0,0.0,0.0,0.0,0.0,0.0,0.0,0.0,0.0,0.0,0.0,0.0,0.0,0.0,0.0,0.0,0.0,0.0,0.0,0.0,0.0,0.0,0.0,0.0,0.0,0.0,0.0,0.0,0.0,0.0,0.0,0.0,0.0,0.0,0.0,0.0,0.0,0.0,0.0,0.0,0.0,0.0,0.0,0.0,0.0,0.0,0.0,0.0,0.0,0.0,0.0,0.0,0.0,0.0,0.0,0.0,0.0,0.0,0.0,0.0,0.0,0.0,0.0,0.0,0.0,0.0,0.0,0.0,0.0,0.0,0.0,0.0,0.0,0.0,0.0,0.0,0.0,0.0,0.0,0.0,0.0,0.0,0.0,0.0,0.0,0.0,0.0,0.0,0.0,0.0,0.0,0.0,0.0,0.0,0.0,0.0,0.0,0.0,0.0,0.0,0.0,0.0,0.0,0.0,0.0,0.0,0.0,0.0,0.0,0.0,0.0,0.0,0.0,0.0,0.0,0.0,0.0,0.0,0.0,0.0,0.0,0.0,0.0,0.0,0.0,0.0,0.0,0.0,0.0,0.0,0.0,0.0,0.0,0.0,0.0,0.0,0.0,0.0,0.0,0.0,0.0,0.0,0.0,0.0,0.0,0.0,0.0,0.0,0.0,0.0,0.0,0.0,0.0,0.0,0.0,0.0,0.0,0.0,0.0,0.0,0.0,0.0,0.0,0.0,0.0,0.0,0.0,0.0,0.0,0.0,0.0,0.0,0.0,0.0,0.0,0.0,0.0,0.0,0.0,0.0,0.0,0.0,0.0,0.0,0.0,0.0,0.0,0.0,0.0,0.0,0.0,0.0,0.0,0.0,0.0,0.0,0.0,0.0,0.0,0.0,0.0,0.0,0.0,0.0,0.0,0.0,0.0,0.0,0.0,0.0,0.0,0.0,0.0,0.0,0.0,0.0,0.0,0.0,0.0,0.0,0.0,0.0,0.0,0.0,0.0,0.0,0.0,0.0,0.0,0.0,0.0,0.0,0.0,0.0,0.0,0.0,0.0,0.0,0.0,0.0,0.0,0.0,0.0,0.0,0.0,0.0,0.0,0.0,0.0,0.0,0.0,0.0,0.0,0.0,0.0,0.0,0.0,0.0,0.0,0.0,0.0,0.0,0.0,0.0,0.0,0.0,0.0,0.0,0.0,0.0,0.0,0.0,0.0,0.0,0.0,0.0,0.0,0.0,0.0,0.0,0.0,0.0,0.0,0.0,0.0,0.0,0.0,0.0,0.0,0.0,0.0,0.0,0.0,0.0,0.0,0.0,0.0,0.0,0.0,0.0,0.0,0.0,0.0,0.0,0.0,0.0,0.0,0.0,0.0,0.0,0.0,0.0,0.0,0.0,0.0,0.0,0.0,0.0,0.0,0.0,0.0,0.0,0.0,0.0,0.0,0.0,0.0,0.0,0.0,0.0,0.0,0.0,0.0,0.0,0.0,0.0,0.0,0.0,0.0,0.0,0.0,0.0,0.0,0.0,0.0,0.0,0.0,0.0,0.0,0.0,0.0,0.0,0.0,0.0,0.0,0.0,0.0,0.0,0.0,0.0,0.0,0.0,0.0,0.0,0.0,0.0,0.0,0.0,0.0,0.0,0.0,0.0,0.0,0.0,0.0,0.0,0.0,0.0,0.0,0.0,0.0,0.0,0.0,0.0,0.0,0.0,0.0,0.0,0.0,0.0,0.0,0.0,0.0,0.0,0.0,0.0,0.0,0.0,0.0,0.0,0.0,0.0,0.0,0.0,0.0,0.0,0.0,0.0,0.0,0.0,0.0,0.0,0.0,0.0,0.0,0.0,0.0,0.0,0.0,0.0,0.0,0.0,0.0,0.0,0.0,0.0,0.0,0.0,0.0,0.0,0.0,0.0,0.0,0.0,0.0,0.0,0.0,0.0,0.0,0.0,0.0,0.0,0.0,0.0,0.0,0.0,0.0,0.0,0.0,0.0,0.0,0.0,0.0,0.0,0.0,0.0,0.0,0.0,0.0,0.0,0.0,0.0,0.0,0.0,0.0,0.0,0.0,0.0,0.0,0.0,0.0,0.0,0.0,0.0,0.0,0.0,0.0,0.0,0.0,0.0,0.0,0.0,0.0,0.0,0.0,0.0,0.0,0.0,0.0,0.0,0.0,0.0,0.0,0.0,0.0,0.0,0.0,0.0,0.0,0.0,0.0,0.0,0.0,0.0,0.0,0.0,0.0,0.0,0.0,0.0,0.0,0.0,0.0,0.0,0.0,0.0,0.0,0.0,0.0,0.0,0.0,0.0,0.0,0.0,0.0,0.0,0.0,0.0,0.0,0.0,0.0,0.0,0.0,0.0,0.0,0.0,0.0,0.0,0.0,0.0,0.0,0.0,0.0,0.0,0.0,0.0,0.0,0.0,0.0,0.0,0.0,0.0,0.0,0.0,0.0,0.0,0.0,0.0,0.0,0.0,0.0,0.0,0.0,0.0,0.0,0.0,0.0,0.0,0.0,0.0,0.0,0.0,0.0,0.0,0.0,0.0,0.0,0.0,0.0,0.0,0.0,0.0,0.0,0.0,0.0,0.0,0.0,0.0,0.0,0.0,0.0,0.0,0.0,0.0,0.0,0.0,0.0,0.0,0.0,0.0,0.0,0.0,0.0,0.0,0.0,0.0,0.0,0.0,0.0,0.0,0.0,0.0,0.0,0.0,0.0,0.0,0.0,0.0,0.0,0.0,0.0,0.0,0.0,0.0,0.0,0.0,0.0,0.0,0.0,0.0,0.0,0.0,0.0,0.0,0.0,0.0,0.0,0.0,0.0,0.0,0.0,0.0,0.0,0.0,0.0,0.0,0.0,0.0,0.0,0.0,0.0,0.0,0.0,0.0,0.0,0.0,0.0,0.0,0.0,0.0,0.0,0.0,0.0,0.0,0.0,0.0,0.0,0.0,0.0,0.0,0.0,0.0,0.0,0.0,0.0,0.0,0.0,0.0,0.0,0.0,0.0,0.0,0.0,0.0,0.0,0.0,0.0,0.0,0.0,0.0,0.0,0.0,0.0,0.0,0.0,0.0,0.0,0.0,0.0,0.0,0.0,0.0,0.0,0.0,0.0,0.0,0.0,0.0,0.0,0.0,0.0,0.0,0.0,0.0,0.0,0.0,0.0,0.0,0.0,0.0,0.0,0.0,0.0,0.0,0.0,0.0,0.0,0.0,0.0,0.0,0.0,0.0,0.0,0.0,0.0,0.0,0.0,0.0,0.0,0.0,0.0,0.0,0.0,0.0,0.0,0.0,0.0,0.0,0.0,0.0,0.0,0.0,0.0,0.0,0.0,0.0,0.0,0.0,0.0,0.0,0.0,0.0,0.0,0.0,0.0,0.0,0.0,0.0,0.0,0.0,0.0,0.0,0.0,0.0,0.0,0.0,0.0,0.0,0.0,0.0,0.0,0.0,0.0,0.0,0.0,0.0,0.0,0.0,0.0,0.0,0.0,0.0,0.0,0.0,0.0,0.0,0.0,0.0,0.0,0.0,0.0,0.0,0.0,0.0,0.0,0.0,0.0,0.0,0.0,0.0,0.0,0.0,0.0,0.0,0.0,0.0,0.0,0.0,0.0,0.0,0.0,0.0,0.0,0.0,0.0,0.0,0.0,0.0,0.0,0.0,0.0,0.0,0.0,0.0,0.0,0.0,0.0,0.0,0.0,0.0,0.0,0.0,0.0,0.0,0.0,0.0,0.0,0.0,0.0,0.0,0.0,0.0,0.0,0.0,0.0,0.0,0.0,0.0,0.0,0.0,0.0,0.0,0.0,0.0,0.0,0.0,0.0,0.0,0.0,0.0,0.0,0.0,0.0,0.0,0.0,0.0,0.0,0.0,0.0,0.0,0.0,0.0,0.0,0.0,0.0,0.0,0.0,0.0,0.0,0.0,0.0,0.0,0.0,0.0,0.0,0.0,0.0,0.0,0.0,0.0,0.0,0.0,0.0,0.0,0.0,0.0,0.0,0.0,0.0,0.0,0.0,0.0,0.0,0.0,0.0,0.0,0.0,0.0,0.0,0.0,0.0,0.0,0.0,0.0,0.0,0.0,0.0,0.0,0.0,0.0,0.0,0.0,0.0,0.0,0.0,0.0,0.0,0.0,0.0,0.0,0.0,0.0,0.0,0.0,0.0,0.0,0.0,0.0,0.0,0.0,0.0,0.0,0.0,0.0,0.0,0.0,0.0,0.0,0.0,0.0,0.0,0.0,0.0,0.0,0.0,0.0,0.0,0.0,0.0,0.0,0.0,0.0,0.0,0.0,0.0,0.0,0.0,0.0,0.0,0.0,0.0,0.0,0.0,0.0,0.0,0.0,0.0,0.0,0.0,0.0,0.0,0.0,0.0,0.0,0.0,0.0,0.0,0.0,0.0,0.0,0.0,0.0,0.0,0.0,0.0,0.0,0.0,0.0,0.0,0.0,0.0,0.0,0.0,0.0,0.0,0.0,0.0,0.0,0.0,0.0,0.0,0.0,0.0,0.0,0.0,0.0,0.0,0.0,0.0,0.0,0.0,0.0,0.0,0.0,0.0,0.0,0.0,0.0,0.0,0.0,0.0,0.0,0.0,0.0,0.0,0.0,0.0,0.0,0.0,0.0,0.0,0.0,0.0,0.0,0.0,0.0,0.0,0.0,0.0,0.0,0.0,0.0,0.0,0.0,0.0,0.0,0.0,0.0,0.0,0.0,0.0,0.0,0.0,0.0,0.0,0.0,0.0,0.0,0.0,0.0,0.0,0.0,0.0,0.0,0.0,0.0,0.0,0.0,0.0,0.0,0.0,0.0,0.0,0.0,0.0,0.0,0.0,0.0,0.0,0.0,0.0,0.0,0.0,0.0,0.0,0.0,0.0,0.0,0.0,0.0,0.0,0.0,0.0,0.0,0.0,0.0,0.0,0.0,0.0,0.0,0.0,0.0,0.0,0.0,0.0,0.0,0.0,0.0,0.0,0.0,0.0,0.0,0.0,0.0,0.0,0.0,0.0,0.0,0.0,0.0,0.0,0.0,0.0,0.0,0.0,0.0,0.0,0.0,0.0,0.0,0.0,0.0,0.0,0.0,0.0,0.0,0.0,0.0,0.0,0.0,0.0,0.0,0.0,0.0,0.0,0.0,0.0,0.0,0.0,0.0,0.0,0.0,0.0,0.0,0.0,0.0,0.0,0.0,0.0,0.0,0.0,0.0,0.0,0.0,0.0,0.0,0.0,0.0,0.0,0.0,0.0,0.0,0.0,0.0,0.0,0.0,0.0,0.0,0.0,0.0,0.0,0.0,0.0,0.0,0.0,0.0,0.0,0.0,0.0,0.0,0.0,0.0,0.0,0.0,0.0,0.0,0.0,0.0,0.0,0.0,0.0,0.0,0.0,0.0,0.0,0.0,0.0,0.0,0.0,0.0,0.0,0.0,0.0,0.0,0.0,0.0,0.0,0.0,0.0,0.0,0.0,0.0,0.0,0.0,0.0,0.0,0.0,0.0,0.0,0.0,0.0,0.0,0.0,0.0,0.0,0.0,0.0,0.0,0.0,0.0,0.0,0.0,0.0,0.0,0.0,0.0,0.0,0.0,0.0,0.0,0.0,0.0,0.0,0.0,0.0,0.0,0.0,0.0,0.0,0.0,0.0,0.0,0.0,0.0,0.0,0.0,0.0,0.0,0.0,0.0,0.0,0.0,0.0,0.0,0.0,0.0,0.0,0.0,0.0,0.0,0.0,0.0,0.0,0.0,0.0,0.0,0.0,0.0,0.0,0.0,0.0,0.0,0.0,0.0,0.0,0.0,0.0,0.0,0.0,0.0,0.0,0.0,0.0,0.0,0.0,0.0,0.0,0.0,0.0,0.0,0.0,0.0,0.0,0.0,0.0,0.0,0.0,0.0,0.0,0.0,0.0,0.0,0.0,0.0,0.0,0.0,0.0,0.0,0.0,0.0,0.0,0.0,0.0,0.0,0.0,0.0,0.0,0.0,0.0,0.0,0.0,0.0,0.0,0.0,0.0,0.0,0.0,0.0,0.0,0.0,0.0,-2.4626,-2.3981,0.0,0.0,0.0,0.0,0.0,0.0,0.0,0.0,0.0,0.0,0.0,0.0,0.0,0.0,0.0,0.0,0.0,0.0,0.0,0.0,0.0,0.0,0.0,0.0,0.0,0.0,0.0,0.0,0.0,0.0,0.0,0.0,0.0,0.0,0.0,0.0,0.0,0.0,0.0,0.0,0.0,0.0,0.0,0.0,0.0,0.0,0.0,0.0,0.0,0.0,0.0,0.0,0.0,0.0,0.0,0.0,0.0,0.0,0.0,0.0,0.0,0.0,0.0,0.0,0.0,0.0,0.0,0.0,0.0,0.0,0.0,0.0,0.0,0.0,0.0,0.0,0.0,0.0,0.0,0.0,0.0,0.0,0.0,0.0,0.0,0.0,0.0,0.0,0.0,0.0,0.0,0.0,0.0,0.0,0.0,0.0,0.0,0.0,0.0,0.0,0.0,0.0,0.0,0.0,0.0,0.0,0.0,0.0,0.0,0.0,0.0,0.0,0.0,0.0,-2.2179,-2.1807,0.0,0.0,0.0,0.0,0.0,0.0,0.0,0.0,0.0,0.0,0.0,0.0,0.0,0.0,0.0,0.0,0.0,0.0,0.0,0.0,0.0,0.0,0.0,0.0,0.0,0.0,0.0,0.0,0.0,0.0,0.0,0.0,0.0,0.0,0.0,0.0,0.0,0.0,0.0,0.0,0.0,0.0,0.0,-1.9659,0.0,0.0,0.0,0.0,0.0,0.0,0.0,0.0,0.0,0.0,0.0,0.0,0.0,0.0,0.0,0.0,0.0,0.0,0.0,0.0,0.0,0.0,0.0,0.0,0.0,0.0,0.0,0.0,0.0,0.0,0.0,0.0,0.0,0.0,0.0,0.0,0.0,0.0,0.0,0.0,0.0,0.0,0.0,0.0,0.0,0.0,0.0,0.0,0.0,0.0,0.0,0.0,0.0,0.0,0.0,0.0,0.0,0.0,0.0,0.0,0.0,0.0,0.0,0.0,-1.13,-1.3497,-1.5718,-1.679,-1.7324,-1.7553,-1.9146,-1.8841,-1.719,-1.6814,0.0,0.0,0.0,0.0,0.0,0.0,0.0,0.0,0.0,0.0,0.0,0.0,0.0,0.0,0.0,0.0,0.0,0.0,0.0,0.0,0.0,-2.8701,-2.7853,-2.6538,-2.6293,-2.6054,0.0,0.0,0.0,0.0,0.0,0.0,0.0,0.0,0.0,0.0,0.0,-1.783,-1.6559,-1.6661,-1.6357,-1.5845,-1.7691,0.0,0.0,0.0,0.0,0.0,0.0,0.0,0.0,0.0,0.0,0.0,0.0,0.0,0.0,0.0,0.0,0.0,0.0,0.0,0.0,0.0,0.0,0.0,0.0,0.0,0.0,0.0,0.0,0.0,0.0,0.0,0.0,0.0,0.0,0.0,0.0,0.0,0.0,0.0,0.0,0.0,0.0,0.0,0.3453,0.5761,0.0,0.0,0.0,0.0,0.0,0.0,0.0,0.0,0.0,0.0,0.0,0.0,0.0,-0.3874,-0.3243,-0.3455,-0.4739,-0.7083,-0.8737,-1.0763,-1.3134,-1.4246,-1.4764,-1.464,-1.4517,0.0,-1.5296,-1.4126,0.0,0.0,0.0,0.0,0.0,0.0,0.0,0.0,0.0,0.0,0.0,0.0,0.0,0.0,0.0,0.0,0.0,0.0,0.0,0.0,0.0,-2.761,-2.6524,-2.5425,-2.484,-2.4584,-2.4781,0.0,0.0,0.0,0.0,0.0,0.0,0.0,0.0,0.0,-1.7429,-1.6156,-1.5455,-1.559,-1.4919,-1.3696,-1.4788,-1.5626,-1.6231,-1.787,0.0,0.0,0.0,0.0,0.0,0.0,0.0,0.0,0.0,0.0,0.0,0.0,0.0,0.0,0.0,0.0,0.0,0.0,0.0,0.0,0.0,0.0,0.0,0.0,0.0,0.0,0.0,0.0,0.0,0.0,0.0,0.0,0.0,0.0,0.0,0.0,0.0,0.0,0.0,0.1393,0.6651,0.9015,0.9585,0.894,0.0,0.0,0.0,0.0,0.0,0.0,0.0,0.0,0.0,-0.441,-0.3285,-0.2604,-0.2198,-0.2513,-0.3678,-0.5695,-0.7397,-0.9343,-1.1483,-1.2422,-1.2964,-1.3045,-1.2625,-1.229,-1.1924,-1.1775,-1.1378,-1.0848,0.0,0.0,0.0,0.0,-1.022,-1.0715,0.0,0.0,0.0,0.0,0.0,0.0,0.0,0.0,0.0,0.0,0.0,0.0,-2.8271,-2.6715,-2.5384,-2.4341,-2.3657,-2.3433,-2.3989,-2.4997,0.0,0.0,0.0,0.0,0.0,0.0,0.0,-1.6821,-1.5707,-1.4991,-1.4547,-1.4448,-1.3675,-1.2294,-1.2359,-1.3118,-1.4414,-1.5559,-1.7186,0.0,0.0,0.0,0.0,0.0,0.0,0.0,0.0,0.0,0.0,0.0,0.0,0.0,0.0,0.0,0.0,0.0,0.0,0.0,0.0,0.0,0.0,0.0,0.0,0.0,0.0,0.0,0.0,0.0,0.0,0.0,0.0,0.0,0.0,0.0,0.0,0.0,0.0,0.5246,0.9536,1.2334,1.3362,1.3013,0.0,0.0,0.0,0.0,0.0,0.0,-0.3303,-0.3595,-0.3468,-0.2901,-0.209,-0.1634,-0.1556,-0.2012,-0.3093,-0.4708,-0.6346,-0.8117,-1.0117,-1.092,-1.1558,-1.1849,-1.1521,-1.0647,-0.9667,-0.9948,-0.9632,-0.8949,-0.8849,-0.8714,-0.8471,-0.7908,-0.822,-0.877,0.0,0.0,0.0,0.0,0.0,0.0,0.0,0.0,0.0,0.0,0.0,-2.9552,-2.7812,-2.6375,-2.4829,-2.3148,-2.3088,-2.3148,-2.3148,-2.4463,-2.5402,0.0,0.0,0.0,0.0,0.0,0.0,-1.599,-1.5089,-1.4237,-1.3487,-1.3286,-1.2531,-1.1462,-1.1228,-1.0942,-1.0931,-1.2992,-1.4334,-1.53,0.0,0.0,0.0,0.0,0.0,0.0,0.0,0.0,0.0,0.0,0.0,0.0,0.0,0.0,0.0,0.0,0.0,0.0,0.0,0.0,0.0,0.0,0.0,0.0,0.0,0.0,0.0,0.0,0.0,0.0,0.0,0.0,0.0,0.0,0.0,0.0,0.0,0.0,0.0,1.5887,1.7213,0.0,0.0,0.0,0.0,0.594,0.3498,0.1565,0.0329,-0.0735,-0.1177,-0.0921,-0.1138,-0.1293,-0.1289,-0.1868,-0.2744,-0.4022,-0.5388,-0.6963,-0.8638,-0.9602,-1.0278,-1.0844,-1.0739,-1.025,-0.9566,-0.8734,-0.8016,-0.7314,-0.6619,-0.6442,-0.6604,-0.6176,-0.6535,-0.7251,0.0,0.0,0.0,0.0,0.0,0.0,0.0,0.0,0.0,-3.329,-3.1719,-2.9863,-2.7715,-2.5864,-2.4242,-2.2811,-2.2372,-2.2347,-2.2631,-2.3787,-2.4053,0.0,0.0,0.0,0.0,0.0,-1.5563,-1.4393,-1.4049,-1.3487,-1.2699,-1.2735,-1.206,-1.0904,-1.0515,-1.0215,-1.0046,-1.1648,-1.289,-1.395,-1.6658,-1.8195,0.0,0.0,0.0,0.0,0.0,0.0,0.0,0.0,0.0,0.0,0.0,0.0,0.0,0.0,0.0,0.0,0.0,0.0,0.0,0.0,0.0,0.0,0.0,0.0,0.0,0.0,0.0,0.0,0.0,0.0,0.0,0.0,0.0,0.0,0.0,0.0,0.0,1.9043,2.0104,0.0,1.8084,1.5271,1.2434,0.9734,0.7042,0.4696,0.2982,0.181,0.0802,0.013,-0.0417,-0.0891,-0.1346,-0.2037,-0.2935,-0.4112,-0.5293,-0.662,-0.8048,-0.8943,-0.9628,-1.0197,-1.0287,-0.9926,-0.9349,-0.8856,-0.8201,-0.7308,-0.6458,-0.6192,-0.6291,-0.5973,-0.6376,-0.7129,0.0,0.0,0.0,0.0,0.0,0.0,0.0,0.0,0.0,-3.4098,-3.2469,-3.0318,-2.7652,-2.5716,-2.4067,-2.2714,-2.2067,-2.1982,-2.2502,-2.3057,-2.2924,0.0,-2.1425,0.0,0.0,-1.5355,-1.4187,-1.3138,-1.2877,-1.2457,-1.1775,-1.1636,-1.1189,-1.0398,-0.9824,-0.9594,-0.9636,-1.0464,-1.141,-1.2615,-1.4954,-1.6065,-1.6502,0.0,0.0,0.0,0.0,0.0,0.0,0.0,0.0,0.0,0.0,0.0,0.0,0.0,0.0,0.0,0.0,0.0,0.0,0.0,0.0,0.0,0.0,0.0,0.0,0.0,0.0,0.0,0.0,0.0,0.0,0.0,0.0,0.0,0.0,1.3785,1.8296,2.1065,2.1956,2.1586,1.9898,1.7244,1.4613,1.219,0.9515,0.7142,0.5151,0.3767,0.24,0.1188,0.0366,-0.0465,-0.1328,-0.213,-0.3155,-0.4288,-0.5211,-0.6353,-0.7775,-0.854,-0.9217,-0.99,-1.0104,-0.9901,-0.9366,-0.9279,-0.8787,-0.808,-0.704,-0.663,-0.6531,-0.6506,-0.6898,-0.7419,0.0,0.0,0.0,0.0,0.0,0.0,0.0,-3.5509,-3.4924,-3.4406,-3.3106,-3.0983,-2.7762,-2.6045,-2.4476,-2.2824,-2.2266,-2.2184,-2.2794,-2.2428,-2.2159,0.0,0.0,0.0,-1.5946,-1.4434,-1.316,-1.2272,-1.1659,-1.1157,-1.0684,-1.009,-0.9805,-0.9826,-0.9105,-0.9043,-0.9438,-0.9241,-0.9858,-1.1077,-1.2508,-1.3318,-1.3842,0.0,0.0,0.0,0.0,0.0,0.0,0.0,0.0,0.0,0.0,0.0,0.0,0.0,0.0,0.0,0.0,0.0,0.0,0.0,0.0,0.0,0.0,0.0,0.0,0.0,0.0,0.0,0.0,0.0,0.0,0.0,0.0,0.0,1.1035,1.5622,1.9537,2.2051,2.2681,2.2161,2.0159,1.8148,1.5878,1.3296,1.088,0.8694,0.6919,0.5152,0.3611,0.2274,0.1166,0.0,-0.122,-0.2038,-0.321,-0.4551,-0.5233,-0.6373,-0.7737,-0.8333,-0.9078,-0.9868,-1.019,-1.0088,-0.9731,-0.9824,-0.9686,-0.9483,-0.8243,-0.7552,-0.7342,-0.772,-0.7844,-0.7999,0.0,0.0,0.0,0.0,0.0,0.0,0.0,-3.5994,-3.5755,-3.5823,-3.3697,-3.1409,-2.9423,-2.7162,-2.5384,-2.4218,-2.378,-2.3454,-2.3247,-2.3632,-2.2633,0.0,0.0,0.0,-1.383,-1.2523,-1.1735,-1.1428,-1.1112,-1.064,-1.0041,-0.9984,-0.9542,-0.8809,-0.8529,-0.8509,-0.8603,-0.8459,-0.8835,-0.9703,-1.1505,-1.1875,-1.1493,0.0,0.0,0.0,0.0,0.0,0.0,0.0,0.0,0.0,0.0,0.0,0.0,0.0,0.0,0.0,0.0,0.0,0.0,0.0,0.0,0.0,0.0,0.0,0.0,0.0,0.0,0.0,0.0,0.0,0.0,0.0,0.4026,0.9089,1.2741,1.7428,2.0956,2.2116,2.2812,2.2406,2.0528,1.8233,1.5993,1.3866,1.139,0.9132,0.7203,0.581,0.4292,0.2526,0.1587,0.0351,-0.1233,-0.2055,-0.334,-0.4932,-0.5681,-0.6664,-0.774,-0.8226,-0.8607,-0.8785,-0.9213,-0.9226,-0.9076,-0.9258,-0.9482,-0.954,-0.9072,-0.8923,-0.8949,-0.8883,-0.902,-0.9259,0.0,0.0,0.0,0.0,0.0,0.0,0.0,-3.6578,-3.6339,-3.6194,-3.4257,-3.2109,-3.0133,-2.8229,-2.6679,-2.568,-2.494,-2.4485,-2.4381,-2.3393,0.0,0.0,0.0,-1.3616,-1.2705,-1.1629,-1.0894,-1.0409,-1.0292,-0.9968,-0.945,-0.9448,-0.9251,-0.8849,-0.8501,-0.849,-0.8703,-0.8548,-0.8946,-0.9776,-1.0616,-1.0494,-0.9948,-1.1168,-1.095,-1.0021,-1.0336,-1.0523,-1.0821,-1.1493,0.0,0.0,0.0,0.0,0.0,0.0,0.0,0.0,0.0,0.0,0.0,0.0,0.0,0.0,0.0,0.0,0.0,0.0,0.0,0.0,0.0,0.0,0.0,0.0,0.4979,0.9688,1.321,1.7705,2.0824,2.1502,2.1755,2.1131,1.923,1.6985,1.4917,1.3215,1.0937,0.9018,0.7488,0.6273,0.4772,0.3096,0.2063,0.0561,-0.1304,-0.2454,-0.3871,-0.5592,-0.6187,-0.702,-0.7849,-0.8102,-0.8225,-0.8231,-0.8434,-0.8494,-0.8367,-0.8729,-0.905,-0.9208,0.0,0.0,0.0,0.0,-1.0279,-1.052,0.0,0.0,0.0,0.0,0.0,0.0,0.0,-3.7247,-3.6844,-3.6159,-3.4799,-3.2975,-3.0585,-2.9302,-2.825,-2.7283,-2.6043,-2.5412,-2.5577,0.0,0.0,-1.658,-1.522,-1.3798,-1.2274,-1.1403,-1.0473,-0.9522,-0.9438,-0.925,-0.8945,-0.8812,-0.8966,-0.9308,-0.8693,-0.8714,-0.9202,-0.9037,-0.9567,-1.0458,-0.9801,-0.9335,-0.9161,-0.998,-0.9836,-0.9264,-0.9754,-0.9794,-0.9765,-1.0714,0.0,0.0,0.0,0.0,0.0,0.0,0.0,0.0,0.0,0.0,0.0,0.0,0.0,0.0,0.0,0.0,0.0,0.0,0.0,0.0,0.0,0.0,0.0,0.0,0.5145,0.9355,1.2677,1.6603,1.9411,2.016,1.9724,1.8709,1.6939,1.4968,1.3187,1.1709,0.9885,0.8558,0.7676,0.6511,0.0,0.0,0.0,0.0689,-0.1251,-0.286,-0.452,-0.6231,-0.6785,-0.7362,-0.8059,-0.7933,-0.7811,-0.7717,-0.7797,-0.7722,-0.7731,-0.8166,-0.8492,-0.8759,-0.9578,-1.0227,-1.0672,-1.1247,-1.1559,-1.1737,0.0,0.0,0.0,0.0,0.0,0.0,0.0,-3.7934,-3.7955,-3.7281,-3.5553,-3.3978,-3.2947,-3.0897,-2.9504,-2.91,-2.7998,-2.662,0.0,0.0,-1.9194,-1.7648,-1.525,-1.3489,-1.2541,-1.1138,-1.0206,-0.9731,-0.9457,-0.9052,-0.8515,-0.8856,-0.8766,-0.8292,-0.8482,-0.8591,-0.8672,-0.8793,-0.9059,-0.9396,-0.9196,-0.93,-0.9607,-1.0002,-0.9516,-0.8767,-0.9727,-0.9906,-0.9912,-1.1448,-1.2756,-1.4096,-1.5931,0.0,0.0,0.0,0.0,0.0,0.0,0.0,0.0,0.0,0.0,0.0,0.0,0.0,0.0,0.0,0.0,0.0,0.0,0.0,0.0,0.065,0.472,0.8364,1.0929,1.3445,1.5569,1.7394,1.7128,1.6374,1.5093,1.3328,1.1708,1.0447,0.9138,0.7867,0.6856,0.6207,0.5251,0.3882,0.229,0.0511,-0.1404,-0.3035,-0.4817,-0.6569,-0.7235,0.0,-0.8065,-0.804,-0.7601,-0.6837,-0.6926,-0.6973,-0.6901,-0.7234,-0.7955,-0.8959,-0.9842,-1.0617,-1.1309,-1.1695,-1.2367,-1.3125,0.0,0.0,0.0,0.0,0.0,0.0,0.0,-3.8654,-3.8663,-3.7655,-3.6212,-3.4838,-3.3701,-3.2231,-3.1223,-3.0962,-2.9285,-2.7042,0.0,-2.1657,-1.9517,-1.7889,-1.5584,-1.3867,-1.2973,-1.146,-1.0376,-0.9734,-0.9278,-0.8849,-0.851,-0.8672,-0.8726,-0.8667,-0.8788,-0.8935,-0.9059,-0.9199,-0.9538,-0.9994,-1.0001,-1.0321,-1.0775,-1.043,-1.0084,-0.9887,-1.0515,-1.0847,-1.1138,-1.208,-1.3289,-1.4735,-1.6598,-1.8064,-1.9374,0.0,0.0,0.0,0.0,0.0,0.0,0.0,0.0,0.0,0.0,0.0,0.0,0.0,0.0,-1.222,-0.9825,0.0,-0.3415,-0.0243,0.328,0.637,0.8532,1.0125,1.2078,1.4416,1.4483,1.3808,1.242,1.1032,0.9766,0.8589,0.7705,0.6786,0.5977,0.5428,0.462,0.3467,0.1736,0.0,-0.2073,-0.3601,-0.5282,-0.6935,-0.7382,-0.7615,-0.7742,-0.7675,-0.7253,-0.6538,-0.6517,-0.6543,-0.6615,-0.7128,-0.8006,-0.9127,-0.9839,-1.0703,-1.1687,-1.2566,-1.3267,-1.4,0.0,0.0,0.0,0.0,0.0,0.0,0.0,0.0,-3.9061,-3.7965,-3.6855,-3.5699,-3.4303,-3.3542,-3.2788,-3.2062,-2.9925,0.0,0.0,-2.2161,-2.0205,-1.8237,-1.6254,-1.4682,-1.3549,-1.2082,-1.0799,-0.9838,-0.9151,-0.8766,-0.8582,-0.8535,-0.8772,-0.9273,-0.9223,-0.9354,-0.9629,-0.9843,-1.0308,-1.0907,-1.1134,-1.1723,-1.2388,-1.1618,-1.1451,-1.1663,-1.2124,-1.2531,-1.2968,-1.3464,-1.4468,-1.5848,-1.7652,-1.8718,-1.9706,-2.1742,-2.1924,0.0,0.0,0.0,0.0,0.0,0.0,0.0,0.0,0.0,-1.7257,-1.5708,-1.3846,-1.1774,-0.9392,-0.6579,-0.3819,-0.136,0.1445,0.3911,0.5749,0.6891,0.8459,1.0651,1.1411,1.1177,0.9683,0.8691,0.7638,0.6691,0.6008,0.5486,0.4928,0.4482,0.3725,0.2584,0.1035,-0.0842,-0.2824,-0.4251,-0.5713,-0.7122,-0.7482,-0.7526,-0.7481,-0.7372,-0.6975,-0.6528,-0.651,-0.6697,-0.6969,-0.7539,-0.8425,-0.9418,-0.986,-1.0808,-1.2081,-1.3273,-1.4088,-1.4767,0.0,0.0,0.0,0.0,0.0,0.0,0.0,0.0,0.0,-3.8864,-3.7737,-3.6649,-3.5717,-3.4797,-3.3331,-3.1126,0.0,0.0,-2.5508,-2.3472,-2.1451,-1.9422,-1.7606,-1.5933,-1.4285,-1.2788,-1.1423,-1.0216,-0.9402,-0.8815,-0.8521,-0.8733,-0.8944,-0.914,-0.9415,-0.9588,-0.9744,-1.0462,-1.0772,-1.088,-1.1722,-1.3026,-1.4468,-1.4358,-1.3931,-1.3581,-1.4914,-1.5263,-1.526,-1.6731,-1.7308,-1.767,-1.9273,-2.034,-2.1177,-2.1893,0.0,-2.3637,-2.3994,-2.3779,-2.3271,-2.2606,-2.1704,-2.0746,0.0,0.0,-1.7257,-1.5641,-1.3735,-1.1574,-0.9034,-0.6702,-0.4377,-0.2013,-0.0168,0.1379,0.288,0.3762,0.4427,0.4623,0.7192,0.8676,0.8121,0.6992,0.5929,0.4921,0.446,0.3903,0.3328,0.3192,0.2683,0.155,0.0,-0.1567,-0.3201,-0.4766,-0.6117,-0.7005,-0.7442,-0.7589,-0.7563,-0.7548,-0.7395,-0.7129,-0.7284,-0.754,-0.7981,-0.8308,-0.8991,-0.9898,-1.0486,-1.1609,-1.2886,-1.3345,-1.4442,-1.5703,0.0,0.0,0.0,0.0,0.0,0.0,0.0,0.0,0.0,0.0,-3.8247,-3.7491,-3.656,-3.5707,-3.4196,0.0,0.0,0.0,-2.6479,-2.4365,-2.2528,-2.0819,-1.8804,-1.7036,-1.5561,-1.3931,-1.2277,-1.0666,-1.0002,-0.9281,-0.851,-0.8402,-0.8376,-0.8349,-0.8646,-0.8771,-0.8838,-0.9928,-1.0333,-1.0446,-1.2354,-1.3675,-1.4748,-1.6883,-1.791,-1.8095,-1.7473,-1.7705,0.0,0.0,-1.9408,-1.9873,-2.093,-2.1744,-2.2416,-2.3037,-2.3701,0.0,-2.4272,-2.3756,-2.3059,-2.2639,-2.1704,-2.0738,-2.016,-1.8627,-1.6941,-1.5644,-1.3393,-1.0969,-0.8672,-0.6595,-0.4717,-0.3139,-0.1913,-0.0761,0.0335,0.0944,0.1383,0.1507,0.2608,0.3746,0.4431,0.4036,0.3424,0.2773,0.2736,0.2422,0.1711,0.1551,0.0991,-0.0102,-0.1527,-0.2775,-0.4083,-0.5432,-0.6478,-0.72,-0.7874,-0.7987,-0.7874,-0.8242,-0.8316,-0.8124,-0.8261,-0.8596,-0.8999,-0.9153,-0.9721,-1.0614,-1.1056,-1.196,-1.3086,-1.3733,-1.476,-1.5869,0.0,0.0,0.0,0.0,0.0,0.0,0.0,0.0,0.0,0.0,0.0,-3.815,-3.6998,-3.6237,-3.4898,0.0,0.0,0.0,0.0,-2.5463,-2.3692,-2.2219,-2.0151,-1.8302,-1.6818,-1.5132,-1.3342,-1.141,-1.0638,-0.9728,-0.8704,-0.8225,-0.7919,-0.7781,-0.7852,-0.7844,-0.7853,-0.9168,-0.9852,-1.0269,-1.2833,-1.4449,-1.564,-1.893,-2.1236,-2.2453,-2.0472,-2.0748,0.0,0.0,-2.239,-2.2828,-2.356,-2.3786,-2.3914,-2.4296,-2.4511,-2.4611,-2.4491,-2.3834,-2.3065,-2.2565,-2.1794,-2.091,-2.0044,-1.8515,-1.6806,-1.5245,-1.287,-1.0543,-0.8419,-0.6807,-0.5457,-0.4465,-0.3759,-0.306,-0.2215,-0.1921,-0.168,-0.1311,-0.1425,-0.1109,0.0,0.0786,0.1062,0.0709,0.0727,0.0559,0.0,-0.0292,-0.0993,-0.2014,-0.3237,-0.4387,-0.5375,-0.645,-0.7192,-0.7684,-0.8359,-0.8497,-0.8301,-0.8891,-0.9154,-0.9118,-0.9389,-0.9782,-1.017,-1.0148,-1.07,-1.1527,-1.1686,-1.2396,-1.3355,-1.4235,-1.5064,-1.5852,0.0,0.0,0.0,0.0,0.0,0.0,0.0,0.0,0.0,0.0,0.0,0.0,0.0,0.0,0.0,0.0,0.0,0.0,0.0,-2.7082,-2.521,-2.3318,-2.1668,-1.9936,-1.8007,-1.6252,-1.4483,-1.2742,-1.1188,-1.0018,-0.9271,-0.8403,-0.789,-0.7684,-0.7306,-0.7052,-0.7018,-0.8449,-0.9544,-1.0599,-1.3093,-1.5541,-1.7941,-2.0267,-2.3195,-2.5858,-2.429,0.0,0.0,0.0,-2.6919,-2.6842,-2.752,-2.6881,0.0,-2.5533,-2.5219,0.0,0.0,0.0,-2.3636,-2.2589,-2.2173,-2.1508,-1.9491,-1.8393,-1.6979,-1.4213,-1.2205,-1.038,-0.8468,-0.7586,-0.6773,-0.5702,-0.589,-0.5845,-0.4776,-0.4938,-0.5047,-0.4618,-0.4713,-0.4926,-0.5022,-0.2645,-0.1125,-0.1214,-0.1443,-0.1677,-0.1807,-0.2169,-0.2918,-0.4228,-0.5012,-0.6085,-0.7428,-0.8014,-0.8304,-0.8492,-0.8855,-0.9089,-0.8987,-0.9626,-0.9933,-1.0019,-1.0502,-1.0969,-1.1238,-1.1472,-1.2057,-1.2744,-1.2543,-1.3094,-1.4073,-1.4886,-1.5421,-1.5852,0.0,0.0,0.0,0.0,0.0,0.0,0.0,0.0,0.0,0.0,0.0,0.0,0.0,0.0,0.0,0.0,0.0,0.0,0.0,-2.8125,-2.6334,-2.4867,-2.307,-2.1212,-1.9355,-1.7799,-1.6019,-1.4005,-1.2974,-1.1694,-1.0187,-0.8757,-0.7827,-0.7317,-0.6208,-0.5877,-0.6259,-0.7771,-0.913,-1.0547,-1.3853,-1.6363,-1.8496,-2.1799,-2.5252,-2.8456,0.0,0.0,0.0,0.0,0.0,0.0,-2.9859,0.0,0.0,-2.7382,0.0,0.0,0.0,0.0,-2.3216,-2.2189,-2.1545,-2.0835,-1.9743,-1.7935,-1.6004,-1.4326,-1.2126,-1.0013,-0.827,-0.7699,-0.7368,-0.6768,-0.7068,-0.7265,-0.7015,-0.698,-0.7062,-0.716,-0.695,-0.6757,-0.6681,-0.492,-0.3619,-0.353,-0.3218,-0.321,-0.3419,-0.3942,-0.4726,-0.5734,-0.6667,-0.7491,-0.8096,-0.8913,-0.9365,-0.9421,-1.013,-1.0519,-1.0578,-1.0821,-1.0956,-1.1096,-1.1487,-1.193,-1.2507,-1.2575,-1.3079,-1.3729,-1.3649,-1.3905,-1.4462,-1.5276,-1.5735,-1.6105,0.0,0.0,0.0,0.0,0.0,0.0,0.0,0.0,0.0,0.0,0.0,0.0,0.0,0.0,0.0,0.0,0.0,0.0,0.0,0.0,-2.7557,-2.6251,-2.4302,-2.2407,-2.0558,-1.9021,-1.7221,-1.5115,-1.4289,-1.3075,-1.1457,-0.9595,-0.8274,-0.7386,-0.5839,-0.5354,-0.5835,-0.7452,-0.9172,-1.1136,-1.5022,-1.7884,-2.0258,-2.4514,-2.8268,0.0,0.0,0.0,0.0,0.0,0.0,0.0,0.0,0.0,0.0,0.0,0.0,0.0,0.0,-2.3274,-2.262,-2.186,-2.109,-2.036,-1.9329,-1.734,-1.5341,-1.3961,-1.1853,-0.9989,-0.8879,-0.8644,-0.8519,-0.8084,-0.8505,-0.8884,-0.8604,-0.8751,-0.8878,-0.8966,-0.8653,-0.8332,-0.7847,-0.6777,-0.5885,-0.5354,-0.4887,-0.4823,-0.5177,-0.5829,-0.6528,-0.7232,-0.8179,-0.8807,-0.9107,-0.9756,-1.0144,-1.0144,-1.0741,-1.1195,-1.1401,-1.1504,-1.162,-1.1785,-1.217,-1.2711,-1.3267,-1.3499,-1.3981,-1.4526,-1.4511,-1.4641,-1.4941,-1.5721,-1.6071,-1.6184,0.0,0.0,0.0,0.0,0.0,0.0,0.0,0.0,0.0,0.0,0.0,0.0,0.0,0.0,0.0,0.0,0.0,0.0,0.0,0.0,0.0,-2.725,-2.5314,-2.3391,-2.1583,-1.9923,-1.8066,-1.6162,-1.5211,-1.4196,-1.3062,-1.1084,-0.9439,-0.8084,-0.6364,-0.5674,-0.5932,-0.7634,-0.9791,-1.2485,-1.6696,-2.0138,-2.3255,-2.8135,0.0,0.0,0.0,0.0,0.0,0.0,0.0,0.0,0.0,0.0,0.0,0.0,0.0,-2.5279,-2.3641,-2.2651,-2.1894,-2.1417,-2.0874,-2.0069,-1.8402,-1.6691,-1.5014,-1.3094,-1.1432,-1.0311,0.0,0.0,-1.0168,-0.9685,-1.0256,-1.0484,-0.9739,-1.0148,-1.0466,0.0,0.0,0.0,-0.8786,-0.8361,-0.7775,-0.6716,-0.6479,-0.6662,-0.7115,-0.7746,-0.8322,-0.8825,-0.9489,-0.9989,-1.0306,-1.0569,-1.0757,-1.0873,-1.1006,-1.1232,-1.1548,-1.1841,-1.2014,-1.2093,-1.2861,-1.329,-1.3496,-1.4242,-1.4763,-1.5133,-1.5039,-1.5147,-1.5459,-1.6294,-1.6422,-1.6149,0.0,0.0,0.0,0.0,0.0,0.0,0.0,0.0,0.0,0.0,0.0,0.0,0.0,0.0,0.0,0.0,0.0,0.0,0.0,0.0,0.0,0.0,0.0,0.0,0.0,0.0,0.0,-1.814,-1.7328,-1.6581,-1.5862,-1.4384,-1.2956,-1.1534,-0.9312,-0.8455,-0.8815,-0.9954,-1.2127,-1.5176,0.0,-2.3052,-2.638,0.0,0.0,0.0,0.0,0.0,0.0,0.0,0.0,0.0,0.0,-3.3811,-3.0374,0.0,0.0,-2.4056,-2.2595,-2.1694,-2.093,-2.0042,-1.942,-1.8619,-1.7058,-1.5497,-1.4038,-1.2971,-1.1941,-1.1188,0.0,0.0,0.0,-1.0951,-1.084,0.0,-1.1138,-1.1389,0.0,-1.1376,0.0,-1.0622,-0.9686,-0.897,-0.8623,-0.8471,-0.788,-0.7802,-0.8179,-0.863,-0.8916,-0.9118,-0.9585,-0.9884,-0.9884,-1.046,-1.1035,-1.1389,-1.1661,-1.1963,-1.2292,-1.2437,-1.2537,-1.2809,-1.3408,-1.404,-1.4513,-1.5057,-1.5556,-1.5926,-1.602,-1.5823,-1.5613,-1.6286,-1.6422,-1.6324,0.0,0.0,0.0,0.0,0.0,0.0,0.0,0.0,0.0,0.0,0.0,0.0,0.0,0.0,0.0,0.0,0.0,0.0,0.0,0.0,0.0,0.0,0.0,0.0,0.0,0.0,0.0,0.0,0.0,0.0,-1.7219,-1.6478,-1.5517,-1.431,-1.2336,-1.178,-1.2421,-1.355,0.0,0.0,0.0,0.0,0.0,0.0,0.0,0.0,0.0,0.0,0.0,0.0,0.0,-3.9415,-3.7039,-3.3985,-3.0771,-2.8,0.0,-2.3695,-2.1681,-2.0731,-2.0125,-1.9263,-1.8545,-1.7755,-1.6877,-1.5406,-1.4132,-1.3679,-1.2949,-1.2328,-1.2575,-1.2427,-1.2207,0.0,0.0,0.0,-1.1668,-1.1947,-1.2112,0.0,-1.1828,0.0,-1.0298,-0.9721,-0.9527,-0.9718,-0.9063,-0.8806,-0.9356,-0.9559,-0.9648,-0.9426,-0.9524,-0.965,-0.97,-1.0216,-1.0729,-1.124,-1.1787,-1.2178,-1.2626,-1.3008,-1.327,-1.3526,-1.4256,-1.4728,-1.4988,-1.5549,-1.593,-1.6156,-1.607,-1.6015,-1.5912,-1.6196,-1.6349,-1.6455,0.0,0.0,0.0,0.0,0.0,0.0,0.0,0.0,0.0,0.0,0.0,0.0,0.0,0.0,0.0,0.0,0.0,0.0,0.0,0.0,0.0,0.0,0.0,0.0,0.0,0.0,0.0,0.0,0.0,0.0,0.0,0.0,0.0,0.0,0.0,0.0,0.0,0.0,0.0,0.0,0.0,0.0,0.0,0.0,0.0,0.0,0.0,0.0,0.0,0.0,-4.3378,-4.1032,-3.7549,-3.4455,-3.1483,-2.8122,-2.5807,-2.3784,-2.115,-2.0043,-1.945,-1.8691,-1.7882,-1.7251,-1.7161,-1.5836,-1.4767,-1.4904,-1.4195,-1.3766,-1.4453,-1.4198,-1.3691,-1.317,0.0,-1.2298,-1.1867,-1.2309,-1.2645,-1.2415,-1.2506,-1.2088,-1.1004,-1.0654,-1.0653,-1.0876,-1.026,-1.0065,-1.0502,-1.0435,-1.0133,-0.9603,-0.9305,-0.9261,-0.9374,-0.9808,-1.0305,-1.0765,-1.1638,-1.2302,-1.2746,-1.3523,-1.3879,-1.4148,-1.507,-1.5392,-1.5129,-1.5842,-1.6174,-1.6139,-1.5875,-1.5929,-1.6261,-1.6062,-1.6171,-1.6537,0.0,0.0,0.0,0.0,0.0,0.0,0.0,0.0,0.0,0.0,-3.9491,-3.9511,0.0,0.0,0.0,0.0,0.0,0.0,0.0,0.0,0.0,0.0,0.0,0.0,0.0,0.0,-1.9392,-1.8761,-1.9882,0.0,0.0,0.0,0.0,0.0,0.0,0.0,0.0,0.0,0.0,0.0,0.0,0.0,0.0,0.0,0.0,0.0,0.0,0.0,0.0,0.0,-4.4178,-4.1215,-3.7749,-3.4866,-3.2049,-2.8432,-2.5841,-2.3694,-2.1553,-2.0076,-1.887,-1.7777,-1.6989,-1.6417,-1.6281,-1.5699,0.0,0.0,-1.5901,-1.5811,-1.6179,-1.5684,-1.5136,-1.4759,-1.3784,-1.311,-1.3098,-1.3439,-1.3583,0.0,-1.3621,-1.3387,-1.2457,-1.2137,-1.1978,-1.2125,-1.2344,-1.2028,-1.1105,-1.0848,-1.001,-0.8334,-0.834,-0.8587,-0.8989,-0.9877,-1.059,-1.1121,-1.1763,-1.258,-1.3647,-1.3758,-1.4313,-1.5199,-1.5823,-1.6033,-1.6094,-1.6639,-1.6776,-1.6542,-1.6437,-1.6234,-1.5992,-1.585,-1.5913,-1.6071,0.0,0.0,0.0,0.0,0.0,0.0,0.0,-4.0039,-3.9671,-3.8877,-3.8721,-3.8659,-3.8357,-3.8091,-3.7755,0.0,0.0,0.0,0.0,0.0,0.0,0.0,0.0,0.0,0.0,-2.0928,-2.0095,-1.9944,0.0,-2.2241,-2.3062,-2.4637,-2.4957,-2.4115,-2.2937,-2.2472,0.0,0.0,0.0,0.0,-3.1094,0.0,0.0,0.0,0.0,0.0,0.0,0.0,0.0,0.0,-4.5052,-4.2137,-3.8497,-3.5145,-3.1828,-2.8351,-2.5836,-2.3637,-2.115,-1.9672,-1.8584,-1.7686,-1.71,-1.6814,-1.7031,0.0,0.0,0.0,-1.7007,-1.677,-1.7035,-1.6606,0.0,-1.5504,-1.4858,-1.4313,-1.4033,-1.4323,-1.4605,-1.4453,-1.4611,-1.4475,-1.3633,-1.3352,-1.3232,-1.3222,-1.3641,-1.3344,-1.2033,-1.068,-0.9331,-0.7855,-0.796,-0.8338,-0.8793,-0.9873,-1.0797,-1.1444,-1.2382,-1.3291,-1.4259,-1.4508,-1.4992,-1.5785,-1.6132,-1.6282,-1.6466,-1.682,-1.6844,-1.6589,-1.648,-1.6152,-1.5813,-1.5632,-1.5724,-1.5787,0.0,0.0,0.0,0.0,0.0,0.0,0.0,-3.9464,-3.9214,-3.85,-3.8319,-3.8086,-3.7831,-3.7999,-3.7977,0.0,0.0,0.0,0.0,0.0,0.0,0.0,0.0,0.0,0.0,0.0,0.0,-2.1257,-2.2698,0.0,0.0,0.0,0.0,0.0,-2.5764,-2.5384,-2.58,-2.6436,0.0,0.0,0.0,-3.5368,0.0,0.0,0.0,0.0,0.0,0.0,0.0,0.0,-4.5425,-4.285,-3.9275,-3.5673,-3.2034,-2.8722,-2.623,-2.3891,-2.1042,-1.9457,-1.8461,-1.7695,-1.7232,-1.7134,-1.7859,-1.7783,0.0,-1.8334,-1.8032,-1.7828,-1.7902,-1.7656,-1.7105,0.0,-1.6113,-1.5771,-1.5086,-1.5385,-1.5633,0.0,-1.5613,0.0,-1.4643,-1.4414,-1.4242,-1.4161,-1.4499,-1.4031,-1.2643,-1.0625,-0.8953,-0.7811,-0.8017,-0.8553,-0.9104,-1.0148,-1.1147,-1.1982,-1.309,-1.3939,-1.4703,-1.5171,-1.5697,-1.628,-1.6477,-1.6594,-1.6714,-1.6889,-1.6822,-1.6542,-1.6412,-1.6085,-1.5658,-1.5479,-1.5459,-1.5433,0.0,0.0,0.0,0.0,0.0,0.0,0.0,-3.955,-3.9141,-3.8341,-3.8843,-3.9,-3.8263,-3.7887,-3.8056,0.0,0.0,0.0,0.0,0.0,0.0,0.0,0.0,0.0,0.0,0.0,0.0,-2.3134,-2.4964,0.0,0.0,0.0,0.0,0.0,0.0,-2.7495,-2.6671,-2.7808,0.0,0.0,0.0,0.0,0.0,0.0,0.0,0.0,0.0,0.0,0.0,0.0,0.0,-4.2682,-3.9968,-3.694,-3.3711,-3.0202,0.0,0.0,-2.2039,-2.0027,-1.8467,-1.7413,-1.6828,-1.6741,-1.7398,0.0,-1.8273,-1.9264,-1.9549,-1.9525,-1.9407,-1.9549,-1.9226,-1.7959,0.0,-1.7553,-1.6507,-1.6578,-1.6602,-1.6206,0.0,0.0,-1.5394,-1.5207,-1.507,-1.4903,-1.4772,-1.3893,-1.2211,-1.0706,-0.9399,-0.817,-0.8688,-0.9274,-0.9947,-1.1088,-1.2025,-1.2807,-1.3676,-1.4458,-1.5134,-1.5562,-1.6174,-1.6934,-1.7173,-1.7247,-1.7237,-1.7229,-1.7096,-1.6767,-1.6624,-1.622,-1.5624,-1.5309,-1.4976,-1.464,0.0,0.0,0.0,0.0,0.0,0.0,-3.8942,-3.9026,-3.8845,-3.8205,-3.8364,-3.8603,-3.8762,-3.8412,-3.8324,-3.8777,0.0,0.0,0.0,0.0,0.0,0.0,0.0,0.0,0.0,0.0,-2.508,-2.5753,-2.721,0.0,0.0,0.0,0.0,0.0,0.0,-2.8927,-2.8713,-2.9334,0.0,0.0,0.0,0.0,0.0,0.0,0.0,0.0,0.0,0.0,-4.6584,0.0,0.0,0.0,-4.0785,-3.8322,0.0,0.0,-2.8101,-2.5563,-2.2509,-2.0339,-1.8676,-1.7817,-1.7313,-1.7286,-1.8078,0.0,-1.8918,-1.9746,-2.0,-1.9978,-1.9985,-1.9793,-1.9466,-1.8681,0.0,0.0,-1.7586,-1.7649,-1.7649,-1.7161,-1.6887,-1.648,-1.5926,-1.55,-1.5126,-1.5102,-1.4926,-1.4322,-1.2941,-1.1453,-1.0092,-0.8969,-0.9373,-0.9954,-1.0737,-1.1604,-1.2608,-1.3655,-1.4427,-1.5241,-1.608,-1.6329,-1.6852,-1.7539,-1.758,-1.761,-1.7742,-1.7761,-1.7497,-1.6993,-1.6835,-1.6262,-1.5549,-1.5458,-1.4876,-1.4273,0.0,0.0,0.0,0.0,0.0,-3.9153,-3.8681,-3.8837,-3.8836,-3.8448,-3.8383,-3.8513,-3.8837,-3.8795,-3.8674,-3.855,-3.8078,0.0,0.0,0.0,0.0,0.0,0.0,0.0,0.0,0.0,-2.7047,-2.7944,-2.9083,-3.0259,0.0,0.0,-3.1894,-3.1858,0.0,0.0,0.0,0.0,0.0,0.0,0.0,0.0,0.0,0.0,0.0,0.0,0.0,0.0,0.0,0.0,0.0,0.0,0.0,0.0,0.0,0.0,-2.901,-2.6521,-2.3345,-2.11,-1.9395,-1.8377,-1.7896,-1.7851,0.0,0.0,-1.9521,-2.0437,-2.0638,-2.0602,-2.0657,-2.0395,-2.0003,0.0,0.0,-1.9264,-1.8469,-1.8594,-1.8594,-1.8103,0.0,-1.6775,-1.6452,-1.5736,-1.5193,-1.5124,-1.5134,-1.4766,-1.3808,-1.2708,-1.1508,-1.0305,-1.0564,-1.1053,-1.1869,-1.2558,-1.342,-1.4455,-1.5157,-1.5987,-1.6759,-1.703,-1.7505,-1.8152,-1.7823,-1.7848,-1.8047,-1.7739,-1.7465,-1.7072,-1.6846,-1.6305,-1.5635,-1.5557,-1.4934,-1.4185,0.0,0.0,0.0,0.0,0.0,0.0,-3.9023,-3.9115,-3.9206,-3.9206,-3.9362,-3.9149,-3.8193,-3.8947,-3.9149,-3.8176,-3.8089,0.0,0.0,0.0,0.0,0.0,0.0,0.0,0.0,0.0,-2.8686,-2.946,-3.0508,-3.1329,-3.1986,-3.2603,-3.2456,-3.1693,0.0,0.0,0.0,0.0,0.0,0.0,0.0,0.0,0.0,0.0,0.0,0.0,0.0,0.0,0.0,0.0,0.0,0.0,0.0,0.0,0.0,0.0,-3.0577,-2.8233,-2.4716,-2.2422,-2.0708,-1.8998,-1.8371,-1.8319,0.0,0.0,-2.0012,-2.1318,-2.1582,-2.1651,-2.1706,-2.1722,-2.1328,-2.0127,-2.0412,0.0,-1.9412,-1.9478,-1.9399,0.0,-1.8014,-1.7253,-1.6861,-1.5934,-1.5332,-1.5166,-1.524,-1.507,-1.4316,-1.4252,-1.3675,-1.2349,-1.236,-1.2737,-1.3333,-1.4068,-1.4708,-1.5109,-1.6063,-1.666,-1.7147,-1.7716,-1.8273,-1.8621,-1.8078,-1.7895,-1.7989,-1.7026,-1.6714,-1.6837,-1.6473,-1.619,-1.597,-1.5733,-1.5056,-1.4377,0.0,0.0,0.0,0.0,0.0,0.0,0.0,-3.9412,-3.9799,-3.9799,-3.9867,-3.9783,-3.9496,-3.9194,-3.8925,-3.8656,-3.8328,0.0,0.0,0.0,0.0,0.0,0.0,0.0,0.0,-2.9451,-2.9562,-2.9617,-3.0857,-3.1438,-3.1411,-3.2193,-3.2451,-3.2237,-3.2086,-3.1929,0.0,0.0,0.0,0.0,0.0,0.0,-3.9441,0.0,0.0,0.0,0.0,0.0,0.0,0.0,0.0,0.0,0.0,0.0,0.0,0.0,0.0,0.0,-2.6483,-2.4416,-2.2677,-2.1366,-2.0515,-2.0164,-2.0471,0.0,-2.0899,-2.2058,-2.2149,-2.2199,-2.2625,-2.2138,-2.146,-2.0634,-2.0383,0.0,0.0,0.0,0.0,-1.8192,-1.7313,-1.6514,-1.6192,-1.6204,-1.6108,-1.5906,-1.5905,-1.5728,-1.5356,-1.5152,-1.4288,-1.2875,-1.3611,-1.3968,-1.389,-1.4799,-1.5499,-1.6056,-1.6583,-1.7155,-1.7708,-1.8353,-1.8834,-1.9125,-1.9192,-1.8766,-1.81,-1.7886,-1.719,-1.619,-1.6088,-1.5886,-1.5734,-1.5818,-1.5373,-1.4798,0.0,0.0,0.0,0.0,0.0,0.0,0.0,-3.9302,-3.9691,-4.0302,-4.0082,-3.9895,-3.9944,-3.9742,-3.9384,-3.8836,-3.8466,0.0,0.0,0.0,0.0,0.0,0.0,0.0,-3.0479,-3.033,-3.0129,-2.9794,-3.0745,-3.092,-3.0524,-3.1114,-3.1532,-3.1795,-3.1602,-3.174,0.0,0.0,0.0,0.0,0.0,0.0,-3.859,0.0,0.0,0.0,0.0,0.0,0.0,0.0,0.0,0.0,0.0,0.0,0.0,0.0,-3.2169,0.0,0.0,-2.5968,-2.4393,-2.3082,-2.2275,0.0,0.0,0.0,0.0,-2.2997,-2.307,-2.3019,-2.323,-2.2754,-2.2098,-2.1432,-2.082,0.0,0.0,0.0,0.0,-1.7629,-1.7047,-1.6584,-1.6141,-1.6686,-1.6951,-1.6756,-1.6936,-1.6886,-1.6579,-1.6487,-1.5812,-1.4579,-1.4943,-1.5146,-1.5109,-1.582,-1.6369,-1.6553,-1.7072,-1.7529,-1.8103,-1.8754,-1.9152,-1.9529,-1.9459,-1.8942,0.0,-1.7737,-1.6886,-1.5859,-1.5785,-1.5873,-1.6071,-1.6472,-1.6335,-1.6054,0.0,0.0,0.0,0.0,0.0,0.0,0.0,-3.8872,-3.9038,-4.0642,-4.0117,-3.9606,-3.9744,-4.04,-4.0227,-3.8691,0.0,0.0,0.0,0.0,0.0,0.0,0.0,0.0,-3.1646,-3.0916,-3.0366,-3.0002,-3.017,-2.998,-2.9454,-2.9541,-2.9971,-3.064,-3.0531,-3.1062,-3.2076,-3.3573,-3.4558,-3.5229,-3.6671,-3.7427,0.0,0.0,0.0,0.0,0.0,0.0,0.0,0.0,0.0,0.0,0.0,0.0,0.0,0.0,0.0,0.0,0.0,0.0,-2.5877,-2.439,-2.3681,-2.3243,0.0,0.0,0.0,0.0,0.0,-2.3869,-2.3748,-2.3385,-2.2904,-2.2274,-2.1597,0.0,0.0,-1.9588,0.0,-1.7136,-1.728,-1.7206,-1.6682,-1.7276,-1.771,-1.7802,-1.8172,-1.83,-1.7874,-1.8095,-1.7794,-1.6916,-1.6285,-1.6205,-1.6784,-1.7069,-1.708,-1.6812,-1.7456,-1.7934,-1.8336,-1.8834,-1.9399,-1.9923,-1.9149,-1.8502,-1.7985,-1.6731,-1.6084,-1.5705,-1.5561,-1.5986,-1.674,-1.7454,-1.7768,-1.7852,0.0,0.0,0.0,0.0,0.0,0.0,0.0,0.0,0.0,0.0,-4.0333,-4.0211,-4.0254,-4.0385,-3.9835,0.0,0.0,0.0,0.0,0.0,0.0,0.0,0.0,0.0,-3.1985,-3.1264,-3.0583,-2.9921,-2.9992,-2.9608,-2.8794,-2.8783,-2.9225,-3.0013,-3.0448,-3.1791,-3.3718,-3.4023,-3.4597,-3.5457,-3.6831,-3.7218,0.0,0.0,0.0,0.0,-3.9077,-3.9588,0.0,0.0,0.0,0.0,0.0,0.0,0.0,0.0,-3.2398,0.0,-2.9663,0.0,-2.7487,-2.6324,-2.5213,-2.4459,0.0,0.0,0.0,0.0,0.0,0.0,0.0,0.0,0.0,-2.1577,-2.0764,-2.0008,-1.9085,-1.8135,0.0,-1.7154,-1.7168,-1.7296,-1.7485,-1.7935,-1.8257,-1.8353,-1.8775,-1.8995,-1.8746,-1.8372,-1.8203,-1.8062,-1.7286,-1.674,-1.6684,-1.7203,-1.7497,-1.7456,-1.7789,-1.8273,-1.8834,-1.924,-1.9715,-2.0177,-1.9759,-1.8981,-1.7856,-1.7108,-1.6055,-1.499,-1.5389,-1.5834,-1.6354,-1.7277,-1.7719,-1.7951,0.0,0.0,0.0,0.0,0.0,0.0,0.0,0.0,0.0,0.0,0.0,0.0,0.0,0.0,0.0,0.0,0.0,0.0,0.0,0.0,0.0,0.0,0.0,-3.3302,-3.2589,-3.1725,-3.0642,-2.9417,-2.9337,-2.8715,-2.7609,-2.7699,-2.8196,-2.9049,-3.0456,-3.2188,-3.4007,-3.4086,-3.471,-3.5682,-3.6704,0.0,0.0,0.0,0.0,0.0,-3.8446,-3.8732,0.0,-3.8939,-3.8048,-3.7096,0.0,0.0,0.0,0.0,-3.1993,-3.0981,-2.9858,-2.892,-2.8077,-2.7206,-2.6417,-2.5687,-2.5267,0.0,0.0,0.0,0.0,0.0,0.0,0.0,0.0,0.0,-2.1006,0.0,0.0,0.0,-1.7458,-1.7643,-1.7846,-1.8037,-1.849,-1.898,-1.9384,-1.9715,-2.0054,-2.015,-1.9877,-1.9389,-1.8931,-1.8396,-1.7768,-1.7338,-1.7131,-1.7491,-1.7655,-1.7546,-1.7951,-1.8514,-1.9152,-1.9627,-1.9993,-2.012,-1.9812,-1.872,-1.7209,-1.6474,-1.5708,-1.4854,-1.5404,-1.6187,-1.7067,-1.8267,-1.8875,-1.9162,0.0,0.0,0.0,0.0,0.0,0.0,0.0,0.0,0.0,0.0,0.0,0.0,0.0,0.0,0.0,0.0,0.0,0.0,0.0,0.0,0.0,0.0,-3.4745,-3.3984,-3.3232,-3.222,-3.0909,-2.928,-2.8758,-2.7905,-2.6655,-2.6638,-2.719,-2.8365,-3.0603,-3.2392,-3.3786,-3.4193,-3.4947,-3.5843,-3.6582,0.0,0.0,0.0,0.0,0.0,0.0,0.0,0.0,-3.7845,-3.7055,-3.6123,-3.5679,0.0,0.0,0.0,0.0,0.0,-2.9858,-2.9036,-2.8174,-2.7454,-2.7024,-2.6608,-2.6163,0.0,0.0,0.0,0.0,0.0,0.0,-2.4466,0.0,0.0,0.0,-1.9689,-1.8278,-1.7935,-1.8026,-1.8279,-1.8766,-1.92,-1.9408,-2.0087,-2.0615,-2.0778,-2.111,-2.1048,-2.0617,-2.0127,-1.9434,-1.8345,-1.7883,-1.7696,-1.7696,-1.7666,-1.7708,-1.7635,-1.8132,-1.8815,-1.9446,-1.9927,-2.0004,-1.9889,-1.9439,-1.8327,-1.6674,-1.5758,-1.5342,-1.5203,-1.5851,-1.6854,-1.8145,-1.9534,-2.0203,-2.0453,0.0,0.0,0.0,0.0,0.0,0.0,0.0,0.0,0.0,0.0,0.0,0.0,0.0,0.0,0.0,0.0,0.0,0.0,0.0,0.0,0.0,-3.5622,-3.4745,-3.4114,-3.3715,-3.2821,-3.2056,-3.1445,-2.9314,-2.8111,-2.7816,-2.6062,-2.6794,-2.9577,-3.0973,-3.264,-3.4407,-3.4972,-3.5447,-3.5907,-3.682,0.0,0.0,0.0,0.0,0.0,0.0,0.0,0.0,-3.7387,-3.6378,-3.5105,-3.5705,0.0,0.0,0.0,0.0,0.0,-2.9858,-2.9142,-2.8319,-2.7208,-2.6589,-2.6266,-2.5948,0.0,0.0,0.0,0.0,0.0,0.0,-2.3727,-2.2193,0.0,-1.9402,-1.7953,-1.7966,-1.7995,-1.8287,-1.8985,-1.9479,-1.9973,-2.0253,-2.055,-2.0596,-2.0081,-2.0479,-2.0342,-1.9534,-1.8966,-1.853,-1.8327,-1.7706,-1.7543,-1.7709,-1.77,-1.7951,-1.8531,-1.8572,-1.9096,-2.001,-1.9723,-1.981,-2.003,-1.9136,-1.8202,-1.7243,-1.6438,-1.6029,-1.6102,-1.6936,-1.7788,-1.867,-1.9698,-2.0128,-2.0051,0.0,0.0,0.0,0.0,0.0,0.0,0.0,0.0,0.0,0.0,0.0,0.0,0.0,0.0,0.0,0.0,0.0,0.0,0.0,0.0,-3.5932,-3.5515,-3.5059,-3.4464,-3.3604,-3.2492,-3.139,-3.0347,-2.8439,-2.7296,-2.6899,-2.6834,-2.8042,-3.0408,-3.1803,-3.3324,-3.4923,-3.5415,-3.5978,-3.6506,0.0,0.0,0.0,0.0,0.0,0.0,0.0,0.0,0.0,0.0,-3.5751,-3.4933,-3.4878,0.0,0.0,0.0,0.0,0.0,-3.0172,-2.9669,-2.9031,-2.8162,-2.7314,-2.6579,0.0,0.0,0.0,0.0,0.0,0.0,0.0,0.0,-2.2476,-2.0973,-1.9204,-1.7981,-1.7977,-1.8443,-1.8844,-1.9298,-2.0014,-2.0573,-2.097,-2.1105,-2.1066,-2.0625,-2.0466,-2.0169,-1.9831,-1.9179,-1.887,-1.8804,-1.8789,-1.8744,-1.8816,-1.9012,-1.8988,-1.8727,-1.9345,-1.9905,-2.0327,-1.9971,-1.9565,-1.9241,-1.8162,-1.7024,-1.587,-1.5475,-1.5694,-1.6314,-1.7182,-1.8352,-1.9683,-2.0161,-2.0118,-1.9726,0.0,0.0,0.0,0.0,0.0,0.0,0.0,0.0,0.0,0.0,0.0,0.0,0.0,0.0,0.0,0.0,0.0,0.0,0.0,-3.6402,-3.6036,-3.5515,-3.5367,-3.4692,-3.3385,-3.2241,-3.0885,-2.9394,-2.7914,-2.6837,-2.6165,-2.7689,-2.9234,-3.0876,-3.2367,-3.3794,-3.5147,-3.5627,-3.6307,-3.7049,0.0,0.0,0.0,0.0,0.0,0.0,0.0,0.0,0.0,0.0,0.0,0.0,0.0,0.0,0.0,-3.2633,-3.171,-3.0991,-3.0795,-3.0287,-2.963,-2.9055,-2.8136,0.0,0.0,0.0,0.0,0.0,0.0,0.0,0.0,-2.3896,0.0,-2.0551,-1.9238,-1.8378,-1.8213,-1.8792,-1.9358,-1.9686,-2.0435,-2.1015,-2.1448,-2.1448,-2.1318,-2.087,-2.0461,-2.0144,-2.0042,-1.9552,-1.9315,-1.9479,-1.994,-2.022,-2.037,-2.0805,-2.049,-1.9531,-2.0244,-2.0564,-2.0445,-1.9933,-1.9147,-1.8157,-1.7098,-1.5936,-1.4754,-1.4846,-1.5528,-1.6562,-1.7516,-1.8892,-2.0445,-2.0392,-1.9955,-1.9407,0.0,0.0,0.0,0.0,0.0,0.0,0.0,0.0,0.0,0.0,0.0,0.0,0.0,0.0,0.0,0.0,0.0,0.0,0.0,-3.6485,-3.6148,-3.5773,-3.5532,-3.4659,-3.3145,-3.2673,-3.1776,-3.0479,-2.8832,-2.7615,-2.6864,-2.8077,-2.9409,-3.0876,-3.2169,-3.3524,-3.4961,-3.5675,-3.6292,-3.6851,-3.7544,0.0,0.0,0.0,0.0,0.0,0.0,0.0,0.0,0.0,0.0,0.0,0.0,0.0,-3.3941,-3.3369,-3.2544,-3.1812,-3.1618,-3.0909,-3.0171,-2.9268,-2.8645,0.0,-2.7053,-2.6338,0.0,-2.5077,0.0,0.0,0.0,-2.2777,-2.1225,-1.9753,-1.8904,-1.8465,-1.837,-1.8826,-1.9427,-2.0214,-2.0782,-2.1208,-2.1393,-2.1393,-2.0974,-1.9916,-1.9996,-1.9967,-1.9579,-1.9324,-1.9561,-2.0348,-2.082,-2.1367,-2.2049,-2.2682,-2.2528,-2.1573,-2.0962,-2.0575,-2.0292,-1.9287,-1.8185,-1.7083,-1.6156,-1.5615,-1.5348,-1.5689,-1.6275,-1.7189,-1.8384,-1.9614,-2.0496,-1.9879,-1.9469,-1.9131,0.0,0.0,0.0,0.0,0.0,0.0,0.0,0.0,0.0,0.0,0.0,0.0,0.0,0.0,0.0,0.0,0.0,0.0,0.0,-3.6609,-3.6233,-3.5817,-3.5532,-3.4735,-3.3304,-3.2305,-3.097,-2.9286,-2.7905,-2.735,-2.758,-2.9245,-3.0612,-3.1769,-3.2838,-3.3706,-3.4468,-3.5077,-3.5767,-3.6487,-3.6888,-3.7261,0.0,0.0,0.0,0.0,0.0,0.0,0.0,0.0,-3.4578,-3.4753,-3.3922,-3.4042,-3.4276,-3.3296,-3.259,-3.2072,-3.1984,-3.107,-3.0007,-2.965,-2.8949,0.0,0.0,-2.5746,-2.479,-2.4564,-2.3863,0.0,0.0,0.0,-2.1521,-2.0589,-1.9566,-1.8828,-1.86,-1.8811,-1.9221,-1.9787,-2.0292,-2.0827,-2.1523,-2.1485,-2.1071,-2.0328,-2.0168,-2.0152,-2.0133,-2.0419,-2.1043,-2.2142,-2.3015,-2.3576,-2.3826,-2.403,-2.3863,-2.3406,-2.2069,-2.0955,-2.0057,-1.8451,-1.7165,-1.6156,-1.5327,-1.5065,-1.5276,-1.5805,-1.6799,-1.8089,-1.947,-1.9962,-1.9992,-1.9788,-1.9369,-1.8942,0.0,0.0,0.0,0.0,0.0,0.0,0.0,0.0,0.0,0.0,0.0,0.0,0.0,0.0,0.0,0.0,0.0,0.0,-3.7048,-3.6731,-3.6318,-3.5905,-3.5577,-3.4827,-3.3524,-3.2271,-3.0752,-2.8981,-2.7821,-2.7725,-2.8642,-3.0198,-3.1338,-3.2163,-3.3013,-3.3672,-3.4069,-3.4421,-3.5084,-3.5953,-3.6319,-3.6678,0.0,0.0,0.0,0.0,0.0,0.0,0.0,0.0,-3.4376,-3.4545,-3.3802,-3.4144,-3.4607,-3.3587,-3.2889,-3.2357,-3.2099,-3.1064,-3.0063,-2.959,0.0,0.0,-2.6674,-2.532,-2.4263,-2.3996,-2.3411,-2.3001,-2.3231,-2.2625,-2.183,-2.1075,-2.0086,-1.9207,-1.8742,-1.8763,-1.9044,-1.947,-1.9825,-2.0347,-2.1278,-2.1352,-2.1146,-2.0866,-2.082,-2.1002,-2.1348,-2.1756,-2.2524,-2.3685,-2.4676,-2.5163,-2.5222,-2.5153,-2.4897,-2.43,-2.242,-2.0909,-1.9593,-1.7807,-1.6377,-1.5289,-1.4768,-1.4939,-1.5642,-1.6199,-1.7252,-1.8614,-1.9593,-1.9697,-1.9273,-1.9511,-1.927,-1.8942,0.0,0.0,0.0,0.0,0.0,0.0,0.0,0.0,0.0,0.0,0.0,0.0,0.0,0.0,0.0,0.0,0.0,0.0,-3.7129,-3.6776,-3.6426,-3.6019,-3.5605,-3.4906,-3.3822,-3.2618,-3.1325,-2.9989,-2.8996,-2.906,-3.0133,-3.0844,-3.1373,-3.1737,-3.2491,-3.3203,-3.3863,-3.3698,-3.4272,-3.5416,-3.5977,-3.5925,-3.5674,0.0,0.0,0.0,0.0,0.0,0.0,0.0,-3.4134,-3.4623,-3.4429,-3.4539,-3.4715,-3.4125,-3.3636,-3.3027,-3.1953,-3.1157,-3.0273,0.0,0.0,0.0,-2.6139,-2.5336,-2.4519,-2.3509,-2.3,-2.2923,-2.3289,-2.2748,-2.1873,-2.0772,-2.0191,-1.9625,-1.8834,-1.87,-1.8914,-1.9534,-1.9579,-1.9898,-2.0708,-2.0894,-2.1125,-2.1263,-2.182,-2.2463,-2.3189,-2.3134,-2.3643,-2.4838,-2.5425,-2.5807,-2.6078,-2.6083,-2.5453,-2.415,-2.1798,-2.0111,-1.8937,-1.734,-1.5851,-1.4529,-1.4647,-1.5338,-1.6457,-1.7002,-1.7765,-1.8619,-1.8577,-1.8522,-1.8566,-1.8973,-1.9071,-1.9198,0.0,0.0,0.0,0.0,0.0,0.0,0.0,0.0,0.0,0.0,0.0,0.0,0.0,0.0,0.0,0.0,0.0,0.0,-3.7241,-3.6811,-3.6402,-3.6165,-3.5639,-3.5035,-3.4426,-3.3113,-3.1438,-2.9391,-2.917,-2.9564,-3.0595,-3.1385,-3.1799,-3.1855,-3.1982,-3.2161,-3.2389,-3.2662,-3.3392,-3.4413,-3.5139,-3.5656,-3.5991,0.0,0.0,0.0,0.0,0.0,0.0,0.0,0.0,0.0,-3.4094,-3.3995,-3.4133,-3.3764,-3.2911,-3.2136,-3.1983,-3.1004,0.0,-2.8718,0.0,0.0,0.0,-2.4894,0.0,0.0,-2.3644,-2.3556,-2.3673,-2.3446,-2.2853,-2.1624,-2.0795,-2.0012,-1.9207,-1.9002,-1.9155,-1.9942,-2.0304,-2.0738,-2.1399,-2.164,-2.1777,-2.1748,-2.2147,-2.2663,-2.3183,-2.3789,-2.4578,-2.547,-2.6073,-2.635,-2.6235,-2.6026,-2.5127,-2.3533,-2.1725,-1.9922,-1.8214,-1.6636,-1.5625,-1.5177,-1.5497,-1.6366,-1.7647,-1.851,-1.8591,-1.8259,-1.8385,-1.8148,-1.7846,-1.8667,-1.9041,-1.9201,0.0,0.0,0.0,0.0,0.0,0.0,0.0,0.0,0.0,0.0,-4.0586,0.0,0.0,0.0,0.0,0.0,0.0,0.0,0.0,-3.6873,-3.6485,-3.6122,-3.5594,-3.4908,-3.4104,-3.3335,-3.2247,-3.078,-3.0275,-3.0479,-3.1212,-3.1498,-3.1612,-3.1465,-3.1218,-3.138,-3.1777,-3.1847,-3.2663,-3.393,-3.437,-3.4797,-3.5208,0.0,0.0,0.0,0.0,0.0,0.0,0.0,0.0,0.0,0.0,0.0,-3.4375,-3.3707,-3.2824,-3.198,-3.1239,-3.0274,0.0,-2.785,-2.7233,-2.6617,-2.5691,0.0,0.0,0.0,-2.467,-2.4704,-2.4602,-2.4262,-2.3526,-2.2119,-2.1194,-2.0375,-1.9655,-1.9529,-1.9636,-2.0203,-2.0879,-2.1531,-2.1751,-2.2339,-2.2655,-2.2657,-2.3029,-2.345,-2.3952,-2.4582,-2.5172,-2.5752,-2.6356,-2.6373,-2.5702,-2.5641,-2.4633,-2.2709,-2.1212,-1.9757,-1.8227,-1.6644,-1.581,-1.5592,-1.6536,-1.7623,-1.8663,-1.9341,-1.9128,-1.8325,-1.8397,-1.8024,-1.7643,-1.8534,-1.9109,-1.9482,0.0,0.0,0.0,0.0,0.0,0.0,0.0,0.0,0.0,0.0,-3.9975,-4.0061,0.0,0.0,0.0,0.0,0.0,0.0,0.0,-3.7013,-3.6533,-3.6019,-3.5503,-3.4601,-3.3194,-3.3454,-3.3546,-3.335,-3.2073,-3.1605,-3.1902,-3.1505,-3.1114,-3.0718,-3.0462,-3.0874,-3.1786,-3.1377,-3.2202,-3.3858,-3.3677,-3.3756,-3.4025,-3.4403,0.0,0.0,0.0,0.0,0.0,0.0,0.0,0.0,0.0,-3.5011,-3.4912,-3.3884,-3.3171,-3.2278,-3.0191,0.0,0.0,-2.68,-2.6438,0.0,-2.5955,-2.556,-2.537,-2.5751,-2.6062,-2.6075,-2.5786,-2.4982,-2.3926,-2.2377,-2.1403,-2.0671,-1.9984,-2.011,-2.0254,-2.0396,-2.1575,-2.2204,-2.1978,-2.2926,-2.3612,-2.3831,-2.4196,-2.4607,-2.514,-2.5253,-2.5413,-2.5724,-2.624,-2.5966,-2.4805,-2.4957,-2.3987,-2.1847,-2.0721,-1.9648,-1.8696,-1.728,-1.6409,-1.6116,-1.7863,-1.891,-1.9457,-1.9679,-1.9311,-1.8553,-1.843,-1.8085,-1.7781,-1.8577,-1.9271,-1.9946,0.0,0.0,0.0,0.0,0.0,0.0,0.0,0.0,0.0,0.0,0.0,0.0,0.0,0.0,0.0,0.0,0.0,0.0,0.0,-3.6913,-3.6426,-3.6114,-3.5287,-3.448,-3.374,-3.4226,-3.4206,-3.3748,-3.342,-3.3067,-3.273,-3.2765,-3.1914,-3.0401,-3.0597,-3.1013,-3.1551,-3.1485,-3.2202,-3.3466,-3.3902,-3.4213,-3.4455,-3.4987,-3.5642,0.0,0.0,0.0,0.0,0.0,0.0,0.0,-3.5615,-3.5067,-3.4541,-3.4315,-3.3462,-3.2463,-3.1148,-3.0225,0.0,0.0,-2.6668,-2.6344,-2.6736,-2.6992,-2.7148,-2.7119,-2.6911,-2.6622,-2.6473,-2.5315,-2.4011,-2.2725,-2.1594,-2.0648,-1.9929,-2.0212,-2.0669,-2.1126,-2.2107,-2.2753,-2.2982,-2.3494,-2.3866,-2.4034,-2.4235,-2.4544,-2.5039,-2.5333,-2.5328,-2.501,-2.5783,-2.5646,-2.4489,-2.4773,-2.4069,-2.2365,-2.1627,-2.0412,-1.8921,-1.7982,-1.7893,-1.8431,-1.9206,-1.954,-1.9577,-1.9491,-1.8976,-1.817,-1.8077,-1.7857,-1.7756,-1.8486,-1.9091,-1.9587,0.0,0.0,0.0,0.0,0.0,0.0,0.0,0.0,0.0,0.0,0.0,0.0,0.0,0.0,0.0,0.0,0.0,0.0,0.0,0.0,-3.6498,-3.6231,-3.5776,-3.5377,-3.5001,-3.5374,-3.5411,-3.4919,-3.5132,-3.4442,-3.2998,-3.2721,-3.1965,-3.0725,-3.0693,-3.1011,-3.1617,-3.1847,-3.2475,-3.3386,-3.3804,-3.4212,-3.4517,-3.4683,-3.5053,-3.5468,-3.5508,0.0,0.0,0.0,0.0,0.0,0.0,0.0,-3.5046,-3.4481,-3.3688,-3.2904,-3.1589,0.0,0.0,-2.7944,0.0,-2.6539,-2.7115,-2.7782,-2.8222,-2.8077,-2.7992,-2.7773,-2.7177,-2.6212,-2.5049,-2.3595,-2.2383,-2.1376,-2.0765,-2.1118,-2.1509,-2.1958,-2.3003,-2.3648,-2.3553,-2.4221,-2.458,-2.4518,-2.465,-2.4878,-2.5244,-2.5246,-2.5336,-2.5494,-2.5502,-2.525,-2.4771,-2.4525,-2.3638,-2.2142,-2.1527,-2.0625,-1.9516,-1.8498,-1.8403,-1.9131,-1.946,-1.9661,-1.9656,-1.946,-1.904,-1.8398,-1.8127,-1.803,-1.8075,-1.8449,-1.8925,-1.9518,0.0,0.0,0.0,0.0,0.0,0.0,0.0,0.0,0.0,0.0,0.0,0.0,0.0,0.0,0.0,0.0,0.0,0.0,0.0,0.0,0.0,-3.6329,-3.6486,-3.645,-3.6189,-3.6517,-3.6489,-3.6099,-3.6504,-3.5491,-3.315,-3.2586,-3.1842,-3.0979,-3.0729,-3.0997,-3.1749,-3.2111,-3.2787,-3.3564,-3.3762,-3.4128,-3.4428,-3.4286,-3.4315,-3.4495,-3.4949,-3.5396,-3.5812,-3.6074,0.0,0.0,0.0,0.0,-3.5898,-3.466,-3.4071,-3.3489,0.0,0.0,-2.9726,-2.8432,-2.7498,0.0,-2.7579,-2.8272,-2.8883,-2.8756,-2.8929,-2.8797,-2.7787,-2.7071,-2.6085,-2.4413,-2.3191,-2.2195,-2.1755,-2.1947,-2.237,-2.2774,-2.3897,-2.4519,-2.4144,-2.4958,-2.541,-2.5159,-2.5286,-2.5467,-2.5647,-2.5289,-2.537,-2.6098,-2.5357,-2.4993,-2.5086,-2.4364,-2.3346,-2.2016,-2.1078,-2.046,-2.0084,-1.9028,-1.8849,-1.9466,-1.9577,-1.9747,-1.9862,-1.9565,-1.921,-1.8839,-1.841,-1.8313,-1.8476,-1.8476,-1.8908,-1.9495,0.0,0.0,0.0,0.0,0.0,0.0,0.0,0.0,0.0,0.0,-4.0768,0.0,0.0,0.0,0.0,0.0,0.0,0.0,0.0,0.0,0.0,-3.6252,-3.6704,-3.6763,-3.6189,-3.677,-3.6765,-3.6205,-3.6504,-3.5722,-3.3878,-3.3746,-3.2499,-3.0268,-3.0734,-3.119,-3.1721,-3.1937,-3.2792,-3.3998,-3.4235,-3.4481,-3.4631,-3.466,-3.5049,-3.5595,-3.5398,-3.5667,-3.6287,-3.6459,-3.6365,0.0,0.0,0.0,-3.5951,-3.5399,-3.4924,-3.4327,0.0,0.0,-2.9868,0.0,-2.8504,-2.8206,0.0,0.0,-2.9311,-2.9267,-2.9201,-2.8864,-2.8013,-2.692,-2.5673,-2.4205,-2.3107,-2.2193,-2.1701,-2.1977,-2.2597,-2.3541,-2.4141,-2.4758,-2.5381,-2.5788,-2.5931,-2.5771,-2.5893,-2.6111,-2.6351,-2.5854,-2.5546,-2.5427,-2.5473,-2.5198,-2.4502,-2.4823,-2.4326,-2.2879,-2.0951,-1.989,-1.9683,-1.9792,-2.0261,-2.0913,-2.0604,-2.0395,-2.0271,-1.9759,-1.9396,-1.9133,-1.8839,-1.8744,-1.8744,-1.8893,-1.8982,-1.9095,0.0,0.0,0.0,0.0,0.0,0.0,0.0,0.0,0.0,0.0,0.0,-4.0331,0.0,0.0,0.0,0.0,0.0,0.0,0.0,0.0,0.0,-3.6918,-3.7385,-3.7584,-3.7568,-3.7616,-3.738,-3.6857,-3.6917,-3.6136,-3.4577,-3.4072,-3.2691,-3.0625,-3.0848,-3.1269,-3.1735,-3.2471,-3.3274,-3.409,-3.4603,-3.4817,-3.4817,-3.4964,-3.506,-3.5213,-3.5074,-3.5707,-3.6453,-3.6331,-3.6587,-3.6864,-3.6624,0.0,0.0,0.0,-3.5372,0.0,-3.3688,-3.2254,-3.1087,0.0,-2.9638,-2.9215,-2.9647,-2.9829,-2.9912,-2.967,-2.9974,-3.0029,-2.9162,-2.7913,-2.668,-2.5699,-2.4369,-2.3207,-2.2555,-2.296,-2.3567,-2.4115,-2.5101,-2.5908,-2.6416,-2.6616,-2.6694,-2.6649,-2.6526,-2.6366,-2.6301,-2.6332,-2.6459,-2.6673,-2.6634,-2.6498,-2.6326,-2.5607,-2.4091,-2.1796,-2.0368,-1.9711,-1.9784,-2.0006,-2.0185,-2.0334,-2.074,-2.0723,-2.0372,-1.9978,-1.9668,-1.9396,-1.9052,-1.8999,-1.9105,-1.9093,-1.9198,-1.9356,0.0,0.0,0.0,0.0,0.0,0.0,0.0,0.0,0.0,0.0,0.0,0.0,0.0,0.0,0.0,0.0,0.0,0.0,0.0,0.0,0.0,0.0,-3.7849,-3.8245,-3.8623,-3.8343,-3.7943,-3.7492,-3.7298,-3.644,-3.4836,-3.4137,-3.2763,-3.0941,-3.0845,-3.1225,-3.2062,-3.2847,-3.3477,-3.41,-3.4815,-3.5001,-3.4935,-3.4949,-3.4817,-3.4631,-3.475,-3.5419,-3.627,-3.6139,-3.6603,-3.7195,-3.6915,-3.666,0.0,0.0,0.0,0.0,0.0,0.0,-3.2434,-3.1623,-3.073,-3.0132,0.0,0.0,-3.0347,-3.0158,-3.0616,-3.0807,-3.0127,-2.8897,-2.7637,-2.6617,-2.5258,-2.4118,-2.3378,-2.3908,-2.4436,-2.4693,-2.5993,-2.7006,-2.7304,-2.7582,-2.7653,-2.7504,-2.7351,-2.7093,-2.6679,-2.7005,-2.7502,-2.8116,-2.7621,-2.7492,-2.7761,-2.574,-2.3496,-2.1027,-1.9937,-1.9625,-1.9984,-2.0105,-1.9954,-1.9714,-2.0718,-2.0871,-2.0472,-2.0131,-1.9875,-1.9604,-1.9251,-1.9251,-1.946,-1.9396,-1.95,-1.9708,0.0,0.0,0.0,0.0,0.0,0.0,0.0,0.0,0.0,0.0,0.0,0.0,-3.9792,-4.0076,-3.9843,-3.8627,-3.8219,-3.7523,-3.6385,-3.6764,-3.717,0.0,0.0,0.0,-3.8788,-3.8488,-3.8164,-3.77,-3.7492,-3.6428,-3.4534,-3.403,-3.2706,-3.0776,-3.0476,-3.1246,-3.2737,-3.2576,-3.3132,-3.4021,-3.4669,-3.4935,-3.4868,-3.4549,-3.4414,-3.4414,-3.4414,-3.4903,-3.5558,-3.6098,-3.6301,-3.6443,-3.7076,-3.6535,-3.5891,0.0,0.0,0.0,0.0,-3.373,0.0,-3.2277,-3.1473,0.0,0.0,-3.0649,-3.0613,-3.1058,-3.08,-3.0567,-3.0541,-2.9498,-2.7937,-2.5786,-2.4935,-2.4363,-2.3936,-2.4343,-2.4862,-2.5329,-2.6708,-2.7687,-2.7907,-2.8857,-2.9085,-2.813,-2.8554,-2.8697,-2.8225,-2.8151,-2.8388,-2.8894,-2.7828,-2.7341,-2.7609,-2.4688,-2.2687,-2.1616,-1.9995,-1.9558,-2.0206,-2.0286,-2.01,-1.9847,-2.067,-2.0921,-2.0759,-2.0233,-1.9926,-1.9759,-1.946,-1.9473,-1.9617,-1.9695,-1.985,-1.9991,0.0,0.0,0.0,0.0,0.0,0.0,0.0,0.0,0.0,0.0,0.0,0.0,0.0,-3.9506,-3.9227,-3.8559,-3.7756,-3.7246,-3.7119,-3.7021,-3.7437,-3.8434,-3.8572,-3.8805,-3.9131,-3.8821,-3.8488,-3.8164,-3.786,-3.7239,-3.6366,-3.5574,-3.4755,-3.3862,-3.1589,-3.134,-3.2596,-3.2878,-3.3687,-3.4821,-3.4993,-3.4883,-3.4601,-3.4668,-3.4534,-3.4264,-3.4481,-3.5025,-3.5511,-3.5464,-3.5727,-3.6112,-3.6413,-3.6234,-3.5981,-3.6362,-3.6098,0.0,0.0,0.0,0.0,-3.3611,-3.2411,-3.1495,-3.2048,-3.1599,-3.1087,-3.1364,-3.1342,-3.1057,-3.0401,-2.916,-2.7958,-2.7173,-2.6254,-2.549,-2.4919,-2.586,-2.6425,-2.5909,-2.7866,-2.9227,-2.9131,-2.9795,-3.0131,-3.0105,-2.9761,-2.9451,-2.915,-2.9459,-2.9667,-2.9565,-2.9353,-2.8228,-2.6202,-2.4326,-2.2474,-2.0717,-1.9908,-1.9648,-1.9904,-2.0175,-2.0337,-2.0393,-2.0721,-2.0611,-2.0175,-2.0142,-2.0029,-1.9926,-1.9708,-1.972,-1.9875,-2.0207,-2.0409,-2.0547,0.0,0.0,0.0,0.0,0.0,0.0,0.0,0.0,0.0,-4.0139,0.0,0.0,0.0,0.0,-3.8676,-3.815,-3.7644,-3.7428,-3.7577,-3.7504,-3.795,-3.9084,-3.8988,-3.9076,-3.952,-3.9077,-3.8766,-3.8448,-3.8164,-3.7674,-3.7054,-3.6378,-3.5814,-3.5239,-3.299,-3.2285,-3.2912,-3.3114,-3.3813,-3.4901,-3.5059,-3.4883,-3.4481,-3.4601,-3.4399,-3.4074,-3.4414,-3.4743,-3.5121,-3.5186,-3.5478,-3.5812,-3.6257,-3.6432,-3.6433,-3.6108,-3.5922,-3.5722,-3.5093,0.0,0.0,0.0,-3.2884,-3.2203,-3.2433,-3.2124,-3.1735,-3.1597,-3.1372,-3.0917,-3.0159,-2.8922,-2.8033,-2.7896,-2.7209,-2.6524,-2.6085,-2.7242,-2.7751,-2.6705,-2.8667,-2.9972,-2.979,-3.0428,-3.0989,-3.1473,-3.1218,-3.0909,-3.0729,-3.0999,-3.0723,-2.9797,-2.9856,-2.8337,-2.5042,-2.4,-2.2399,-2.0292,-1.9747,-1.9704,-2.0057,-2.0076,-2.024,-2.0522,-2.0731,-2.0526,-2.0015,-2.0079,-2.0131,-2.0029,-1.9914,-2.008,-2.0385,-2.066,-2.0894,-2.1153,0.0,0.0,0.0,0.0,0.0,0.0,0.0,0.0,-4.0194,-4.012,0.0,0.0,0.0,0.0,0.0,-3.7449,-3.7948,-3.807,-3.7689,-3.8269,-3.8866,-3.9422,-3.9168,-3.9327,-3.9918,-3.9325,-3.8892,-3.8688,-3.84,-3.7687,-3.6495,-3.6337,-3.5728,-3.4709,-3.4401,-3.4045,-3.3728,-3.3238,-3.3499,-3.4278,-3.4735,-3.4817,-3.4698,-3.4249,-3.3991,-3.3965,-3.4045,-3.4099,-3.4254,-3.5205,-3.5423,-3.547,-3.6684,-3.7252,-3.7135,-3.6034,-3.6045,-3.6088,0.0,0.0,0.0,0.0,-3.2855,-3.3171,-3.1998,-3.2282,-3.2553,-3.1875,-3.0845,-3.0072,-2.9856,-2.9059,-2.8312,-2.7893,-2.7513,-2.7367,-2.7339,-2.8271,-2.8626,-2.7674,-2.9037,-2.9989,-2.9855,-3.0853,-3.1685,-3.2238,-3.2853,-3.3165,-3.2977,-3.2604,-3.1517,-2.9575,-2.9316,-2.7624,-2.437,-2.3719,-2.2431,-2.0525,-1.953,-1.9691,-2.074,-1.9954,-1.9849,-2.0233,-2.0686,-2.0712,-2.0372,-2.0131,-2.008,-2.0182,-2.0093,-2.0435,-2.0983,-2.1006,-2.1348,-2.1793,0.0,0.0,0.0,0.0,0.0,0.0,-3.9444,-3.882,-3.829,0.0,0.0,0.0,-3.8173,-3.8144,-3.7966,-3.7449,-3.7529,-3.7897,-3.8632,-3.8782,-3.9271,-4.0288,-4.0097,-4.0138,-4.0517,-4.0126,-4.0061,-4.0336,-4.018,-3.9515,-3.8424,-3.8264,-3.7334,-3.5759,-3.545,-3.5093,-3.479,-3.456,-3.4751,-3.5304,-3.5419,-3.5249,-3.4758,-3.4222,-3.4207,-3.4438,-3.3796,-3.3835,-3.4206,-3.4419,-3.4658,-3.5036,-3.6213,-3.6761,-3.6812,-3.6399,-3.5998,-3.5644,-3.4953,0.0,0.0,0.0,0.0,0.0,-3.3008,-3.2695,-3.2266,-3.197,-3.1432,-3.0909,-3.0602,-3.0191,-2.9957,-3.0075,-2.8958,-2.8282,-2.8857,-2.9479,-2.9645,-2.9217,-3.0202,-3.109,-3.1451,-3.1939,-3.2782,-3.4006,-3.4021,-3.4152,-3.4472,-3.3379,-3.1777,-2.9575,-2.9316,-2.7896,-2.5192,-2.395,-2.2537,-2.0931,-1.9679,-1.9376,-1.991,-1.9778,-2.0019,-2.0486,-2.062,-2.0623,-2.0523,-2.0398,-2.0296,-2.0233,-2.0472,-2.0822,-2.118,-2.1602,-2.1888,-2.2147,0.0,0.0,0.0,0.0,0.0,0.0,-3.8476,-3.7909,-3.7411,0.0,0.0,0.0,-3.7415,-3.7471,-3.7451,-3.7394,-3.7919,-3.8523,-3.9151,-3.9626,-4.0151,-4.0758,-4.0534,-4.0442,-4.0523,-4.0154,-4.01,-4.0308,-4.0295,-3.9982,-3.9295,-3.9457,-3.8695,-3.714,-3.6886,-3.6428,-3.5815,-3.5753,-3.5734,-3.5831,-3.5752,-3.5509,-3.5103,-3.4703,-3.4727,-3.481,-3.4053,-3.3898,-3.4006,-3.3991,-3.4286,-3.479,-3.5492,-3.5797,-3.584,-3.5895,-3.5561,-3.5062,-3.4603,-3.3943,-3.3433,-3.3525,0.0,0.0,-3.3095,-3.2865,-3.2486,-3.1985,-3.1625,-3.1336,-3.1161,-3.1058,-3.1056,-3.1091,-3.0443,-3.0053,-3.0261,-3.0599,-3.0647,-3.0099,-3.0881,-3.1659,-3.2207,-3.2757,-3.3693,-3.509,-3.5104,-3.5096,-3.5221,-3.4103,-3.2409,-3.0093,-2.9575,-2.7879,-2.4943,-2.3817,-2.2318,-2.0455,-1.9397,-1.9176,-1.969,-1.969,-2.0007,-2.061,-2.0723,-2.0673,-2.0523,-2.0785,-2.0785,-2.0723,-2.1006,-2.141,-2.1793,-2.2109,-2.2526,-2.2951,0.0,0.0,0.0,0.0,0.0,0.0,-3.7471,-3.7183,-3.6942,0.0,-3.6689,-3.6737,-3.6812,-3.6805,-3.693,-3.7234,-3.8539,-3.9358,-3.9287,-4.035,-4.0943,-4.0918,-4.068,-4.0421,-4.0256,-3.9863,-3.9651,-3.9574,-3.9778,-3.9699,-3.9428,-3.993,-3.9582,-3.8476,-3.8336,-3.77,-3.6832,-3.6816,-3.6477,-3.5978,-3.5773,-3.5642,-3.5604,-3.5314,-3.5295,-3.5255,-3.4696,-3.4224,-3.3819,-3.3923,-3.4263,-3.4659,-3.4775,-3.4802,-3.4836,-3.5052,-3.4925,-3.4506,-3.3862,-3.3671,-3.3485,-3.2843,-3.3153,0.0,-3.2702,-3.2875,-3.2909,-3.2088,-3.1781,-3.1652,-3.1652,-3.1849,-3.1916,-3.1536,-3.1894,-3.2021,-3.1319,-3.1529,-3.1467,-3.0783,-3.1309,-3.1996,-3.2772,-3.3499,-3.4432,-3.5735,-3.6037,-3.5956,-3.5451,-3.4757,-3.3335,-3.1028,-3.0041,-2.7879,-2.4362,-2.3534,-2.198,-1.973,-1.8975,-1.903,-1.9754,-1.9575,-1.9887,-2.061,-2.0871,-2.0835,-2.0573,-2.1282,-2.1574,-2.1471,-2.1732,-2.2147,-2.2661,-2.2644,-2.3126,-2.3757,0.0,0.0,0.0,0.0,0.0,0.0,0.0,-3.5716,-3.5074,-3.5004,-3.5206,-3.5522,-3.5856,-3.6399,-3.6594,-3.6284,-3.7246,-3.8213,-3.9073,-3.9483,-4.0115,-4.1111,-4.0823,-4.0874,-4.129,-4.0897,-4.0866,-4.1178,-4.1087,-4.05,-3.9412,-3.9499,-3.9205,-3.8476,-3.8027,-3.777,-3.7748,-3.7429,-3.6745,-3.5887,-3.5766,-3.5922,-3.6182,-3.4912,-3.5187,-3.6134,-3.5354,-3.4804,-3.4469,-3.4295,-3.4455,-3.4784,-3.5387,-3.5506,-3.5419,-3.5347,-3.4816,-3.4185,-3.3913,-3.3448,-3.303,-3.2998,-3.3006,0.0,-3.3272,-3.3175,-3.3091,-3.3005,-3.2834,-3.2641,-3.2586,-3.2695,-3.2826,-3.3019,-3.2838,-3.2414,-3.1544,-3.1709,-3.2112,-3.2594,-3.2534,-3.3082,-3.4684,-3.4726,-3.5206,-3.6504,-3.6736,-3.6501,-3.5752,-3.5535,-3.4361,-3.2074,-3.0994,-2.8938,-2.5813,-2.3745,-2.1978,-2.0553,-1.928,-1.9037,-1.9643,-1.9595,-1.9947,-2.061,-2.0908,-2.1055,-2.1304,-2.2436,-2.2462,-2.1801,-2.2738,-2.3001,-2.2917,-2.3409,-2.3288,-2.293,0.0,0.0,0.0,0.0,0.0,0.0,0.0,-3.495,-3.4473,-3.4269,-3.4263,-3.4604,-3.5493,-3.5849,-3.6236,-3.6753,-3.7496,-3.8182,-3.8881,-3.9552,-4.0217,-4.0796,-4.088,-4.0978,-4.1114,-4.0899,-4.0728,-4.0729,-4.0862,-4.0552,-3.987,-4.0017,-3.965,-3.8942,-3.8563,-3.815,-3.7834,-3.765,-3.7038,-3.6115,-3.6013,-3.582,-3.5564,-3.4926,-3.5081,-3.5652,-3.5012,-3.4498,-3.4164,-3.3963,-3.4064,-3.4274,-3.4064,-3.3921,-3.3884,-3.3937,-3.3571,-3.3215,-3.3653,-3.354,-3.333,-3.3324,-3.3361,0.0,0.0,-3.3503,-3.3539,-3.3697,-3.361,-3.3507,-3.3649,-3.3732,-3.3703,-3.3565,-3.3746,-3.3515,-3.228,-3.218,-3.2335,-3.2562,-3.3162,-3.4124,-3.5664,-3.5703,-3.5887,-3.6615,-3.7039,-3.6998,-3.6252,-3.6234,-3.5203,-3.2931,-3.141,-2.9036,-2.5668,-2.3664,-2.1799,-2.0074,-1.9307,-1.9211,-1.9642,-1.9908,-2.0307,-2.0822,-2.1153,-2.1361,-2.1485,-2.2398,-2.2715,-2.2738,-2.3952,-2.409,-2.3701,-2.3839,-2.358,-2.3216,-3.4021,-3.4684,0.0,0.0,0.0,0.0,0.0,0.0,-3.4363,-3.3998,-3.3698,-3.3941,-3.4979,-3.5068,-3.5523,-3.672,-3.7532,-3.8079,-3.8374,-3.9545,-4.0228,-4.0285,-4.085,-4.0965,-4.0642,-4.0625,-4.0419,-4.0037,-4.0316,-4.0334,-4.0117,-4.032,-4.0082,-3.9469,-3.9124,-3.8579,-3.786,-3.7658,-3.7058,-3.6181,-3.6026,-3.553,-3.4878,-3.4939,-3.5012,-3.5084,-3.4627,-3.4277,-3.3957,-3.3582,-3.3604,-3.3561,-3.2488,-3.2029,-3.1958,-3.2247,-3.2139,-3.2102,-3.3112,-3.3278,-3.3262,-3.3355,-3.3521,-3.3636,0.0,0.0,0.0,-3.4301,-3.4251,-3.4267,-3.4688,-3.469,-3.4493,-3.4041,-3.4479,-3.4409,-3.3106,-3.3011,-3.294,-3.2653,-3.3755,-3.5081,-3.6422,-3.668,-3.6741,-3.6749,-3.7378,-3.75,-3.6811,-3.6719,-3.5754,-3.3611,-3.1509,-2.8727,-2.5275,-2.3416,-2.1483,-1.9517,-1.9317,-1.9462,-1.9833,-2.021,-2.0606,-2.1082,-2.1423,-2.1568,-2.1568,-2.2216,-2.2956,-2.3774,-2.4838,-2.4958,-2.4532,-2.4159,-2.3875,-2.3706,-3.3838,-3.4649,-3.5174,0.0,0.0,0.0,0.0,0.0,-3.434,-3.3868,-3.3671,-3.3517,-3.3324,-3.3758,-3.4021,-3.397,-3.5436,-3.6604,-3.7217,-3.8256,-3.9189,-3.9921,-4.0565,-4.0848,-4.0704,-4.0979,-4.0913,-4.0531,-4.0239,-3.995,-3.9618,-3.9487,-3.9583,-3.9723,-3.9103,-3.8649,-3.8351,-3.7663,-3.661,-3.5416,-3.5202,-3.5109,-3.509,-3.4722,-3.4975,-3.5506,-3.5149,-3.5053,-3.4948,-3.3665,-3.3242,-3.3113,-3.2288,-3.171,-3.1385,-3.1678,-3.145,-3.1265,-3.1901,-3.1885,-3.1868,-3.2837,-3.2836,-3.2876,-3.3955,0.0,-3.4382,-3.4833,0.0,-3.5115,-3.5436,0.0,0.0,-3.517,-3.4593,-3.4056,-3.3889,-3.4514,-3.4961,-3.4923,-3.5023,-3.5828,-3.7694,-3.817,-3.8159,-3.7772,-3.8145,-3.8085,-3.7422,-3.6748,-3.5682,-3.4172,-3.1232,-2.8417,-2.5751,-2.3065,-2.1135,-1.9926,-1.9477,-1.9641,-2.0332,-2.0231,-2.062,-2.1375,-2.1423,-2.1616,-2.2024,-2.3108,-2.3851,-2.4425,-2.4805,-2.4888,-2.4733,-2.4523,-2.4077,-2.3612,-3.3225,-3.4296,-3.5126,0.0,0.0,0.0,0.0,0.0,-3.4124,-3.3895,-3.3605,-3.3467,-3.3573,-3.3815,-3.4088,-3.4446,-3.512,-3.5741,-3.6254,-3.7506,-3.8438,-3.8852,-4.0354,-4.1074,-4.0895,-4.1314,-4.13,-4.0819,-4.0566,-4.0288,-3.9952,-3.9677,-3.9634,-3.9831,-3.8817,-3.8381,-3.8298,-3.738,-3.6375,-3.5326,-3.4987,-3.4491,-3.397,-3.3885,-3.4117,-3.4509,-3.4857,-3.4628,-3.4121,-3.3517,-3.3043,-3.2474,-3.0997,-3.0778,-3.0972,-3.0633,-3.0747,-3.1101,-3.1898,-3.2106,-3.2091,-3.2411,-3.285,-3.3306,-3.3696,-3.4362,-3.5038,-3.5419,0.0,0.0,0.0,0.0,0.0,0.0,-3.5172,-3.4789,-3.4777,-3.5224,-3.5476,-3.5202,-3.5869,-3.6769,-3.777,-3.8662,-3.892,-3.8278,-3.851,-3.8235,-3.7266,-3.6569,-3.5125,-3.2778,-3.0186,-2.7512,-2.4767,-2.261,-2.1015,-2.0023,-1.9874,-2.0089,-2.066,-2.0822,-2.1166,-2.1664,-2.1712,-2.2158,-2.2856,-2.3192,-2.4034,-2.5048,-2.4997,-2.5314,-2.5733,-2.5422,-2.4882,-2.4152,-3.2699,-3.4034,-3.5092,-3.5072,0.0,0.0,0.0,-3.4282,-3.4,-3.3626,-3.3403,-3.3412,-3.3684,-3.3672,-3.387,-3.4492,-3.4725,-3.5001,-3.534,-3.6859,-3.7778,-3.7893,-3.9805,-4.0815,-4.0569,-4.1268,-4.1384,-4.0878,-4.0844,-4.0728,-4.0453,-4.0087,-3.9986,-4.0003,-3.8823,-3.8153,-3.7869,-3.6788,-3.5811,-3.4871,-3.4435,-3.3773,-3.3024,-3.3225,-3.337,-3.362,-3.4243,-3.3852,-3.3007,-3.2735,-3.2163,-3.127,-2.9604,-2.9424,-2.979,-2.9437,-2.9717,-3.0409,-3.1286,-3.1731,-3.1945,-3.1945,-3.2632,-3.3326,-3.3598,-3.4342,-3.5118,-3.5634,-3.5683,0.0,0.0,0.0,-3.5641,-3.572,0.0,-3.5324,-3.5441,-3.5935,-3.6207,-3.5972,-3.7235,-3.8163,-3.8307,-3.9201,-3.9446,-3.8737,-3.8965,-3.8432,-3.6943,-3.5852,-3.4088,-3.1359,-2.8656,-2.6168,-2.3923,-2.2186,-2.0917,-2.0233,-2.0271,-2.0523,-2.0908,-2.1215,-2.1601,-2.1994,-2.2199,-2.2754,-2.3526,-2.3414,-2.4083,-2.5204,-2.5096,-2.5584,-2.6323,-2.595,-2.5479,-2.4928,-3.252,-3.4001,-3.5075,-3.502,-3.5001,-3.4661,-3.3695,-3.4078,-3.406,-3.2896,-3.3076,-3.322,-3.3046,-3.2805,-3.2692,-3.2844,-3.372,-3.4325,-3.4521,-3.6155,-3.7221,-3.7399,-3.8866,-3.9592,-3.9472,-4.0614,-4.0971,-4.0521,-4.0961,-4.1088,-4.0871,-4.0583,-4.0485,-4.0434,-3.9357,-3.8173,-3.6876,-3.5748,-3.4695,-3.3734,-3.333,-3.3008,-3.2814,-3.2891,-3.3091,-3.3322,-3.3355,-3.2816,-3.2009,-3.1083,-3.0162,-2.9247,-2.8257,-2.7679,-2.7418,-2.8061,-2.8371,-2.8651,-2.9468,-3.0079,-3.0648,-3.1427,-3.1729,-3.2283,-3.3889,-3.4058,-3.414,-3.5191,-3.5028,-3.4798,-3.4906,-3.4779,-3.4818,-3.5414,-3.5278,0.0,0.0,-3.678,-3.7718,-3.8169,-3.9532,-4.0318,-3.9994,-4.0056,-3.9894,-3.9172,-3.9544,-3.8902,-3.6613,-3.4461,-3.2459,-3.0578,-2.6556,-2.4226,-2.3722,-2.1799,-2.0795,-2.0746,-2.066,-2.0822,-2.118,-2.118,-2.1686,-2.2478,-2.2804,-2.335,-2.3983,-2.3983,-2.4259,-2.4769,-2.5067,-2.5515,-2.5908,-2.5772,-2.5742,-2.5809,-3.1705,-3.3116,-3.441,-3.498,-3.502,-3.4832,-3.4312,-3.3821,-3.3473,-3.3313,-3.3367,-3.3327,-3.3011,-3.2993,-3.3006,-3.3055,-3.3478,-3.3833,-3.4026,-3.5705,-3.6738,-3.6813,-3.8817,-3.9832,-3.9601,-4.0365,-4.052,-4.0091,-4.0556,-4.0464,0.0,0.0,0.0,0.0,-3.8179,-3.7172,-3.6246,-3.5172,-3.3972,-3.2757,-3.2427,-3.2429,-3.2722,-3.2972,-3.3031,-3.3043,-3.3619,-3.2781,-3.1311,-3.1002,-2.9876,-2.8369,-2.7219,-2.7292,-2.7721,-2.728,-2.7679,-2.8371,-2.8915,-2.9176,-2.9504,-3.0296,-3.1402,-3.2584,-3.3465,-3.4316,-3.4961,-3.534,-3.5107,-3.4836,-3.4871,-3.4799,-3.4916,-3.5479,-3.5307,-3.5486,0.0,-3.8432,-3.9701,-3.9884,-4.0144,-4.0411,-4.07,-4.1075,-4.1069,-4.0531,-3.9831,-3.8524,-3.6485,-3.3321,-3.073,-2.8753,-2.5709,-2.3557,-2.2458,-2.1599,-2.1077,-2.0795,-2.0759,-2.0921,-2.118,-2.1277,-2.17,-2.2406,-2.2669,-2.3386,-2.4302,-2.4224,-2.4448,-2.4778,-2.4393,-2.4708,-2.5494,-2.5714,-2.5826,-2.5864,-3.1222,-3.24,-3.3596,-3.445,-3.4528,-3.4301,-3.3799,-3.3019,-3.2569,-3.2783,-3.2739,-3.269,-3.2763,-3.2793,-3.2943,-3.3321,-3.3473,-3.3799,-3.4371,-3.5465,-3.6266,-3.666,-3.81,-3.877,-3.8573,-3.9433,-3.982,-3.9713,-4.0232,-4.0299,0.0,0.0,0.0,0.0,-3.7464,-3.6431,-3.5634,-3.4465,-3.3287,-3.2252,-3.1898,-3.179,-3.1794,-3.2038,-3.2178,-3.2241,-3.252,-3.1499,-2.9976,-2.9538,-2.831,-2.6787,-2.5583,-2.575,-2.6211,-2.5728,-2.6454,-2.7507,-2.7911,-2.848,-2.9039,-2.9475,-3.0568,-3.1785,-3.274,-3.3488,-3.4069,-3.444,-3.4359,-3.4141,-3.3857,-3.3968,-3.4376,-3.5214,-3.5292,-3.5973,0.0,-3.9463,-4.0508,-4.102,-4.0958,-4.0991,-4.126,-4.1557,-4.1524,-4.1153,-4.0132,-3.8622,-3.6586,-3.289,-2.9931,-2.8024,-2.5081,-2.3093,-2.214,-2.1523,-2.1134,-2.0987,-2.0923,-2.0974,-2.1189,-2.1552,-2.2016,-2.2511,-2.2877,-2.3661,-2.4693,-2.4323,-2.4453,-2.478,-2.3949,-2.4026,-2.4681,-2.5284,-2.5729,-2.5913,-3.1092,-3.1927,-3.2707,-3.343,-3.3507,-3.3144,-3.2274,-3.1812,-3.1518,-3.1476,-3.1313,-3.1482,-3.2183,-3.2136,-3.2454,-3.3432,-3.3588,-3.4107,-3.5299,-3.5374,-3.5839,-3.6873,-3.6733,-3.6604,-3.6525,-3.7929,-3.8884,-3.9309,-3.995,-4.0506,0.0,0.0,0.0,0.0,-3.7269,-3.6011,-3.5042,-3.3576,-3.2639,-3.2092,-3.1573,-3.091,-3.0256,-3.0141,-3.0469,-3.0898,-3.0117,-2.9155,-2.8048,-2.6843,-2.5711,-2.4587,-2.3606,-2.3218,-2.3199,-2.3567,-2.4722,-2.5986,-2.647,-2.7792,-2.9056,-2.9019,-2.9317,-3.0057,-3.1742,-3.1753,-3.1682,-3.2642,-3.2912,-3.2724,-3.1936,-3.2384,-3.3324,-3.4712,-3.5407,-3.6738,-3.9528,-3.9833,-4.0209,-4.1586,-4.1961,-4.2012,-4.1749,-4.1557,-4.1382,-4.1043,-4.0441,-3.918,-3.6946,-3.3143,-3.0156,-2.8277,-2.4637,-2.2732,-2.2783,-2.1542,-2.1062,-2.1287,-2.1077,-2.1064,-2.1208,-2.1818,-2.2373,-2.2884,-2.3349,-2.4121,-2.503,-2.4347,-2.4307,-2.4689,-2.3726,-2.345,-2.3628,-2.439,-2.5341,-2.5972,-3.0918,-3.1731,-3.2147,-3.1769,-3.2241,-3.2713,-3.2826,-3.1747,-3.1259,-3.2162,-3.1788,-3.1519,-3.1685,-3.1715,-3.1869,-3.2233,-3.2358,-3.2844,-3.3799,-3.4505,-3.5259,-3.6081,-3.6658,-3.6906,-3.6783,-3.7697,-3.8174,-3.8129,-3.9199,-3.9422,-3.8851,0.0,0.0,0.0,0.0,-3.5717,-3.4352,-3.3859,-3.2662,-3.0959,-2.9774,-2.944,-2.9652,-2.9012,-2.856,-2.8317,-2.883,-2.8291,-2.716,-2.6066,-2.493,-2.388,-2.3269,-2.3237,-2.3428,-2.3568,-2.4066,-2.4846,-2.5997,-2.6599,-2.7184,-2.8449,-2.9405,-3.0267,-3.118,-3.1482,-3.1622,-3.1898,-3.212,-3.217,-3.1858,-3.3001,-3.4243,-3.4924,-3.672,-3.8321,-3.9103,-4.0577,-4.1372,-4.0767,-4.1939,-4.2895,-4.2921,-4.2176,-4.189,-4.2243,-4.1028,-3.9511,-3.782,-3.4044,-3.1017,-2.8759,-2.5584,-2.333,-2.2251,-2.1708,-2.1375,-2.1235,-2.0831,-2.0673,-2.0816,-2.108,-2.1601,-2.2468,-2.2946,-2.3624,-2.4379,-2.4457,-2.4355,-2.4048,-2.322,-2.2921,-2.3042,-2.3819,-2.4377,-2.4702,-3.0393,-3.1111,-3.1487,-3.1054,-3.1054,-3.1316,-3.1874,-3.1114,-3.0845,-3.1891,-3.1415,-3.1102,-3.147,-3.1316,-3.1377,-3.1843,-3.1967,-3.2614,-3.3958,-3.4187,-3.4792,-3.5962,-3.6113,-3.6128,-3.602,-3.6784,-3.7242,-3.7396,-3.8269,-3.8551,-3.8252,0.0,0.0,0.0,0.0,-3.4973,-3.4042,-3.3218,-3.1754,-2.9866,-2.8956,-2.8236,0.0,-2.7145,-2.6563,-2.6055,-2.6224,-2.6145,-2.5783,-2.4641,-2.3769,-2.303,-2.2403,-2.234,-2.254,-2.2815,-2.3362,-2.4069,-2.4982,-2.5836,-2.6702,-2.7678,-2.8694,-2.965,-3.0368,-3.0672,-3.0807,-3.0866,-3.1538,-3.2014,-3.1606,-3.3123,-3.4738,-3.5811,-3.7568,-3.8957,-3.9423,-4.0946,-4.1782,-4.1349,-4.2078,-4.284,-4.3413,-4.2722,-4.2322,-4.2558,-4.1672,-4.0495,-3.932,-3.554,-3.2318,-3.0009,-2.6661,-2.4104,-2.2553,-2.1803,-2.13,-2.1037,-2.0811,-2.0772,-2.0934,-2.1428,-2.2047,-2.2695,-2.3128,-2.3609,-2.403,-2.407,-2.3842,-2.3498,-2.2811,-2.2628,-2.2799,-2.3117,-2.3865,-2.4594,-2.9753,-3.0396,-3.0884,-3.0772,-2.9982,-2.9547,-3.0132,-2.9976,-3.0092,-3.0944,-3.0388,-3.0202,-3.1048,-3.0719,-3.0789,-3.169,-3.1826,-3.2599,-3.4412,-3.3937,-3.4296,-3.591,-3.5379,-3.4982,-3.4945,-3.5723,-3.6436,-3.7042,-3.7434,-3.7866,0.0,0.0,0.0,0.0,0.0,-3.409,-3.3778,-3.1994,-3.0302,-2.8878,-2.8494,-2.7108,-2.5279,-2.5163,-2.4794,-2.4191,-2.3446,-2.3722,-2.4218,-2.295,-2.2423,-2.2167,-2.1343,-2.1197,-2.1401,-2.1924,-2.2751,-2.3605,-2.3981,-2.5332,-2.6685,-2.6925,-2.7689,-2.8598,-2.9479,-2.9696,-2.9715,-2.9748,-3.0956,-3.1856,-3.1289,-3.3052,-3.5133,-3.6872,-3.8,-3.9002,-4.0044,-4.091,-4.1688,-4.2309,-4.2204,0.0,-4.323,-4.2848,-4.2532,-4.2535,-4.2157,-4.161,-4.079,-3.72,-3.3973,-3.1463,-2.7799,-2.5025,-2.3356,-2.1891,-2.1068,-2.0863,-2.0888,-2.1002,-2.1284,-2.2184,-2.2773,-2.3045,-2.3387,-2.3676,-2.3911,-2.345,-2.3283,-2.311,-2.2638,-2.2609,-2.2819,-2.2428,-2.3457,-2.4767,-2.9568,-3.0359,-3.0696,-3.0021,-2.9231,-2.8688,-2.8689,-2.8091,-2.8165,-2.9617,-2.8596,-2.8104,-2.9075,-2.9051,-2.9396,-3.0411,-3.0487,-3.0918,-3.2038,-3.2592,-3.3303,-3.4279,-3.4871,-3.5176,-3.5141,-3.5945,-3.6673,-3.7327,-3.7197,-3.7322,0.0,0.0,0.0,0.0,0.0,-3.3658,-3.2639,-3.0154,-2.8883,-2.8398,-2.6961,-2.5671,-2.4645,-2.4713,-2.4066,-2.3181,-2.3123,-2.3264,-2.318,-2.1532,-2.1322,-2.1608,-2.0809,-2.1151,-2.1953,-2.2368,-2.2782,-2.3323,-2.4397,-2.4909,-2.5518,-2.6957,-2.7544,-2.7966,-2.8795,-2.9009,-2.9059,-2.9059,-2.9856,-3.0705,-3.1133,-3.3553,-3.5912,-3.7219,-3.7927,-3.8688,-3.9846,-4.0474,-4.0984,-4.1543,-4.203,-4.2143,-4.1717,-4.1281,-4.1454,-4.2643,-4.2215,-4.1534,-4.0761,-3.8551,-3.5719,-3.2489,-2.8902,-2.5913,-2.3546,-2.2157,-2.1244,-2.0943,-2.08,-2.0928,-2.1352,-2.1493,-2.2003,-2.2786,-2.2822,-2.3144,-2.3513,-2.3772,-2.3547,-2.3031,-2.2743,-2.2638,-2.2533,-2.2013,-2.2598,-2.3597,-2.8931,-2.9701,-3.0039,-2.9265,-2.8385,-2.7804,-2.7867,-2.6827,-2.6688,-2.8633,-2.8289,-2.8067,-2.8544,-2.8341,-2.8395,-2.8906,-2.936,-3.0017,-3.0931,-3.1725,-3.2557,-3.3393,-3.3843,-3.4054,-3.4054,-3.488,-3.5419,-3.564,-3.6173,-3.64,0.0,0.0,0.0,-3.522,0.0,-3.2226,-3.0999,-2.9307,-2.8244,-2.7597,-2.6775,-2.5464,-2.4123,-2.421,-2.3505,-2.2454,-2.2173,-2.2068,-2.1922,-2.1133,-2.0772,-2.0683,-2.0783,-2.1238,-2.19,-2.2675,-2.3093,-2.3458,-2.4096,-2.4968,-2.576,-2.6136,-2.7337,-2.8419,-2.8298,-2.8684,-2.9067,-2.9067,-2.9734,-3.0778,-3.2331,-3.3996,-3.5571,-3.7014,-3.7503,-3.8144,-3.9466,-4.029,-4.103,-4.1608,-4.1902,-4.2053,-4.2139,-4.1362,-4.1168,-4.1972,-4.2295,-4.2165,-4.1418,-3.9761,-3.7317,-3.3911,-3.0327,-2.718,-2.4459,-2.259,-2.1595,-2.1429,-2.1285,-2.1397,-2.1948,-2.2138,-2.2555,-2.3056,-2.3341,-2.347,-2.3422,-2.3372,-2.304,-2.2621,-2.2293,-2.2204,-2.2132,-2.162,-2.1911,-2.248,-2.8162,-2.8724,-2.9022,-2.8445,-2.7552,-2.7003,-2.7229,-2.6015,-2.5753,-2.7641,-2.7869,-2.7903,-2.8065,-2.7758,-2.7607,-2.778,-2.8489,-2.9291,-3.016,-3.0998,-3.1835,-3.2713,-3.2929,-3.3114,-3.3299,-3.3978,-3.4403,-3.4558,-3.534,-3.5614,-3.538,0.0,0.0,-3.3935,-3.2133,-3.0619,-2.9345,-2.8535,-2.7598,-2.6623,-2.6422,-2.5217,-2.3572,-2.3719,-2.2976,-2.1821,-2.1373,-2.0976,-2.0679,-2.0798,-2.0408,-1.9984,-2.0833,-2.1342,-2.1847,-2.2982,-2.3522,-2.3738,-2.3881,-2.4951,-2.5892,-2.5327,-2.6964,-2.8556,-2.7982,-2.8556,-2.9222,-2.9222,-2.9847,-3.1001,-3.3004,-3.3973,-3.4968,-3.6463,-3.6985,-3.7658,-3.9045,-3.9964,-4.0756,-4.1509,-4.1423,-4.1579,-4.2286,-4.1524,-4.107,-4.1193,-4.2138,-4.2441,-4.1685,-4.043,-3.8253,-3.4992,-3.1581,-2.849,-2.5669,-2.337,-2.2048,-2.1855,-2.1796,-2.1988,-2.251,-2.29,-2.3143,-2.3311,-2.3778,-2.3737,-2.3255,-2.285,-2.2482,-2.2235,-2.1788,-2.1591,-2.159,-2.1179,-2.1217,-2.149,-2.7317,-2.7422,-2.7506,-2.7516,-2.6887,-2.6401,-2.6499,-2.58,-2.5584,-2.6466,-2.6066,-2.5946,-2.6611,-2.6697,-2.6997,-2.7745,-2.7941,-2.8386,-2.9264,-3.0124,-3.1004,-3.1874,-3.2666,-3.346,-3.4254,-3.4351,-3.5082,-3.6446,-3.5588,-3.5343,-3.5627,-3.4344,-3.2847,-3.1168,-3.0472,-2.9384,-2.8012,-2.7164,-2.6286,-2.5496,-2.4809,-2.3894,-2.2988,-2.3251,-2.2416,-2.113,-2.1438,-2.069,-1.9599,-1.9833,-1.9947,-2.0077,-2.057,-2.1339,-2.2269,-2.3415,-2.3881,-2.4098,-2.4301,-2.4413,-2.4653,-2.5309,-2.6316,-2.7287,-2.7842,-2.866,-2.9293,-2.9293,-2.9832,-3.0581,-3.1476,-3.2915,-3.4376,-3.5597,-3.6508,-3.746,-3.8759,-3.8872,-3.9257,-4.0489,-4.0234,-4.0105,-4.0442,-4.0669,-4.0799,-4.0674,-4.145,-4.1446,-4.0339,-3.9917,-3.8159,-3.4895,-3.2458,-2.9821,-2.7071,-2.461,-2.2893,-2.1925,-2.2039,-2.234,-2.2741,-2.2829,-2.2853,-2.2898,-2.3094,-2.3081,-2.2922,-2.2567,-2.2161,-2.1714,-2.1348,-2.1076,-2.0789,-2.0551,-2.0627,-2.0722,-2.5819,-2.6254,-2.6513,-2.6102,-2.578,-2.5454,-2.507,-2.5168,-2.5438,-2.5811,-2.5599,-2.5541,-2.5858,-2.5914,-2.6086,-2.645,-2.6953,-2.7616,-2.8477,-2.9358,-3.023,-3.1099,-3.1472,-3.1829,-3.2175,-3.2722,-3.3281,-3.3819,-3.3704,-3.362,-3.3524,-3.2558,-3.1474,-3.0344,-2.9606,-2.8643,-2.7558,-2.675,-2.5932,-2.509,-2.4816,-2.4164,-2.3401,-2.3591,-2.2716,-2.1378,-2.1207,-2.0468,-1.9556,-1.9335,-1.9233,-1.9394,-2.0705,-2.1426,-2.2052,-2.3637,-2.4192,-2.432,-2.4478,-2.4816,-2.5079,-2.4837,-2.5818,-2.6913,-2.715,-2.7894,-2.8676,-2.9196,-2.9828,-3.0567,-3.1378,-3.2371,-3.3597,-3.52,-3.5586,-3.6331,-3.8217,-3.8366,-3.876,-3.9984,-3.9691,-3.9403,-3.9472,-3.9835,-3.9796,-3.9312,-4.0991,-4.1654,-4.085,-3.9967,-3.8491,-3.6098,-3.2668,-2.9818,-2.7683,-2.5047,-2.3464,-2.2778,-2.2811,-2.2906,-2.2904,-2.2994,-2.293,-2.274,-2.2623,-2.2598,-2.2543,-2.2211,-2.1889,-2.1451,-2.1019,-2.0646,-2.0313,-2.0248,-1.9943,-1.9563,-2.4167,-2.505,-2.5525,-2.4557,-2.4263,-2.4049,-2.3785,-2.4458,-2.5023,-2.5137,-2.5309,-2.5453,-2.549,-2.5517,-2.5543,-2.5577,-2.6113,-2.6819,-2.7686,-2.8566,-2.9434,-3.0302,-3.0584,-3.0842,-3.1117,-3.1752,-3.2168,-3.2305,-3.2387,-3.2353,-3.2193,-3.0964,-3.0107,-2.9568,-2.8446,-2.7459,-2.6599,-2.6108,-2.5358,-2.4505,-2.4539,-2.4118,-2.3498,-2.3362,-2.2511,-2.133,-2.0754,-2.0085,-1.9422,-1.9399,-1.9291,-1.9453,-2.0988,-2.1698,-2.23,-2.3876,-2.4407,-2.451,-2.4629,-2.4993,-2.517,-2.4487,-2.5374,-2.6446,-2.6585,-2.7308,-2.8202,-2.9074,-2.9658,-3.0337,-3.1441,-3.1961,-3.2915,-3.4897,-3.5055,-3.5513,-3.7239,-3.7464,-3.7821,-3.8756,-3.8531,-3.8304,-3.8221,-3.8529,-3.8557,-3.8007,-3.9703,-4.0562,-3.9979,-3.9353,-3.8021,-3.5862,-3.2377,-2.9665,-2.7753,-2.5415,-2.3968,-2.3279,-2.3238,-2.3105,-2.2968,-2.2884,-2.2773,-2.263,-2.2297,-2.2209,-2.2223,-2.1765,-2.1358,-2.0917,-2.0411,-1.9951,-1.9628,-1.95,-1.9157,-1.8689,-2.2507,-2.3774,-2.4447,-2.2976,-2.224,-2.2086,-2.2796,-2.3656,-2.4245,-2.4305,-2.5013,-2.5499,-2.5499,-2.5562,-2.5568,-2.5505,-2.5565,-2.5974,-2.6863,-2.7729,-2.8603,-2.9489,-3.0351,-3.1198,-3.2058,-3.2088,-3.2489,-3.3273,-3.2295,-3.2044,-3.245,-2.9913,-2.8615,-2.833,-2.6682,-2.5523,-2.4838,-2.4968,-2.4446,-2.3539,-2.3512,-2.3307,-2.2933,-2.2194,-2.1423,-2.0653,-2.0172,-1.9486,-1.8986,-2.0105,-2.0528,-2.0694,-2.1386,-2.2331,-2.3345,-2.4165,-2.4543,-2.4723,-2.4779,-2.4657,-2.4478,-2.4336,-2.4912,-2.5666,-2.6271,-2.7178,-2.8132,-2.8942,-2.9197,-2.9802,-3.1395,-3.1663,-3.2385,-3.4723,-3.5138,-3.532,-3.5763,-3.5877,-3.6045,-3.6416,-3.6517,-3.6517,-3.643,-3.6806,-3.702,-3.6906,-3.7406,-3.7478,-3.6862,-3.7565,-3.6443,-3.3237,-3.1575,-2.958,-2.7352,-2.5878,-2.4575,-2.3289,-2.3048,-2.2884,-2.2783,-2.2317,-2.2244,-2.247,-2.2005,-2.1837,-2.1815,-2.121,-2.0534,-1.9896,-1.9408,-1.8949,-1.8498,-1.812,-1.8099,-1.8137,-2.1783,-2.2291,-2.2704,-2.2708,-2.1634,-2.0866,-2.1082,-2.2411,-2.3825,-2.5031,-2.5418,-2.5271,-2.4501,-2.4597,-2.4715,-2.4677,-2.4694,-2.5352,-2.6864,-2.7238,-2.7774,-2.8635,-2.8947,-2.9469,-3.0303,-2.9796,-2.9892,-3.0706,-2.9666,-2.9002,-2.8728,-2.7867,-2.7389,-2.7218,-2.673,-2.6086,-2.5311,-2.4721,-2.3868,-2.2903,-2.2219,-2.1815,-2.1617,-2.1419,-2.0873,-2.0147,-2.0133,-1.9686,-1.9137,-1.9599,-2.0604,-2.1732,-2.1936,-2.2607,-2.3528,-2.4534,-2.4794,-2.4779,-2.4856,-2.4749,-2.4594,-2.4476,-2.5004,-2.5762,-2.6514,-2.7809,-2.8904,-2.9123,-2.9175,-2.9717,-3.144,-3.1714,-3.2255,-3.4065,-3.4378,-3.454,-3.4993,-3.506,-3.5395,-3.615,-3.5745,-3.5411,-3.5375,-3.527,-3.5007,-3.4674,-3.5734,-3.6704,-3.7394,-3.6587,-3.5426,-3.394,-3.0726,-2.8464,-2.7212,-2.5282,-2.4013,-2.3211,-2.2946,-2.2758,-2.2648,-2.1725,-2.1572,-2.1922,-2.1463,-2.1158,-2.1008,-2.056,-2.0026,-1.9397,-1.9019,-1.8553,-1.7966,-1.7729,-1.7461,-1.7092,-2.0956,-2.1479,-2.1948,-2.1827,-2.1003,-2.0377,-2.0386,-2.1327,-2.2457,-2.3544,-2.4433,-2.4701,-2.3988,-2.3586,-2.3621,-2.4272,-2.4642,-2.5313,-2.6449,-2.6823,-2.7238,-2.7792,-2.8123,-2.8372,-2.8569,-2.8064,-2.7889,-2.8072,-2.7602,-2.6988,-2.6246,-2.6486,-2.6538,-2.6414,-2.5851,-2.5276,-2.4688,-2.3747,-2.2941,-2.2188,-2.1584,-2.1249,-2.1131,-2.0906,-2.0532,-2.0083,-1.997,-1.9682,-1.946,-2.0261,-2.1315,-2.2432,-2.3114,-2.3669,-2.4185,-2.4788,-2.494,-2.4926,-2.4926,-2.4856,-2.4794,-2.4916,-2.5316,-2.5968,-2.7101,-2.842,-2.9388,-2.9349,-2.9328,-2.9736,-3.1098,-3.1299,-3.1747,-3.3271,-3.3478,-3.3642,-3.4157,-3.4166,-3.4321,-3.4959,-3.4376,-3.3863,-3.3763,-3.3382,-3.2939,-3.2454,-3.3513,-3.4467,-3.5138,-3.4609,-3.3645,-3.2429,-2.9323,-2.7156,-2.6,-2.4745,-2.3795,-2.3146,-2.2591,-2.2339,-2.2374,-2.1174,-2.0897,-2.1391,-2.0852,-2.0375,-2.0037,-1.9641,-1.9072,-1.8371,-1.7937,-1.7533,-1.7081,-1.6779,-1.6477,-1.6168,-2.0096,-2.1214,-2.1901,-2.0546,-2.041,-2.0516,-2.0519,-2.0511,-2.0591,-2.0831,-2.2718,-2.393,-2.3702,-2.2567,-2.2461,-2.4085,-2.4959,-2.5488,-2.5593,-2.6366,-2.6855,-2.6914,-2.7637,-2.7672,-2.6922,-2.6783,-2.6337,-2.5503,-2.5994,-2.58,-2.4936,-2.5636,-2.5899,-2.5785,-2.4266,-2.346,-2.3164,-2.2281,-2.1721,-2.1443,-2.137,-2.1315,-2.1188,-2.0585,-2.0343,-2.0285,-1.9719,-1.9611,-1.9972,-2.1727,-2.245,-2.2886,-2.4591,-2.516,-2.5176,-2.498,-2.5006,-2.5082,-2.5019,-2.5023,-2.512,-2.56,-2.5866,-2.6427,-2.811,-2.9064,-2.9626,-2.9682,-2.9683,-2.987,-3.0495,-3.0559,-3.0969,-3.2366,-3.2496,-3.263,-3.3281,-3.3118,-3.2948,-3.3049,-3.25,-3.1984,-3.1706,-3.1277,-3.0817,-3.0366,-3.0966,-3.1261,-3.1002,-3.1775,-3.1389,-2.9363,-2.758,-2.5923,-2.4261,-2.4182,-2.3814,-2.2962,-2.1917,-2.164,-2.203,-2.0575,-2.0289,-2.0864,-2.0098,-1.953,-1.9039,-1.8521,-1.7812,-1.6966,-1.6427,-1.6098,-1.5758,-1.5468,-1.5371,-1.5332,-1.9998,-2.0384,-2.067,-2.0497,-2.053,-2.0583,-2.058,-2.0585,-2.1504,-2.414,-2.4949,-2.4284,-2.1673,-2.181,-2.2183,-2.2402,-2.2597,-2.3281,-2.4616,-2.4897,-2.5309,-2.5982,-2.5565,-2.5547,-2.5994,-2.4697,-2.3878,-2.3566,-2.3644,-2.3832,-2.4159,-2.4331,-2.4404,-2.4314,-2.3833,-2.3172,-2.2412,-2.1425,-2.0967,-2.0836,-2.0115,-1.9874,-1.9944,-1.9778,-1.9701,-1.9722,-1.9729,-2.0126,-2.0747,-2.1308,-2.2454,-2.3726,-2.4138,-2.4793,-2.5322,-2.5176,-2.5141,-2.5164,-2.5096,-2.5545,-2.604,-2.6015,-2.6927,-2.8289,-2.9981,-3.0037,-2.9906,-3.0471,-3.0039,-2.9773,-3.0532,-3.0578,-3.0738,-3.1437,-3.148,-3.1583,-3.199,-3.16,-3.1568,-3.2381,-3.1116,-3.0226,-3.0402,-2.9496,-2.9193,-2.9887,-2.9773,-2.9973,-3.0708,-2.961,-2.8958,-2.8995,-2.7471,-2.5918,-2.4461,-2.367,-2.2791,-2.176,-2.1055,-2.1008,-2.1596,-2.0109,-1.9692,-2.012,-1.9138,-1.8371,-1.7874,-1.7498,-1.6854,-1.6176,-1.5882,-1.5441,-1.4942,-1.4765,-1.4782,-1.4882,-1.9867,-2.0125,-2.0304,-2.0507,-2.0559,-2.0558,-2.0602,-2.0598,-2.1263,-2.3125,-2.3338,-2.2617,-2.0755,-2.1069,-2.136,-2.1223,-2.2291,-2.3387,-2.433,-2.4762,-2.5037,-2.5098,-2.464,-2.4257,-2.3963,-2.2625,-2.149,-2.0615,-2.132,-2.1856,-2.223,-2.2996,-2.3326,-2.3217,-2.2764,-2.2004,-2.1072,-2.0525,-2.0014,-1.9602,-1.9527,-1.9545,-1.9638,-1.9713,-1.972,-1.9751,-2.0289,-2.0793,-2.132,-2.218,-2.3189,-2.4109,-2.4522,-2.5009,-2.5437,-2.5331,-2.5284,-2.536,-2.5704,-2.6124,-2.6646,-2.7281,-2.8316,-2.9418,-3.0345,-3.0177,-2.992,-3.0246,-2.9907,-2.9642,-2.9927,-2.9876,-2.9973,-3.0402,-3.0476,-3.0624,-3.1034,-3.0818,-3.0688,-3.0967,-2.9702,-2.8693,-2.8542,-2.7653,-2.7473,-2.8282,-2.8195,-2.8443,-2.9256,-2.7917,-2.7455,-2.8158,-2.6733,-2.5295,-2.3998,-2.2802,-2.1914,-2.1329,-2.0373,-2.0312,-2.0947,-1.9136,-1.8608,-1.9109,-1.7901,-1.7155,-1.6725,-1.6416,-1.5794,-1.5111,-1.493,-1.4611,-1.4258,-1.4196,-1.4268,-1.4318,-1.9107,-1.9826,-2.0357,-2.0543,-2.0547,-2.0525,-2.0594,-2.1038,-2.1175,-2.0641,-2.0941,-2.1015,-2.0533,-2.0627,-2.0651,-2.0478,-2.2617,-2.3974,-2.3981,-2.468,-2.4833,-2.4235,-2.4079,-2.3333,-2.1911,-2.0845,-1.9506,-1.7896,-1.9278,-2.0031,-2.0262,-2.166,-2.2374,-2.239,-2.1644,-2.075,-1.9821,-1.9802,-1.923,-1.8435,-1.9363,-1.9687,-1.9688,-2.0074,-2.0181,-2.0247,-2.1206,-2.1655,-2.2037,-2.3531,-2.416,-2.4451,-2.5182,-2.5452,-2.5538,-2.5599,-2.5619,-2.5751,-2.6438,-2.6815,-2.7354,-2.884,-2.9612,-3.0045,-3.0171,-3.0051,-2.9859,-2.9813,-2.9683,-2.9453,-2.9166,-2.9038,-2.9106,-2.9485,-2.9526,-2.9739,-3.0333,-3.0219,-2.9887,-2.9315,-2.8192,-2.718,-2.6512,-2.5952,-2.5815,-2.6243,-2.6553,-2.6878,-2.7306,-2.6538,-2.6332,-2.6972,-2.5655,-2.4393,-2.3275,-2.183,-2.1125,-2.1144,-1.9905,-1.9625,-2.0111,-1.8069,-1.7449,-1.8023,-1.6648,-1.5906,-1.5664,-1.5364,-1.4723,-1.4019,-1.3951,-1.3796,-1.3648,-1.3643,-1.3644,-1.3704,-1.617,-1.8263,-2.0346,-2.0486,-2.0506,-2.0522,-2.0583,-2.3004,-2.3801,-2.0889,-2.2814,-2.3448,-2.0718,-2.1216,-2.1385,-2.0423,-2.1376,-2.2066,-2.2124,-2.2302,-2.2668,-2.3276,-2.2598,-2.2085,-2.1813,-2.0232,-1.8903,-1.7901,-1.8144,-1.8969,-2.0301,-2.054,-2.1024,-2.1653,-2.1406,-2.0795,-1.9973,-1.9861,-1.9352,-1.8709,-1.9547,-1.9495,-1.9116,-2.061,-2.1201,-2.1372,-2.2303,-2.3106,-2.3732,-2.4056,-2.4697,-2.5379,-2.5467,-2.5538,-2.5723,-2.645,-2.663,-2.6602,-2.6733,-2.776,-2.9023,-2.9955,-3.012,-3.0285,-3.1016,-3.0465,-2.9979,-3.0584,-2.9979,-2.9291,-2.9115,-2.8938,-2.8955,-2.9275,-2.8938,-2.8919,-2.9864,-2.8943,-2.8139,-2.7992,-2.6488,-2.5307,-2.488,-2.4807,-2.4837,-2.4881,-2.5571,-2.5976,-2.5988,-2.5257,-2.494,-2.508,-2.4627,-2.3743,-2.2454,-2.1302,-2.0643,-2.0532,-1.956,-1.9089,-1.9134,-1.7453,-1.6806,-1.6929,-1.5584,-1.4868,-1.4708,-1.4374,-1.38,-1.3197,-1.3326,-1.3187,-1.2861,-1.2852,-1.3037,-1.3233,-1.6546,-1.7152,-1.825,-2.0161,-2.0507,-2.0522,-2.0585,-2.1811,-2.2103,-2.0352,-2.1514,-2.1905,-2.0304,-2.0641,-2.0757,-2.0195,-2.0542,-2.0785,-2.0785,-2.1752,-2.2333,-2.2347,-2.1954,-2.1107,-1.9737,-1.8447,-1.7363,-1.65,-1.6974,-1.7813,-1.9016,-1.9484,-1.9896,-2.021,-2.0134,-1.9624,-1.8847,-1.9241,-1.9205,-1.8945,-1.9769,-1.9907,-1.9745,-2.1065,-2.1582,-2.1796,-2.3159,-2.3886,-2.4275,-2.4791,-2.524,-2.5605,-2.5615,-2.56,-2.5775,-2.6629,-2.7524,-2.8187,-2.8171,-2.8992,-2.9969,-3.0275,-3.0254,-3.0209,-3.0424,-3.0103,-2.9776,-2.9897,-2.9527,-2.9097,-2.8952,-2.881,-2.8703,-2.8802,-2.8683,-2.8609,-2.8727,-2.8176,-2.7531,-2.6847,-2.5705,-2.4798,-2.4229,-2.4059,-2.4134,-2.4431,-2.4652,-2.4923,-2.5156,-2.4382,-2.3907,-2.3955,-2.351,-2.2771,-2.186,-2.0745,-2.0027,-1.9765,-1.872,-1.8024,-1.7647,-1.6597,-1.5878,-1.5525,-1.4621,-1.3992,-1.3631,-1.3269,-1.2881,-1.2506,-1.2484,-1.235,-1.2239,-1.2228,-1.2402,-1.2677,-1.6953,-1.6865,-1.7418,-2.0041,-2.0506,-2.0506,-2.0544,-2.0346,-2.0117,-1.9922,-2.023,-2.0337,-1.9963,-2.0184,-2.0231,-2.0,-1.9859,-1.9764,-1.9716,-2.0877,-2.152,-2.1391,-2.1196,-2.0085,-1.7929,-1.7038,-1.618,-1.5328,-1.6188,-1.705,-1.7929,-1.8785,-1.928,-1.9431,-1.9429,-1.9059,-1.844,-1.9118,-1.9256,-1.9091,-1.9993,-2.0235,-2.0172,-2.1285,-2.1853,-2.2239,-2.3772,-2.4451,-2.4724,-2.5394,-2.5628,-2.5624,-2.5675,-2.5652,-2.5814,-2.6873,-2.8332,-2.9619,-2.9573,-3.0018,-3.0447,-3.033,-3.0188,-3.0041,-2.9769,-2.9645,-2.9455,-2.9115,-2.8998,-2.8929,-2.881,-2.8687,-2.867,-2.8829,-2.8679,-2.844,-2.8106,-2.7592,-2.6826,-2.5663,-2.499,-2.4283,-2.3467,-2.3407,-2.3526,-2.3806,-2.3802,-2.3909,-2.424,-2.3507,-2.2969,-2.2776,-2.2364,-2.1877,-2.1186,-2.018,-1.9436,-1.891,-1.7831,-1.7,-1.6322,-1.571,-1.5069,-1.4341,-1.3761,-1.3277,-1.2781,-1.2313,-1.2064,-1.1887,-1.1784,-1.178,-1.1752,-1.181,-1.192,-1.2082,-1.5568,-1.7945,-2.0191,-2.0458,-2.0494,-2.0472,-2.0413,-2.0098,-1.9922,-2.0131,-2.0827,-2.0973,-2.0097,-2.0606,-2.0721,-1.9968,-1.922,-1.884,-1.8879,-1.8321,-1.8715,-2.033,-1.9684,-1.8819,-1.7833,-1.7001,-1.6206,-1.5393,-1.6198,-1.7045,-1.7919,-1.8785,-1.9632,-2.0391,-2.0406,-2.0326,-2.0204,-2.0282,-1.9842,-1.9176,-2.0115,-2.0003,-1.9458,-2.1142,-2.2294,-2.3123,-2.4053,-2.4914,-2.5613,-2.5665,-2.5701,-2.5687,-2.5703,-2.5652,-2.5911,-2.7529,-2.9101,-3.0335,-3.0312,-3.0351,-3.0386,-3.0318,-3.0056,-2.9801,-2.9716,-2.9414,-2.9112,-2.8952,-2.8858,-2.8785,-2.8718,-2.8694,-2.9039,-3.0094,-2.9022,-2.8213,-2.8763,-2.7121,-2.5388,-2.4192,-2.3665,-2.3036,-2.2061,-2.2688,-2.2908,-2.2395,-2.2878,-2.3081,-2.2853,-2.2594,-2.2099,-2.1207,-2.138,-2.1073,-2.0296,-1.9604,-1.891,-1.8147,-1.7268,-1.6549,-1.5931,-1.5001,-1.4401,-1.3965,-1.3025,-1.2482,-1.2321,-1.1811,-1.1504,-1.136,-1.1616,-1.1703,-1.1737,-1.176,-1.1762,-1.1723,-1.6728,-1.8862,-1.9866,-1.7653,-1.7283,-1.7922,-1.9865,-1.9487,-1.924,-1.9916,-2.0316,-2.0342,-1.987,-2.0146,-2.0198,-1.9801,-1.9183,-1.8795,-1.8735,-1.7554,-1.7399,-1.8631,-1.7921,-1.7329,-1.6999,-1.6203,-1.5659,-1.5401,-1.5659,-1.6254,-1.717,-1.8017,-1.8581,-1.8974,-1.9471,-1.9687,-1.966,-1.966,-1.9786,-2.0002,-2.0404,-2.0343,-2.0135,-2.1331,-2.2348,-2.3218,-2.4092,-2.4966,-2.5707,-2.5707,-2.5701,-2.5707,-2.571,-2.564,-2.5902,-2.7508,-2.907,-3.0254,-3.0163,-3.0182,-3.0188,-3.0034,-2.9803,-2.9551,-2.9373,-2.9203,-2.9044,-2.8881,-2.881,-2.881,-2.8815,-2.8743,-2.8819,-2.9233,-2.8614,-2.7964,-2.7701,-2.6538,-2.509,-2.3443,-2.2958,-2.2321,-2.1226,-2.1845,-2.2222,-2.1961,-2.2481,-2.2646,-2.2296,-2.162,-2.0947,-2.0219,-2.0025,-1.9798,-1.9579,-1.8804,-1.8038,-1.7413,-1.6461,-1.5613,-1.4688,-1.4291,-1.3571,-1.265,-1.229,-1.1802,-1.1199,-1.1194,-1.1118,-1.0927,-1.1066,-1.1217,-1.1299,-1.1064,-1.1133,-1.1234,-1.6856,-1.8923,-1.9406,-1.594,-1.6131,-1.7279,-1.8827,-1.8701,-1.8608,-1.9106,-1.919,-1.9244,-1.936,-1.9462,-1.9473,-1.9413,-1.8856,-1.8355,-1.801,-1.6737,-1.6366,-1.7217,-1.6772,-1.6495,-1.6507,-1.5714,-1.5323,-1.5377,-1.5598,-1.6037,-1.6687,-1.7511,-1.8066,-1.8395,-1.8956,-1.9342,-1.9606,-1.9607,-2.0117,-2.0917,-2.0975,-2.1128,-2.1375,-2.1982,-2.2753,-2.3589,-2.4183,-2.4959,-2.5679,-2.5687,-2.5697,-2.5675,-2.5691,-2.5799,-2.6197,-2.7459,-2.8732,-2.9751,-2.9908,-2.9902,-2.9855,-2.9753,-2.957,-2.9357,-2.9163,-2.9067,-2.8952,-2.8834,-2.881,-2.8834,-2.8858,-2.881,-2.8785,-2.8835,-2.8235,-2.7453,-2.6561,-2.5487,-2.4104,-2.2277,-2.1835,-2.1334,-2.0386,-2.1011,-2.1355,-2.1055,-2.1626,-2.1744,-2.1167,-2.046,-1.9721,-1.9009,-1.8561,-1.8274,-1.8172,-1.7795,-1.7268,-1.6631,-1.5603,-1.4669,-1.3914,-1.339,-1.2666,-1.1677,-1.1608,-1.1101,-1.0509,-1.0581,-1.0578,-1.0552,-1.0616,-1.0798,-1.0944,-1.0679,-1.0683,-1.0773,-1.5383,-1.7932,-1.922,-1.5977,-1.7932,-1.9278,-1.73,-1.7734,-1.8117,-1.7665,-1.747,-1.7728,-1.8582,-1.8627,-1.864,-1.8784,-1.806,-1.7247,-1.6443,-1.5586,-1.5455,-1.625,-1.642,-1.6495,-1.649,-1.57,-1.5307,-1.5303,-1.6159,-1.6594,-1.6624,-1.749,-1.8362,-1.9191,-1.9219,-1.9685,-2.0506,-2.0509,-2.1006,-2.1808,-2.1869,-2.2377,-2.3102,-2.3102,-2.3647,-2.4401,-2.4397,-2.4912,-2.5613,-2.5681,-2.5648,-2.5615,-2.5683,-2.6157,-2.684,-2.7486,-2.816,-2.8856,-2.9578,-2.9589,-2.9434,-2.957,-2.9415,-2.9209,-2.9209,-2.8984,-2.881,-2.881,-2.8858,-2.8839,-2.8718,-2.8791,-2.898,-2.9313,-2.804,-2.6619,-2.5622,-2.385,-2.2132,-2.067,-2.0301,-1.9977,-1.9446,-2.0257,-2.0398,-1.9473,-2.0216,-2.0287,-1.9338,-1.8989,-1.8389,-1.7545,-1.7099,-1.6576,-1.5867,-1.6631,-1.6641,-1.5874,-1.4619,-1.3914,-1.3631,-1.2351,-1.1677,-1.1428,-1.08,-1.0458,-1.04,-1.0007,-1.0024,-1.0212,-1.0337,-1.0509,-1.0683,-1.0793,-1.0663,-1.0443,-1.5316,-1.6039,-1.6426,-1.5482,-1.6055,-1.6695,-1.6907,-1.6983,-1.7152,-1.7483,-1.7543,-1.7591,-1.7688,-1.7822,-1.788,-1.7824,-1.7205,-1.6472,-1.5608,-1.5223,-1.5095,-1.5247,-1.5376,-1.5431,-1.5388,-1.5235,-1.5135,-1.5094,-1.5408,-1.5843,-1.6413,-1.7379,-1.8272,-1.9078,-1.9755,-2.0199,-2.0492,-2.0503,-2.0999,-2.1805,-2.1826,-2.2342,-2.3104,-2.3101,-2.3634,-2.4391,-2.4394,-2.4923,-2.5595,-2.5615,-2.5585,-2.5525,-2.5493,-2.6045,-2.6688,-2.6653,-2.7222,-2.7839,-2.7843,-2.7793,-2.7978,-2.9116,-2.9291,-2.9181,-2.9138,-2.9093,-2.9067,-2.9021,-2.8494,-2.8187,-2.8609,-2.7628,-2.6856,-2.7285,-2.5988,-2.4596,-2.3742,-2.2601,-2.1355,-1.9946,-1.9586,-1.9225,-1.8815,-1.9291,-1.953,-1.9293,-1.941,-1.9293,-1.8826,-1.7961,-1.7149,-1.6456,-1.597,-1.5279,-1.4385,-1.5292,-1.5323,-1.4569,-1.3914,-1.3199,-1.2351,-1.1856,-1.1291,-1.0725,-1.0529,-1.0226,-0.9949,-1.0131,-1.0178,-1.0128,-1.0381,-1.0479,-1.0564,-1.0415,-1.0368,-1.0321,-1.5255,-1.5236,-1.5231,-1.5318,-1.5606,-1.5923,-1.6215,-1.638,-1.649,-1.6608,-1.6675,-1.6765,-1.6956,-1.7123,-1.7174,-1.7091,-1.6436,-1.5637,-1.4733,-1.4875,-1.4919,-1.4776,-1.4839,-1.4871,-1.4825,-1.4961,-1.4995,-1.4923,-1.5004,-1.5315,-1.5809,-1.6792,-1.7696,-1.8564,-1.9472,-2.0114,-2.0502,-2.05,-2.1195,-2.2301,-2.2305,-2.3042,-2.414,-2.4136,-2.4456,-2.4901,-2.4877,-2.5187,-2.5595,-2.5604,-2.5556,-2.5485,-2.5387,-2.5658,-2.603,-2.6064,-2.6464,-2.6887,-2.6916,-2.6935,-2.7158,-2.8046,-2.8484,-2.8701,-2.8655,-2.8891,-2.8997,-2.8644,-2.8009,-2.7513,-2.7549,-2.6509,-2.5658,-2.5657,-2.4563,-2.3307,-2.2256,-2.1318,-2.032,-1.9148,-1.8836,-1.8656,-1.8388,-1.8681,-1.8795,-1.859,-1.8113,-1.7734,-1.7418,-1.6572,-1.5808,-1.5185,-1.48,-1.4218,-1.3359,-1.3821,-1.3906,-1.3545,-1.2948,-1.2352,-1.1609,-1.1099,-1.0614,-1.0221,-1.0012,-0.9754,-0.9652,-0.994,-0.9986,-0.9944,-1.0162,-1.0143,-0.9992,-1.0067,-0.9992,-1.003,-1.5217,-1.5215,-1.5245,-1.5365,-1.6092,-1.6359,-1.5443,-1.5879,-1.6061,-1.5385,-1.5294,-1.557,-1.6292,-1.6377,-1.6372,-1.6359,-1.5649,-1.4826,-1.397,-1.4577,-1.4878,-1.46,-1.4639,-1.469,-1.4663,-1.4799,-1.4839,-1.4782,-1.4906,-1.4999,-1.5106,-1.6065,-1.7003,-1.7945,-1.8825,-1.9682,-2.0506,-2.0497,-2.1504,-2.3101,-2.311,-2.4145,-2.5702,-2.5699,-2.5703,-2.5694,-2.5613,-2.5605,-2.5593,-2.5587,-2.5512,-2.5437,-2.5309,-2.5146,-2.5089,-2.5623,-2.578,-2.5923,-2.6449,-2.6634,-2.6674,-2.652,-2.715,-2.78,-2.7869,-2.8364,-2.8562,-2.7824,-2.7349,-2.6824,-2.589,-2.5375,-2.4906,-2.4292,-2.344,-2.2391,-2.0962,-2.005,-1.916,-1.8244,-1.8163,-1.8163,-1.8163,-1.8372,-1.8173,-1.7544,-1.6574,-1.584,-1.5487,-1.5004,-1.444,-1.3791,-1.368,-1.3323,-1.2705,-1.2369,-1.2382,-1.2691,-1.1832,-1.1418,-1.1238,-1.028,-0.9826,-0.9834,-0.9292,-0.923,-0.9458,-0.9458,-0.9506,-0.962,-0.9771,-0.962,-0.9322,-0.9695,-0.9787,-0.9687,-1.5284,-1.5289,-1.5299,-1.5327,-1.5487,-1.5579,-1.5407,-1.5466,-1.5458,-1.5254,-1.5269,-1.5327,-1.5395,-1.4898,-1.4534,-1.4492,-1.436,-1.4166,-1.3927,-1.4547,-1.4558,-1.3727,-1.4283,-1.4552,-1.4379,-1.4526,-1.4608,-1.4635,-1.4728,-1.5104,-1.581,-1.6851,-1.7815,-1.8708,-1.9689,-2.0254,-2.0502,-2.0499,-2.1507,-2.3108,-2.3095,-2.4143,-2.5703,-2.5709,-2.5707,-2.5691,-2.5613,-2.5576,-2.5512,-2.5401,-2.5293,-2.5175,-2.5091,-2.5,-2.4904,-2.4839,-2.4928,-2.5026,-2.4948,-2.5002,-2.5054,-2.4875,-2.5523,-2.632,-2.6809,-2.7503,-2.7732,-2.6749,-2.6356,-2.5986,-2.5349,-2.3867,-2.268,-2.2476,-2.1342,-2.0131,-1.9255,-1.8761,-1.8287,-1.7706,-1.7828,-1.7963,-1.7963,-1.7585,-1.7146,-1.66,-1.5688,-1.4915,-1.4321,-1.3962,-1.3428,-1.2669,-1.275,-1.2464,-1.1701,-1.1619,-1.1654,-1.184,-1.1395,-1.0843,-1.0249,-0.9997,-0.9713,-0.9357,-0.9267,-0.9264,-0.9326,-0.9326,-0.9357,-0.9397,-0.9397,-0.9397,-0.9322,-0.9397,-0.9658,-1.0027,-1.4666,-1.4651,-1.472,-1.4737,-1.4698,-1.4845,-1.5323,-1.533,-1.5293,-1.5246,-1.5276,-1.5265,-1.5206,-1.4516,-1.3878,-1.3403,-1.411,-1.4212,-1.3374,-1.3958,-1.4038,-1.343,-1.3792,-1.4135,-1.4399,-1.4456,-1.4519,-1.4549,-1.4614,-1.492,-1.5451,-1.6904,-1.7849,-1.8435,-1.9767,-2.0408,-2.0492,-2.0506,-2.151,-2.3098,-2.3101,-2.3903,-2.5074,-2.5044,-2.4775,-2.4404,-2.4335,-2.4523,-2.4841,-2.5159,-2.5192,-2.5096,-2.5025,-2.4955,-2.485,-2.462,-2.465,-2.4708,-2.4447,-2.4498,-2.4549,-2.4266,-2.4561,-2.5096,-2.5745,-2.649,-2.6731,-2.5659,-2.5095,-2.4585,-2.3877,-2.255,-2.1433,-2.1124,-2.0132,-1.9126,-1.8549,-1.8161,-1.7828,-1.7516,-1.7611,-1.7611,-1.7297,-1.6485,-1.5844,-1.5576,-1.4652,-1.39,-1.3518,-1.3138,-1.2726,-1.221,-1.2089,-1.1722,-1.1128,-1.0744,-1.0575,-1.0698,-1.0572,-1.0238,-0.9678,-0.9384,-0.915,-0.8963,-0.8867,-0.8835,-0.8861,-0.9094,-0.9094,-0.9013,-0.9246,-0.917,-0.9022,-0.9361,-0.9838,-1.0319,-1.3958,-1.3961,-1.4106,-1.4105,-1.4186,-1.4451,-1.5071,-1.5267,-1.5252,-1.5108,-1.5218,-1.529,-1.5299,-1.4456,-1.3588,-1.2859,-1.4018,-1.4188,-1.28,-1.3353,-1.358,-1.3233,-1.3382,-1.3784,-1.4515,-1.4534,-1.4523,-1.4522,-1.4589,-1.4685,-1.4851,-1.6526,-1.7474,-1.7871,-1.9406,-2.0247,-2.0503,-2.0513,-2.1422,-2.2888,-2.2888,-2.3396,-2.4157,-2.4105,-2.3708,-2.3184,-2.314,-2.3573,-2.4293,-2.4952,-2.5126,-2.508,-2.4987,-2.4921,-2.4847,-2.4676,-2.465,-2.4601,-2.4465,-2.4464,-2.4445,-2.4134,-2.4057,-2.4164,-2.465,-2.5344,-2.5595,-2.4497,-2.3894,-2.3261,-2.2254,-2.1428,-2.0698,-2.0089,-1.9339,-1.8717,-1.8279,-1.7868,-1.7543,-1.7447,-1.7297,-1.6954,-1.6278,-1.5253,-1.4547,-1.4389,-1.3484,-1.2909,-1.2824,-1.2321,-1.1979,-1.1811,-1.1308,-1.0937,-1.0573,-0.9886,-0.9466,-0.9483,-0.9614,-0.9554,-0.928,-0.8798,-0.8594,-0.8576,-0.8385,-0.8327,-0.8403,-0.8718,-0.8713,-0.8627,-0.9013,-0.8961,-0.8784,-0.9503,-1.0075,-1.0569,-1.3903,-1.4005,-1.41,-1.4102,-1.4715,-1.5007,-1.4374,-1.4901,-1.5089,-1.4272,-1.4826,-1.5303,-1.5306,-1.3909,-1.2924,-1.2806,-1.2951,-1.2934,-1.2713,-1.3431,-1.3462,-1.2576,-1.3254,-1.3985,-1.4668,-1.4672,-1.4672,-1.4661,-1.4687,-1.4766,-1.4906,-1.5982,-1.6941,-1.7833,-1.8818,-1.9722,-2.0506,-2.0568,-2.1124,-2.1972,-2.1989,-2.2452,-2.3188,-2.319,-2.3502,-2.3946,-2.3941,-2.4407,-2.5041,-2.5041,-2.5019,-2.4981,-2.4884,-2.4783,-2.4727,-2.4754,-2.462,-2.4442,-2.4408,-2.4284,-2.4135,-2.3978,-2.3878,-2.375,-2.3425,-2.4087,-2.4364,-2.3128,-2.3196,-2.303,-2.1451,-2.0797,-2.0181,-1.9251,-1.8655,-1.8228,-1.8003,-1.7461,-1.7128,-1.724,-1.6527,-1.5683,-1.4709,-1.4261,-1.3731,-1.3092,-1.2374,-1.187,-1.1587,-1.1122,-1.0777,-1.0576,-1.0312,-0.9962,-0.951,-0.9251,-0.8933,-0.847,-0.8548,-0.8618,-0.8558,-0.8435,-0.8205,-0.7925,-0.8103,-0.8102,-0.8178,-0.8183,-0.8178,-0.8178,-0.8403,-0.859,-0.8797,-0.9823,-1.0262,-1.0427,-1.2579,-1.2603,-1.2691,-1.2707,-1.2984,-1.3256,-1.3359,-1.4114,-1.4537,-1.4104,-1.4815,-1.5178,-1.4683,-1.3521,-1.2662,-1.2339,-1.2829,-1.3156,-1.3202,-1.294,-1.2681,-1.2465,-1.282,-1.3598,-1.4802,-1.481,-1.4828,-1.4868,-1.4794,-1.4803,-1.4919,-1.5906,-1.6888,-1.7883,-1.877,-1.9678,-2.0561,-2.0546,-2.1031,-2.1794,-2.1798,-2.1998,-2.2274,-2.2236,-2.2373,-2.2714,-2.3601,-2.4091,-2.4359,-2.479,-2.4926,-2.4884,-2.4813,-2.4689,-2.4588,-2.4622,-2.4485,-2.434,-2.4302,-2.4192,-2.404,-2.3798,-2.3649,-2.3432,-2.2952,-2.305,-2.3102,-2.2443,-2.2279,-2.1892,-2.0713,-2.025,-1.9743,-1.8731,-1.8465,-1.8189,-1.7733,-1.7365,-1.6818,-1.6111,-1.494,-1.4053,-1.3663,-1.297,-1.2464,-1.2178,-1.1532,-1.108,-1.0957,-1.0494,-1.016,-1.0024,-0.9602,-0.9136,-0.8772,-0.8438,-0.8075,-0.7655,-0.7618,-0.7821,-0.8205,-0.8143,-0.7982,-0.7828,-0.7918,-0.7876,-0.7791,-0.8025,-0.7949,-0.7804,-0.8376,-0.8848,-0.9311,-0.9912,-1.0309,-1.0615]}]]